Wetterdaten: aktuell Freitag, 18.10.2019 12:12
Datum Zeit Temp. I. Temp. 2m Temp. Gh Feuchte I. Feuchte 2m Feuchte Gh Luftdruck Regen Wind Richtung Richtung ET Taupunkt Windchill Windben Empfang
18.10.2019 12:12 25,2 C 11,1 C 15,0 C 44 % 93 % 86 % 1017,8 hPa 0,0 l/m 1,6 km/h (1 Bft) O 90 0,000 mm 10,0 C 11,1 C 3,2 km/h (1 Bft) 91,30 %
18.10.2019 12:11 25,2 C 11,1 C 15,0 C 44 % 93 % 86 % 1017,8 hPa 0,0 l/m 1,6 km/h (1 Bft) O 90 0,000 mm 10,0 C 11,1 C 3,2 km/h (1 Bft) 95,65 %
18.10.2019 12:10 25,2 C 11,0 C 14,4 C 44 % 94 % 86 % 1017,9 hPa 0,0 l/m 3,2 km/h (1 Bft) O 90 0,000 mm 10,1 C 11,0 C 11,3 km/h (2 Bft) 91,30 %
18.10.2019 12:09 25,2 C 10,9 C 14,4 C 44 % 95 % 86 % 1017,8 hPa 0,0 l/m 3,2 km/h (1 Bft) O 90 0,000 mm 10,1 C 10,9 C 11,3 km/h (2 Bft) 100,00 %
18.10.2019 12:08 25,1 C 10,8 C 14,4 C 44 % 96 % 87 % 1017,9 hPa 0,0 l/m 3,2 km/h (1 Bft) O 90 0,000 mm 10,2 C 10,8 C 4,8 km/h (1 Bft) 86,96 %
18.10.2019 12:07 25,1 C 10,8 C 14,4 C 44 % 96 % 86 % 1017,9 hPa 0,0 l/m 3,2 km/h (1 Bft) NO 45 0,000 mm 10,2 C 10,8 C 6,4 km/h (2 Bft) 95,65 %
18.10.2019 12:06 25,1 C 10,7 C 14,4 C 44 % 96 % 86 % 1018,0 hPa 0,0 l/m 4,8 km/h (1 Bft) N-NO 22 0,000 mm 10,1 C 10,7 C 8,0 km/h (2 Bft) 86,96 %
18.10.2019 12:05 25,1 C 10,7 C 14,4 C 44 % 96 % 86 % 1017,9 hPa 0,0 l/m 3,2 km/h (1 Bft) N-NO 22 0,000 mm 10,1 C 10,7 C 4,8 km/h (1 Bft) 100,00 %
18.10.2019 12:04 25,1 C 10,6 C 14,4 C 44 % 96 % 86 % 1018,0 hPa 0,0 l/m 1,6 km/h (1 Bft) N-NO 22 0,000 mm 10,0 C 10,6 C 3,2 km/h (1 Bft) 86,96 %
18.10.2019 12:03 25,1 C 10,6 C 14,4 C 44 % 97 % 86 % 1018,0 hPa 0,0 l/m 0,0 km/h (0 Bft) N 0 0,000 mm 10,1 C 10,6 C 0,0 km/h (0 Bft) 95,65 %
18.10.2019 12:02 25,1 C 10,6 C 14,4 C 44 % 97 % 87 % 1018,1 hPa 0,0 l/m 0,0 km/h (0 Bft) N-NO 22 0,000 mm 10,1 C 10,6 C 1,6 km/h (1 Bft) 91,30 %
18.10.2019 12:01 25,1 C 10,6 C 14,4 C 44 % 97 % 87 % 1018,0 hPa 0,0 l/m 3,2 km/h (1 Bft) N-NO 22 0,000 mm 10,1 C 10,6 C 4,8 km/h (1 Bft) 91,30 %
18.10.2019 12:00 25,1 C 10,5 C 14,4 C 44 % 97 % 87 % 1018,1 hPa 0,0 l/m 4,8 km/h (1 Bft) N 360 0,000 mm 10,0 C 10,5 C 6,4 km/h (2 Bft) 95,65 %
18.10.2019 11:59 25,1 C 10,4 C 14,4 C 44 % 97 % 88 % 1018,1 hPa 0,0 l/m 4,8 km/h (1 Bft) N 360 0,000 mm 9,9 C 10,4 C 8,0 km/h (2 Bft) 91,30 %
18.10.2019 11:58 25,1 C 10,4 C 14,4 C 44 % 97 % 88 % 1018,2 hPa 0,0 l/m 4,8 km/h (1 Bft) N 360 0,000 mm 9,9 C 10,4 C 6,4 km/h (2 Bft) 100,00 %
18.10.2019 11:57 25,1 C 10,4 C 14,4 C 44 % 97 % 88 % 1018,1 hPa 0,0 l/m 4,8 km/h (1 Bft) N-NW 337 0,000 mm 9,9 C 10,4 C 8,0 km/h (2 Bft) 91,30 %
18.10.2019 11:56 25,1 C 10,4 C 14,4 C 44 % 97 % 88 % 1018,2 hPa 0,0 l/m 4,8 km/h (1 Bft) N-NO 22 0,000 mm 9,9 C 10,4 C 6,4 km/h (2 Bft) 100,00 %
18.10.2019 11:55 25,1 C 10,3 C 14,4 C 44 % 97 % 87 % 1018,2 hPa 0,0 l/m 4,8 km/h (1 Bft) N 360 0,000 mm 9,8 C 10,3 C 8,0 km/h (2 Bft) 91,30 %
18.10.2019 11:54 25,1 C 10,3 C 14,4 C 44 % 97 % 88 % 1018,1 hPa 0,0 l/m 4,8 km/h (1 Bft) N 360 0,000 mm 9,8 C 10,3 C 8,0 km/h (2 Bft) 91,30 %
18.10.2019 11:53 25,1 C 10,3 C 13,9 C 44 % 97 % 88 % 1018,1 hPa 0,0 l/m 3,2 km/h (1 Bft) N 360 0,000 mm 9,8 C 10,3 C 6,4 km/h (2 Bft) 95,65 %
18.10.2019 11:52 25,1 C 10,3 C 13,9 C 44 % 97 % 87 % 1018,2 hPa 0,0 l/m 1,6 km/h (1 Bft) NO 45 0,000 mm 9,8 C 10,3 C 1,6 km/h (1 Bft) 86,96 %
18.10.2019 11:51 25,1 C 10,2 C 13,9 C 44 % 97 % 88 % 1018,1 hPa 0,0 l/m 1,6 km/h (1 Bft) O-NO 67 0,000 mm 9,7 C 10,2 C 3,2 km/h (1 Bft) 95,65 %
18.10.2019 11:50 25,1 C 10,2 C 13,9 C 44 % 97 % 88 % 1018,1 hPa 0,0 l/m 1,6 km/h (1 Bft) O-NO 67 0,000 mm 9,7 C 10,2 C 3,2 km/h (1 Bft) 95,65 %
18.10.2019 11:49 25,1 C 10,2 C 13,9 C 44 % 97 % 89 % 1018,2 hPa 0,0 l/m 1,6 km/h (1 Bft) O-NO 67 0,000 mm 9,7 C 10,2 C 3,2 km/h (1 Bft) 95,65 %
18.10.2019 11:48 25,1 C 10,1 C 13,9 C 44 % 97 % 88 % 1018,2 hPa 0,0 l/m 1,6 km/h (1 Bft) O 90 0,000 mm 9,6 C 10,1 C 3,2 km/h (1 Bft) 100,00 %
18.10.2019 11:47 25,1 C 10,1 C 13,9 C 44 % 97 % 89 % 1018,3 hPa 0,0 l/m 1,6 km/h (1 Bft) N-NO 22 0,000 mm 9,6 C 10,1 C 3,2 km/h (1 Bft) 86,96 %
18.10.2019 11:46 25,1 C 10,1 C 13,9 C 44 % 97 % 88 % 1018,2 hPa 0,0 l/m 4,8 km/h (1 Bft) N-NO 22 0,000 mm 9,6 C 10,1 C 6,4 km/h (2 Bft) 95,65 %
18.10.2019 11:45 25,1 C 10,1 C 13,9 C 44 % 97 % 88 % 1018,2 hPa 0,0 l/m 4,8 km/h (1 Bft) N-NO 22 0,000 mm 9,6 C 10,1 C 4,8 km/h (1 Bft) 91,30 %
18.10.2019 11:44 25,1 C 10,0 C 13,9 C 44 % 97 % 89 % 1018,3 hPa 0,0 l/m 4,8 km/h (1 Bft) N 360 0,000 mm 9,5 C 9,8 C 6,4 km/h (2 Bft) 95,65 %
18.10.2019 11:43 25,1 C 9,9 C 13,9 C 44 % 97 % 89 % 1018,3 hPa 0,0 l/m 3,2 km/h (1 Bft) N 360 0,000 mm 9,4 C 9,9 C 4,8 km/h (1 Bft) 95,65 %
18.10.2019 11:42 25,1 C 9,9 C 13,9 C 44 % 97 % 89 % 1018,3 hPa 0,0 l/m 3,2 km/h (1 Bft) N 360 0,000 mm 9,4 C 9,9 C 4,8 km/h (1 Bft) 95,65 %
18.10.2019 11:41 25,1 C 9,9 C 13,9 C 44 % 97 % 89 % 1018,3 hPa 0,0 l/m 1,6 km/h (1 Bft) N-NO 22 0,000 mm 9,4 C 9,9 C 3,2 km/h (1 Bft) 100,00 %
18.10.2019 11:40 25,1 C 9,9 C 13,9 C 44 % 97 % 89 % 1018,3 hPa 0,0 l/m 1,6 km/h (1 Bft) O 90 0,000 mm 9,4 C 9,9 C 3,2 km/h (1 Bft) 91,30 %
18.10.2019 11:39 25,1 C 9,9 C 13,9 C 44 % 97 % 89 % 1018,3 hPa 0,0 l/m 1,6 km/h (1 Bft) O 90 0,000 mm 9,4 C 9,9 C 3,2 km/h (1 Bft) 100,00 %
18.10.2019 11:38 25,1 C 9,9 C 13,9 C 44 % 97 % 89 % 1018,3 hPa 0,0 l/m 1,6 km/h (1 Bft) O 90 0,000 mm 9,4 C 9,9 C 3,2 km/h (1 Bft) 95,65 %
18.10.2019 11:37 25,1 C 9,8 C 13,9 C 44 % 97 % 89 % 1018,3 hPa 0,0 l/m 1,6 km/h (1 Bft) O 90 0,000 mm 9,3 C 9,8 C 3,2 km/h (1 Bft) 100,00 %
18.10.2019 11:36 25,1 C 9,8 C 13,9 C 44 % 97 % 88 % 1018,4 hPa 0,0 l/m 1,6 km/h (1 Bft) O 90 0,000 mm 9,3 C 9,8 C 1,6 km/h (1 Bft) 95,65 %
18.10.2019 11:35 25,1 C 9,8 C 13,9 C 44 % 97 % 89 % 1018,3 hPa 0,0 l/m 1,6 km/h (1 Bft) O 90 0,000 mm 9,3 C 9,8 C 3,2 km/h (1 Bft) 100,00 %
18.10.2019 11:34 25,1 C 9,8 C 13,9 C 44 % 97 % 89 % 1018,3 hPa 0,0 l/m 1,6 km/h (1 Bft) O 90 0,000 mm 9,3 C 9,8 C 4,8 km/h (1 Bft) 95,65 %
18.10.2019 11:33 25,1 C 9,8 C 13,9 C 44 % 97 % 89 % 1018,4 hPa 0,0 l/m 1,6 km/h (1 Bft) O-NO 67 0,000 mm 9,3 C 9,8 C 4,8 km/h (1 Bft) 95,65 %
18.10.2019 11:32 25,1 C 9,7 C 13,9 C 44 % 97 % 89 % 1018,3 hPa 0,0 l/m 1,6 km/h (1 Bft) N-NO 22 0,000 mm 9,2 C 9,7 C 3,2 km/h (1 Bft) 95,65 %
18.10.2019 11:31 25,1 C 9,7 C 13,9 C 44 % 97 % 90 % 1018,3 hPa 0,0 l/m 3,2 km/h (1 Bft) N-NO 22 0,000 mm 9,2 C 9,7 C 4,8 km/h (1 Bft) 100,00 %
18.10.2019 11:30 25,1 C 9,7 C 13,9 C 44 % 97 % 90 % 1018,3 hPa 0,0 l/m 1,6 km/h (1 Bft) O-SO 112 0,000 mm 9,2 C 9,7 C 3,2 km/h (1 Bft) 95,65 %
18.10.2019 11:29 25,1 C 9,7 C 13,9 C 44 % 97 % 90 % 1018,5 hPa 0,0 l/m 3,2 km/h (1 Bft) O-SO 112 0,000 mm 9,2 C 9,7 C 4,8 km/h (1 Bft) 95,65 %
18.10.2019 11:28 25,1 C 9,7 C 13,9 C 44 % 97 % 90 % 1018,5 hPa 0,0 l/m 4,8 km/h (1 Bft) O-SO 112 0,000 mm 9,2 C 9,5 C 4,8 km/h (1 Bft) 95,65 %
18.10.2019 11:27 25,1 C 9,7 C 13,9 C 44 % 97 % 90 % 1018,4 hPa 0,0 l/m 3,2 km/h (1 Bft) O-SO 112 0,000 mm 9,2 C 9,7 C 3,2 km/h (1 Bft) 95,65 %
18.10.2019 11:26 25,1 C 9,7 C 13,9 C 44 % 97 % 89 % 1018,4 hPa 0,0 l/m 4,8 km/h (1 Bft) O-SO 112 0,000 mm 9,2 C 9,5 C 6,4 km/h (2 Bft) 95,65 %
18.10.2019 11:25 25,2 C 9,7 C 13,9 C 44 % 97 % 90 % 1018,5 hPa 0,0 l/m 3,2 km/h (1 Bft) O-SO 112 0,000 mm 9,2 C 9,7 C 4,8 km/h (1 Bft) 91,30 %
18.10.2019 11:24 25,1 C 9,7 C 13,9 C 44 % 97 % 91 % 1018,4 hPa 0,0 l/m 3,2 km/h (1 Bft) SO 135 0,000 mm 9,2 C 9,7 C 4,8 km/h (1 Bft) 95,65 %
18.10.2019 11:23 25,1 C 9,7 C 13,3 C 44 % 97 % 91 % 1018,5 hPa 0,0 l/m 3,2 km/h (1 Bft) NO 45 0,000 mm 9,2 C 9,7 C 4,8 km/h (1 Bft) 95,65 %
18.10.2019 11:22 25,1 C 9,7 C 13,3 C 44 % 97 % 91 % 1018,5 hPa 0,0 l/m 3,2 km/h (1 Bft) O-SO 112 0,000 mm 9,2 C 9,7 C 6,4 km/h (2 Bft) 100,00 %
18.10.2019 11:21 25,2 C 9,7 C 13,3 C 44 % 97 % 92 % 1018,5 hPa 0,0 l/m 3,2 km/h (1 Bft) O-SO 112 0,000 mm 9,2 C 9,7 C 4,8 km/h (1 Bft) 95,65 %
18.10.2019 11:20 25,2 C 9,6 C 13,3 C 44 % 97 % 91 % 1018,5 hPa 0,0 l/m 1,6 km/h (1 Bft) O-NO 67 0,000 mm 9,1 C 9,6 C 4,8 km/h (1 Bft) 100,00 %
18.10.2019 11:19 25,2 C 9,6 C 13,3 C 44 % 97 % 92 % 1018,5 hPa 0,0 l/m 1,6 km/h (1 Bft) O-NO 67 0,000 mm 9,1 C 9,6 C 3,2 km/h (1 Bft) 86,96 %
18.10.2019 11:18 25,2 C 9,6 C 13,3 C 44 % 97 % 93 % 1018,5 hPa 0,0 l/m 1,6 km/h (1 Bft) O-NO 67 0,000 mm 9,1 C 9,6 C 3,2 km/h (1 Bft) 95,65 %
18.10.2019 11:17 25,2 C 9,6 C 13,3 C 45 % 97 % 94 % 1018,5 hPa 0,0 l/m 1,6 km/h (1 Bft) O-NO 67 0,000 mm 9,1 C 9,6 C 3,2 km/h (1 Bft) 95,65 %
18.10.2019 11:16 25,2 C 9,6 C 13,3 C 45 % 97 % 94 % 1018,4 hPa 0,0 l/m 3,2 km/h (1 Bft) O 90 0,000 mm 9,1 C 9,6 C 4,8 km/h (1 Bft) 95,65 %
18.10.2019 11:15 25,2 C 9,5 C 13,3 C 45 % 97 % 94 % 1018,5 hPa 0,0 l/m 3,2 km/h (1 Bft) N-NO 22 0,000 mm 9,0 C 9,5 C 6,4 km/h (2 Bft) 91,30 %
18.10.2019 11:14 25,2 C 9,5 C 13,3 C 45 % 97 % 94 % 1018,6 hPa 0,0 l/m 1,6 km/h (1 Bft) SO 135 0,000 mm 9,0 C 9,5 C 3,2 km/h (1 Bft) 100,00 %
18.10.2019 11:13 25,2 C 9,5 C 13,3 C 45 % 97 % 94 % 1018,6 hPa 0,0 l/m 3,2 km/h (1 Bft) SO 135 0,000 mm 9,0 C 9,5 C 4,8 km/h (1 Bft) 91,30 %
18.10.2019 11:12 25,2 C 9,5 C 13,3 C 45 % 97 % 94 % 1018,6 hPa 0,0 l/m 3,2 km/h (1 Bft) SO 135 0,000 mm 9,0 C 9,5 C 4,8 km/h (1 Bft) 91,30 %
18.10.2019 11:11 25,2 C 9,4 C 13,3 C 45 % 97 % 94 % 1018,5 hPa 0,0 l/m 0,0 km/h (0 Bft) O 90 0,000 mm 8,9 C 9,4 C 1,6 km/h (1 Bft) 100,00 %
18.10.2019 11:10 25,2 C 9,4 C 13,3 C 45 % 97 % 94 % 1018,6 hPa 0,0 l/m 1,6 km/h (1 Bft) O 90 0,000 mm 8,9 C 9,4 C 3,2 km/h (1 Bft) 95,65 %
18.10.2019 11:09 25,2 C 9,4 C 13,3 C 45 % 97 % 94 % 1018,6 hPa 0,0 l/m 3,2 km/h (1 Bft) N-NO 22 0,000 mm 8,9 C 9,4 C 3,2 km/h (1 Bft) 100,00 %
18.10.2019 11:08 25,2 C 9,4 C 13,3 C 45 % 97 % 95 % 1018,6 hPa 0,0 l/m 1,6 km/h (1 Bft) N-NO 22 0,000 mm 8,9 C 9,4 C 4,8 km/h (1 Bft) 95,65 %
18.10.2019 11:07 25,2 C 9,4 C 13,3 C 45 % 97 % 95 % 1018,6 hPa 0,0 l/m 3,2 km/h (1 Bft) N-NO 22 0,000 mm 8,9 C 9,4 C 4,8 km/h (1 Bft) 100,00 %
18.10.2019 11:06 25,2 C 9,3 C 13,3 C 45 % 97 % 95 % 1018,7 hPa 0,0 l/m 3,2 km/h (1 Bft) N-NO 22 0,000 mm 8,8 C 9,3 C 4,8 km/h (1 Bft) 95,65 %
18.10.2019 11:05 25,2 C 9,3 C 13,3 C 45 % 97 % 95 % 1018,6 hPa 0,0 l/m 4,8 km/h (1 Bft) N-NO 22 0,000 mm 8,8 C 9,0 C 6,4 km/h (2 Bft) 95,65 %
18.10.2019 11:04 25,2 C 9,3 C 13,3 C 45 % 97 % 95 % 1018,6 hPa 0,0 l/m 3,2 km/h (1 Bft) N-NO 22 0,000 mm 8,8 C 9,3 C 4,8 km/h (1 Bft) 95,65 %
18.10.2019 11:03 25,2 C 9,2 C 13,3 C 45 % 97 % 95 % 1018,6 hPa 0,0 l/m 1,6 km/h (1 Bft) NO 45 0,000 mm 8,7 C 9,2 C 1,6 km/h (1 Bft) 100,00 %
18.10.2019 11:02 25,3 C 9,2 C 13,3 C 45 % 97 % 94 % 1018,6 hPa 0,0 l/m 1,6 km/h (1 Bft) NO 45 0,000 mm 8,7 C 9,2 C 3,2 km/h (1 Bft) 95,65 %
18.10.2019 11:01 25,3 C 9,2 C 13,3 C 45 % 97 % 94 % 1018,6 hPa 0,0 l/m 1,6 km/h (1 Bft) O-SO 112 0,000 mm 8,7 C 9,2 C 4,8 km/h (1 Bft) 100,00 %
18.10.2019 11:00 25,3 C 9,2 C 13,3 C 45 % 97 % 94 % 1018,7 hPa 0,0 l/m 3,2 km/h (1 Bft) O-SO 112 0,000 mm 8,7 C 9,2 C 4,8 km/h (1 Bft) 95,65 %
18.10.2019 10:59 25,3 C 9,2 C 12,8 C 45 % 97 % 94 % 1018,6 hPa 0,0 l/m 3,2 km/h (1 Bft) O 90 0,000 mm 8,7 C 9,2 C 4,8 km/h (1 Bft) 100,00 %
18.10.2019 10:58 25,3 C 9,2 C 12,8 C 45 % 97 % 95 % 1018,7 hPa 0,0 l/m 3,2 km/h (1 Bft) NO 45 0,000 mm 8,7 C 9,2 C 3,2 km/h (1 Bft) 91,30 %
18.10.2019 10:57 25,3 C 9,2 C 12,8 C 46 % 97 % 94 % 1018,7 hPa 0,0 l/m 1,6 km/h (1 Bft) NO 45 0,000 mm 8,7 C 9,2 C 3,2 km/h (1 Bft) 95,65 %
18.10.2019 10:56 25,2 C 9,2 C 12,8 C 46 % 97 % 95 % 1018,7 hPa 0,0 l/m 1,6 km/h (1 Bft) NO 45 0,000 mm 8,7 C 9,2 C 1,6 km/h (1 Bft) 95,65 %
18.10.2019 10:55 25,2 C 9,1 C 12,8 C 46 % 97 % 95 % 1018,8 hPa 0,0 l/m 1,6 km/h (1 Bft) NO 45 0,000 mm 8,6 C 9,1 C 1,6 km/h (1 Bft) 95,65 %
18.10.2019 10:54 25,2 C 9,2 C 12,8 C 46 % 97 % 95 % 1018,7 hPa 0,0 l/m 0,0 km/h (0 Bft) NO 45 0,000 mm 8,7 C 9,2 C 1,6 km/h (1 Bft) 100,00 %
18.10.2019 10:53 25,2 C 9,2 C 12,8 C 46 % 97 % 95 % 1018,7 hPa 0,0 l/m 0,0 km/h (0 Bft) NO 45 0,000 mm 8,7 C 9,2 C 1,6 km/h (1 Bft) 91,30 %
18.10.2019 10:52 25,2 C 9,2 C 12,8 C 46 % 97 % 95 % 1018,7 hPa 0,0 l/m 0,0 km/h (0 Bft) N 0 0,000 mm 8,7 C 9,2 C 0,0 km/h (0 Bft) 100,00 %
18.10.2019 10:51 25,2 C 9,2 C 12,8 C 46 % 97 % 95 % 1018,7 hPa 0,0 l/m 0,0 km/h (0 Bft) N 0 0,000 mm 8,7 C 9,2 C 0,0 km/h (0 Bft) 91,30 %
18.10.2019 10:50 25,1 C 9,2 C 12,8 C 46 % 97 % 94 % 1018,8 hPa 0,0 l/m 1,6 km/h (1 Bft) NO 45 0,000 mm 8,7 C 9,2 C 1,6 km/h (1 Bft) 100,00 %
18.10.2019 10:49 25,1 C 9,2 C 12,8 C 46 % 97 % 94 % 1018,7 hPa 0,0 l/m 0,0 km/h (0 Bft) NO 45 0,000 mm 8,7 C 9,2 C 3,2 km/h (1 Bft) 95,65 %
18.10.2019 10:48 25,1 C 9,2 C 12,8 C 46 % 97 % 94 % 1018,8 hPa 0,0 l/m 1,6 km/h (1 Bft) N-NO 22 0,000 mm 8,7 C 9,2 C 3,2 km/h (1 Bft) 100,00 %
18.10.2019 10:47 25,1 C 9,2 C 12,8 C 46 % 97 % 94 % 1018,7 hPa 0,0 l/m 1,6 km/h (1 Bft) N-NO 22 0,000 mm 8,7 C 9,2 C 3,2 km/h (1 Bft) 91,30 %
18.10.2019 10:46 25,1 C 9,2 C 12,8 C 46 % 97 % 94 % 1018,7 hPa 0,0 l/m 1,6 km/h (1 Bft) N-NO 22 0,000 mm 8,7 C 9,2 C 3,2 km/h (1 Bft) 100,00 %
18.10.2019 10:45 25,0 C 9,1 C 12,8 C 46 % 97 % 94 % 1018,8 hPa 0,0 l/m 1,6 km/h (1 Bft) SO 135 0,000 mm 8,6 C 9,1 C 3,2 km/h (1 Bft) 95,65 %
18.10.2019 10:44 24,9 C 9,1 C 12,8 C 46 % 97 % 94 % 1018,8 hPa 0,0 l/m 1,6 km/h (1 Bft) SO 135 0,000 mm 8,6 C 9,1 C 3,2 km/h (1 Bft) 95,65 %
18.10.2019 10:43 24,9 C 9,1 C 12,8 C 46 % 97 % 95 % 1018,8 hPa 0,0 l/m 0,0 km/h (0 Bft) SO 135 0,000 mm 8,6 C 9,1 C 1,6 km/h (1 Bft) 95,65 %
18.10.2019 10:42 24,9 C 9,1 C 12,2 C 46 % 97 % 94 % 1018,8 hPa 0,0 l/m 0,0 km/h (0 Bft) N 0 0,000 mm 8,6 C 9,1 C 0,0 km/h (0 Bft) 100,00 %
18.10.2019 10:41 24,9 C 9,1 C 12,2 C 46 % 97 % 94 % 1018,9 hPa 0,0 l/m 0,0 km/h (0 Bft) N 0 0,000 mm 8,6 C 9,1 C 0,0 km/h (0 Bft) 95,65 %
18.10.2019 10:40 24,9 C 9,1 C 12,2 C 46 % 97 % 94 % 1018,9 hPa 0,0 l/m 0,0 km/h (0 Bft) SO 135 0,000 mm 8,6 C 9,1 C 1,6 km/h (1 Bft) 95,65 %
18.10.2019 10:39 24,9 C 9,0 C 12,2 C 46 % 97 % 94 % 1018,8 hPa 0,0 l/m 1,6 km/h (1 Bft) SO 135 0,000 mm 8,5 C 9,0 C 3,2 km/h (1 Bft) 100,00 %
18.10.2019 10:38 24,9 C 9,1 C 12,2 C 46 % 97 % 94 % 1019,0 hPa 0,0 l/m 3,2 km/h (1 Bft) SO 135 0,000 mm 8,6 C 9,1 C 4,8 km/h (1 Bft) 91,30 %
18.10.2019 10:37 24,9 C 9,0 C 12,2 C 46 % 97 % 94 % 1019,0 hPa 0,0 l/m 1,6 km/h (1 Bft) SO 135 0,000 mm 8,5 C 9,0 C 3,2 km/h (1 Bft) 95,65 %
18.10.2019 10:36 24,9 C 9,1 C 12,2 C 46 % 97 % 94 % 1018,9 hPa 0,0 l/m 3,2 km/h (1 Bft) SO 135 0,000 mm 8,6 C 9,1 C 3,2 km/h (1 Bft) 95,65 %
18.10.2019 10:35 24,9 C 9,0 C 12,2 C 46 % 97 % 94 % 1018,9 hPa 0,0 l/m 1,6 km/h (1 Bft) SO 135 0,000 mm 8,5 C 9,0 C 3,2 km/h (1 Bft) 91,30 %
18.10.2019 10:34 24,9 C 9,0 C 12,2 C 46 % 97 % 94 % 1018,9 hPa 0,0 l/m 1,6 km/h (1 Bft) SO 135 0,000 mm 8,5 C 9,0 C 3,2 km/h (1 Bft) 95,65 %
18.10.2019 10:33 24,9 C 8,9 C 12,2 C 46 % 97 % 94 % 1018,9 hPa 0,0 l/m 1,6 km/h (1 Bft) O-NO 67 0,000 mm 8,4 C 8,9 C 3,2 km/h (1 Bft) 100,00 %
18.10.2019 10:32 24,9 C 8,9 C 12,2 C 46 % 97 % 94 % 1019,1 hPa 0,0 l/m 1,6 km/h (1 Bft) O-NO 67 0,000 mm 8,4 C 8,9 C 3,2 km/h (1 Bft) 95,65 %
18.10.2019 10:31 24,9 C 8,9 C 12,2 C 46 % 97 % 94 % 1019,0 hPa 0,0 l/m 1,6 km/h (1 Bft) O-NO 67 0,000 mm 8,4 C 8,9 C 3,2 km/h (1 Bft) 95,65 %
18.10.2019 10:30 24,9 C 8,8 C 12,2 C 46 % 97 % 94 % 1019,0 hPa 0,0 l/m 1,6 km/h (1 Bft) SO 135 0,000 mm 8,4 C 8,8 C 1,6 km/h (1 Bft) 91,30 %
18.10.2019 10:29 24,9 C 8,8 C 12,2 C 46 % 97 % 94 % 1019,0 hPa 0,0 l/m 1,6 km/h (1 Bft) SO 135 0,000 mm 8,4 C 8,8 C 3,2 km/h (1 Bft) 100,00 %
18.10.2019 10:28 24,8 C 8,8 C 12,2 C 46 % 97 % 94 % 1019,1 hPa 0,0 l/m 0,0 km/h (0 Bft) N 0 0,000 mm 8,4 C 8,8 C 0,0 km/h (0 Bft) 91,30 %
18.10.2019 10:27 24,9 C 8,7 C 12,2 C 46 % 97 % 94 % 1019,0 hPa 0,0 l/m 1,6 km/h (1 Bft) SO 135 0,000 mm 8,3 C 8,7 C 3,2 km/h (1 Bft) 95,65 %
18.10.2019 10:26 24,9 C 8,7 C 12,2 C 46 % 97 % 94 % 1019,0 hPa 0,0 l/m 1,6 km/h (1 Bft) SO 135 0,000 mm 8,3 C 8,7 C 3,2 km/h (1 Bft) 91,30 %
18.10.2019 10:25 24,9 C 8,7 C 12,2 C 46 % 97 % 94 % 1019,0 hPa 0,0 l/m 1,6 km/h (1 Bft) SO 135 0,000 mm 8,3 C 8,7 C 1,6 km/h (1 Bft) 91,30 %
18.10.2019 10:24 24,9 C 8,7 C 11,7 C 46 % 97 % 94 % 1018,9 hPa 0,0 l/m 1,6 km/h (1 Bft) SO 135 0,000 mm 8,3 C 8,7 C 3,2 km/h (1 Bft) 95,65 %
18.10.2019 10:23 24,9 C 8,6 C 11,7 C 46 % 97 % 94 % 1018,9 hPa 0,0 l/m 3,2 km/h (1 Bft) O-SO 112 0,000 mm 8,2 C 8,6 C 4,8 km/h (1 Bft) 91,30 %
18.10.2019 10:22 24,9 C 8,7 C 11,7 C 46 % 97 % 94 % 1019,1 hPa 0,0 l/m 3,2 km/h (1 Bft) O-SO 112 0,000 mm 8,3 C 8,7 C 4,8 km/h (1 Bft) 95,65 %
18.10.2019 10:21 24,9 C 8,6 C 11,7 C 46 % 97 % 94 % 1019,0 hPa 0,0 l/m 1,6 km/h (1 Bft) O-SO 112 0,000 mm 8,2 C 8,6 C 3,2 km/h (1 Bft) 95,65 %
18.10.2019 10:20 24,9 C 8,6 C 11,7 C 46 % 97 % 94 % 1019,1 hPa 0,0 l/m 0,0 km/h (0 Bft) O-SO 112 0,000 mm 8,2 C 8,6 C 1,6 km/h (1 Bft) 95,65 %
18.10.2019 10:19 24,9 C 8,6 C 11,7 C 46 % 97 % 94 % 1019,0 hPa 0,0 l/m 0,0 km/h (0 Bft) N 0 0,000 mm 8,2 C 8,6 C 0,0 km/h (0 Bft) 95,65 %
18.10.2019 10:18 24,9 C 8,6 C 11,7 C 46 % 97 % 94 % 1019,1 hPa 0,0 l/m 1,6 km/h (1 Bft) O-SO 112 0,000 mm 8,2 C 8,6 C 1,6 km/h (1 Bft) 95,65 %
18.10.2019 10:17 24,9 C 8,5 C 11,7 C 46 % 97 % 94 % 1019,0 hPa 0,0 l/m 0,0 km/h (0 Bft) O-SO 112 0,000 mm 8,1 C 8,5 C 1,6 km/h (1 Bft) 91,30 %
18.10.2019 10:16 24,9 C 8,6 C 11,7 C 46 % 97 % 94 % 1019,0 hPa 0,0 l/m 0,0 km/h (0 Bft) O-SO 112 0,000 mm 8,2 C 8,6 C 1,6 km/h (1 Bft) 95,65 %
18.10.2019 10:15 25,0 C 8,6 C 11,7 C 46 % 97 % 94 % 1019,0 hPa 0,0 l/m 0,0 km/h (0 Bft) O-SO 112 0,000 mm 8,2 C 8,6 C 1,6 km/h (1 Bft) 91,30 %
18.10.2019 10:14 24,9 C 8,5 C 11,7 C 46 % 97 % 94 % 1019,1 hPa 0,0 l/m 1,6 km/h (1 Bft) O-SO 112 0,000 mm 8,1 C 8,5 C 3,2 km/h (1 Bft) 100,00 %
18.10.2019 10:13 24,9 C 8,5 C 11,7 C 46 % 97 % 94 % 1019,0 hPa 0,0 l/m 1,6 km/h (1 Bft) O-SO 112 0,000 mm 8,1 C 8,5 C 1,6 km/h (1 Bft) 91,30 %
18.10.2019 10:12 24,9 C 8,5 C 11,7 C 46 % 97 % 94 % 1019,0 hPa 0,0 l/m 1,6 km/h (1 Bft) O-SO 112 0,000 mm 8,1 C 8,5 C 1,6 km/h (1 Bft) 100,00 %
18.10.2019 10:11 25,0 C 8,5 C 11,7 C 46 % 97 % 94 % 1019,0 hPa 0,0 l/m 0,0 km/h (0 Bft) O-SO 112 0,000 mm 8,1 C 8,5 C 1,6 km/h (1 Bft) 91,30 %
18.10.2019 10:10 25,0 C 8,6 C 11,7 C 47 % 97 % 94 % 1019,0 hPa 0,0 l/m 0,0 km/h (0 Bft) O-SO 112 0,000 mm 8,2 C 8,6 C 1,6 km/h (1 Bft) 86,96 %
18.10.2019 10:09 24,9 C 8,6 C 11,7 C 46 % 97 % 94 % 1019,0 hPa 0,0 l/m 1,6 km/h (1 Bft) O-SO 112 0,000 mm 8,2 C 8,6 C 3,2 km/h (1 Bft) 91,30 %
18.10.2019 10:08 24,9 C 8,6 C 11,7 C 47 % 97 % 94 % 1018,9 hPa 0,0 l/m 1,6 km/h (1 Bft) NO 45 0,000 mm 8,2 C 8,6 C 3,2 km/h (1 Bft) 91,30 %
18.10.2019 10:07 24,9 C 8,6 C 11,7 C 47 % 97 % 94 % 1019,0 hPa 0,0 l/m 1,6 km/h (1 Bft) NO 45 0,000 mm 8,2 C 8,6 C 1,6 km/h (1 Bft) 100,00 %
18.10.2019 10:06 25,0 C 8,6 C 11,1 C 47 % 97 % 94 % 1018,9 hPa 0,0 l/m 1,6 km/h (1 Bft) NO 45 0,000 mm 8,2 C 8,6 C 1,6 km/h (1 Bft) 91,30 %
18.10.2019 10:05 25,0 C 8,6 C 11,1 C 47 % 97 % 94 % 1019,0 hPa 0,0 l/m 1,6 km/h (1 Bft) NO 45 0,000 mm 8,2 C 8,6 C 3,2 km/h (1 Bft) 100,00 %
18.10.2019 10:04 25,0 C 8,6 C 11,1 C 47 % 97 % 94 % 1018,9 hPa 0,0 l/m 1,6 km/h (1 Bft) NO 45 0,000 mm 8,2 C 8,6 C 3,2 km/h (1 Bft) 91,30 %
18.10.2019 10:03 25,0 C 8,6 C 11,1 C 47 % 97 % 94 % 1018,9 hPa 0,0 l/m 0,0 km/h (0 Bft) N-NO 22 0,000 mm 8,2 C 8,6 C 1,6 km/h (1 Bft) 100,00 %
18.10.2019 10:02 25,0 C 8,6 C 11,1 C 48 % 97 % 94 % 1019,1 hPa 0,0 l/m 1,6 km/h (1 Bft) N-NO 22 0,000 mm 8,2 C 8,6 C 3,2 km/h (1 Bft) 86,96 %
18.10.2019 10:01 25,0 C 8,5 C 11,1 C 48 % 97 % 94 % 1019,1 hPa 0,0 l/m 1,6 km/h (1 Bft) N-NO 22 0,000 mm 8,1 C 8,5 C 3,2 km/h (1 Bft) 95,65 %
18.10.2019 10:00 25,0 C 8,5 C 11,1 C 48 % 97 % 94 % 1019,0 hPa 0,0 l/m 1,6 km/h (1 Bft) N-NO 22 0,000 mm 8,1 C 8,5 C 1,6 km/h (1 Bft) 91,30 %
18.10.2019 09:59 25,0 C 8,5 C 11,1 C 48 % 97 % 94 % 1019,0 hPa 0,0 l/m 3,2 km/h (1 Bft) N-NO 22 0,000 mm 8,1 C 8,5 C 3,2 km/h (1 Bft) 95,65 %
18.10.2019 09:58 25,0 C 8,4 C 11,1 C 48 % 97 % 94 % 1019,0 hPa 0,0 l/m 1,6 km/h (1 Bft) W-NW 292 0,000 mm 8,0 C 8,4 C 1,6 km/h (1 Bft) 95,65 %
18.10.2019 09:57 25,0 C 8,4 C 11,1 C 48 % 97 % 94 % 1018,9 hPa 0,0 l/m 0,0 km/h (0 Bft) W-NW 292 0,000 mm 8,0 C 8,4 C 1,6 km/h (1 Bft) 95,65 %
18.10.2019 09:56 25,0 C 8,4 C 11,1 C 48 % 97 % 94 % 1019,0 hPa 0,0 l/m 0,0 km/h (0 Bft) W-NW 292 0,000 mm 8,0 C 8,4 C 1,6 km/h (1 Bft) 95,65 %
18.10.2019 09:55 24,9 C 8,4 C 11,1 C 48 % 97 % 94 % 1018,9 hPa 0,0 l/m 0,0 km/h (0 Bft) N 0 0,000 mm 8,0 C 8,4 C 0,0 km/h (0 Bft) 95,65 %
18.10.2019 09:54 24,9 C 8,4 C 11,1 C 48 % 97 % 94 % 1019,0 hPa 0,0 l/m 0,0 km/h (0 Bft) W-NW 292 0,000 mm 8,0 C 8,4 C 1,6 km/h (1 Bft) 91,30 %
18.10.2019 09:53 24,9 C 8,4 C 11,1 C 48 % 97 % 94 % 1018,9 hPa 0,0 l/m 1,6 km/h (1 Bft) W-NW 292 0,000 mm 8,0 C 8,4 C 3,2 km/h (1 Bft) 95,65 %
18.10.2019 09:52 24,9 C 8,3 C 11,1 C 48 % 97 % 94 % 1019,0 hPa 0,0 l/m 1,6 km/h (1 Bft) W-NW 292 0,000 mm 7,9 C 8,3 C 1,6 km/h (1 Bft) 100,00 %
18.10.2019 09:51 24,9 C 8,3 C 11,1 C 48 % 97 % 94 % 1019,0 hPa 0,0 l/m 1,6 km/h (1 Bft) W-NW 292 0,000 mm 7,9 C 8,3 C 1,6 km/h (1 Bft) 95,65 %
18.10.2019 09:50 24,9 C 8,3 C 11,1 C 48 % 97 % 94 % 1018,9 hPa 0,0 l/m 0,0 km/h (0 Bft) W 270 0,000 mm 7,9 C 8,3 C 1,6 km/h (1 Bft) 100,00 %
18.10.2019 09:49 24,9 C 8,3 C 11,1 C 48 % 97 % 94 % 1019,0 hPa 0,0 l/m 0,0 km/h (0 Bft) W 270 0,000 mm 7,9 C 8,3 C 1,6 km/h (1 Bft) 95,65 %
18.10.2019 09:48 24,9 C 8,3 C 11,1 C 48 % 97 % 94 % 1018,9 hPa 0,0 l/m 0,0 km/h (0 Bft) N-NW 337 0,000 mm 7,9 C 8,3 C 1,6 km/h (1 Bft) 95,65 %
18.10.2019 09:47 24,9 C 8,2 C 10,6 C 48 % 97 % 94 % 1018,9 hPa 0,0 l/m 0,0 km/h (0 Bft) N-NW 337 0,000 mm 7,8 C 8,2 C 1,6 km/h (1 Bft) 91,30 %
18.10.2019 09:46 24,9 C 8,2 C 10,6 C 48 % 97 % 94 % 1019,0 hPa 0,0 l/m 1,6 km/h (1 Bft) N-NW 337 0,000 mm 7,8 C 8,2 C 3,2 km/h (1 Bft) 100,00 %
18.10.2019 09:45 24,8 C 8,2 C 10,6 C 48 % 97 % 94 % 1018,9 hPa 0,0 l/m 1,6 km/h (1 Bft) N-NW 337 0,000 mm 7,8 C 8,2 C 3,2 km/h (1 Bft) 91,30 %
18.10.2019 09:44 24,9 C 8,2 C 10,6 C 48 % 97 % 94 % 1019,0 hPa 0,0 l/m 1,6 km/h (1 Bft) N-NW 337 0,000 mm 7,8 C 8,2 C 3,2 km/h (1 Bft) 100,00 %
18.10.2019 09:43 24,8 C 8,2 C 10,6 C 48 % 97 % 94 % 1018,9 hPa 0,0 l/m 0,0 km/h (0 Bft) NW 315 0,000 mm 7,8 C 8,2 C 1,6 km/h (1 Bft) 95,65 %
18.10.2019 09:42 24,8 C 8,1 C 10,6 C 48 % 97 % 94 % 1018,9 hPa 0,0 l/m 1,6 km/h (1 Bft) NW 315 0,000 mm 7,7 C 8,1 C 1,6 km/h (1 Bft) 100,00 %
18.10.2019 09:41 24,8 C 8,1 C 10,6 C 48 % 97 % 94 % 1019,0 hPa 0,0 l/m 1,6 km/h (1 Bft) NW 315 0,000 mm 7,7 C 8,1 C 3,2 km/h (1 Bft) 95,65 %
18.10.2019 09:40 24,8 C 8,1 C 10,6 C 48 % 97 % 94 % 1018,9 hPa 0,0 l/m 1,6 km/h (1 Bft) NW 315 0,000 mm 7,7 C 8,1 C 3,2 km/h (1 Bft) 95,65 %
18.10.2019 09:39 24,8 C 8,1 C 10,6 C 48 % 97 % 94 % 1018,9 hPa 0,0 l/m 1,6 km/h (1 Bft) NW 315 0,000 mm 7,7 C 8,1 C 1,6 km/h (1 Bft) 95,65 %
18.10.2019 09:38 24,8 C 8,1 C 10,6 C 49 % 97 % 94 % 1019,0 hPa 0,0 l/m 1,6 km/h (1 Bft) NW 315 0,000 mm 7,7 C 8,1 C 3,2 km/h (1 Bft) 95,65 %
18.10.2019 09:37 24,8 C 8,1 C 10,6 C 49 % 97 % 94 % 1019,0 hPa 0,0 l/m 0,0 km/h (0 Bft) NW 315 0,000 mm 7,7 C 8,1 C 1,6 km/h (1 Bft) 100,00 %
18.10.2019 09:36 24,7 C 8,0 C 10,6 C 49 % 97 % 94 % 1018,9 hPa 0,0 l/m 0,0 km/h (0 Bft) NW 315 0,000 mm 7,6 C 8,0 C 1,6 km/h (1 Bft) 95,65 %
18.10.2019 09:35 24,7 C 8,0 C 10,6 C 49 % 97 % 94 % 1018,9 hPa 0,0 l/m 0,0 km/h (0 Bft) NW 315 0,000 mm 7,6 C 8,0 C 1,6 km/h (1 Bft) 100,00 %
18.10.2019 09:34 24,7 C 8,0 C 10,6 C 49 % 97 % 94 % 1018,9 hPa 0,0 l/m 1,6 km/h (1 Bft) NW 315 0,000 mm 7,6 C 8,0 C 3,2 km/h (1 Bft) 86,96 %
18.10.2019 09:33 24,7 C 7,9 C 10,6 C 49 % 97 % 94 % 1019,0 hPa 0,0 l/m 1,6 km/h (1 Bft) NW 315 0,000 mm 7,5 C 7,9 C 3,2 km/h (1 Bft) 100,00 %
18.10.2019 09:32 24,7 C 7,9 C 10,6 C 49 % 97 % 93 % 1018,9 hPa 0,0 l/m 1,6 km/h (1 Bft) NW 315 0,000 mm 7,5 C 7,9 C 3,2 km/h (1 Bft) 91,30 %
18.10.2019 09:31 24,7 C 7,9 C 10,6 C 49 % 97 % 93 % 1019,0 hPa 0,0 l/m 0,0 km/h (0 Bft) N 0 0,000 mm 7,5 C 7,9 C 0,0 km/h (0 Bft) 95,65 %
18.10.2019 09:30 24,7 C 7,9 C 10,6 C 49 % 97 % 93 % 1018,9 hPa 0,0 l/m 0,0 km/h (0 Bft) N 0 0,000 mm 7,5 C 7,9 C 0,0 km/h (0 Bft) 100,00 %
18.10.2019 09:29 24,7 C 7,9 C 10,6 C 49 % 97 % 94 % 1019,0 hPa 0,0 l/m 0,0 km/h (0 Bft) NW 315 0,000 mm 7,5 C 7,9 C 1,6 km/h (1 Bft) 100,00 %
18.10.2019 09:28 24,6 C 7,9 C 10,6 C 49 % 97 % 94 % 1019,0 hPa 0,0 l/m 1,6 km/h (1 Bft) NW 315 0,000 mm 7,5 C 7,9 C 1,6 km/h (1 Bft) 95,65 %
18.10.2019 09:27 24,6 C 7,9 C 10,6 C 49 % 97 % 94 % 1018,9 hPa 0,0 l/m 1,6 km/h (1 Bft) NW 315 0,000 mm 7,5 C 7,9 C 1,6 km/h (1 Bft) 100,00 %
18.10.2019 09:26 24,6 C 7,9 C 10,6 C 49 % 97 % 94 % 1018,9 hPa 0,0 l/m 1,6 km/h (1 Bft) NW 315 0,000 mm 7,5 C 7,9 C 1,6 km/h (1 Bft) 91,30 %
18.10.2019 09:25 24,6 C 7,9 C 10,6 C 49 % 97 % 94 % 1019,0 hPa 0,0 l/m 1,6 km/h (1 Bft) NW 315 0,000 mm 7,5 C 7,9 C 3,2 km/h (1 Bft) 100,00 %
18.10.2019 09:24 24,6 C 7,9 C 10,6 C 49 % 97 % 94 % 1019,0 hPa 0,0 l/m 0,0 km/h (0 Bft) NW 315 0,000 mm 7,5 C 7,9 C 1,6 km/h (1 Bft) 95,65 %
18.10.2019 09:23 24,6 C 7,9 C 10,6 C 49 % 97 % 94 % 1019,0 hPa 0,0 l/m 1,6 km/h (1 Bft) NW 315 0,000 mm 7,5 C 7,9 C 3,2 km/h (1 Bft) 100,00 %
18.10.2019 09:22 24,6 C 7,9 C 10,0 C 49 % 97 % 94 % 1019,0 hPa 0,0 l/m 1,6 km/h (1 Bft) NW 315 0,000 mm 7,5 C 7,9 C 3,2 km/h (1 Bft) 95,65 %
18.10.2019 09:21 24,6 C 7,8 C 10,0 C 49 % 97 % 94 % 1019,0 hPa 0,0 l/m 1,6 km/h (1 Bft) NW 315 0,000 mm 7,4 C 7,8 C 3,2 km/h (1 Bft) 91,30 %
18.10.2019 09:20 24,6 C 7,8 C 10,0 C 49 % 97 % 94 % 1019,0 hPa 0,0 l/m 1,6 km/h (1 Bft) NW 315 0,000 mm 7,4 C 7,8 C 3,2 km/h (1 Bft) 100,00 %
18.10.2019 09:19 24,6 C 7,8 C 10,0 C 49 % 97 % 94 % 1018,9 hPa 0,0 l/m 1,6 km/h (1 Bft) NW 315 0,000 mm 7,4 C 7,8 C 3,2 km/h (1 Bft) 91,30 %
18.10.2019 09:18 24,5 C 7,8 C 10,0 C 49 % 97 % 94 % 1019,0 hPa 0,0 l/m 1,6 km/h (1 Bft) NW 315 0,000 mm 7,4 C 7,8 C 3,2 km/h (1 Bft) 100,00 %
18.10.2019 09:17 24,5 C 7,8 C 10,0 C 49 % 97 % 94 % 1018,9 hPa 0,0 l/m 1,6 km/h (1 Bft) NW 315 0,000 mm 7,4 C 7,8 C 3,2 km/h (1 Bft) 91,30 %
18.10.2019 09:16 24,5 C 7,8 C 10,0 C 49 % 97 % 94 % 1019,0 hPa 0,0 l/m 1,6 km/h (1 Bft) NW 315 0,000 mm 7,4 C 7,8 C 1,6 km/h (1 Bft) 95,65 %
18.10.2019 09:15 24,5 C 7,8 C 10,0 C 48 % 97 % 94 % 1018,9 hPa 0,0 l/m 1,6 km/h (1 Bft) NW 315 0,000 mm 7,4 C 7,8 C 1,6 km/h (1 Bft) 95,65 %
18.10.2019 09:14 24,5 C 7,8 C 10,0 C 48 % 97 % 94 % 1018,9 hPa 0,0 l/m 1,6 km/h (1 Bft) NW 315 0,000 mm 7,4 C 7,8 C 1,6 km/h (1 Bft) 100,00 %
18.10.2019 09:13 24,4 C 7,8 C 10,0 C 48 % 97 % 94 % 1018,9 hPa 0,0 l/m 1,6 km/h (1 Bft) NW 315 0,000 mm 7,4 C 7,8 C 3,2 km/h (1 Bft) 95,65 %
18.10.2019 09:12 24,5 C 7,8 C 10,0 C 48 % 97 % 93 % 1018,9 hPa 0,0 l/m 1,6 km/h (1 Bft) NW 315 0,000 mm 7,4 C 7,8 C 3,2 km/h (1 Bft) 95,65 %
18.10.2019 09:11 24,4 C 7,8 C 10,0 C 48 % 97 % 93 % 1019,0 hPa 0,0 l/m 1,6 km/h (1 Bft) NW 315 0,000 mm 7,4 C 7,8 C 3,2 km/h (1 Bft) 95,65 %
18.10.2019 09:10 24,4 C 7,7 C 10,0 C 48 % 97 % 93 % 1019,0 hPa 0,0 l/m 0,0 km/h (0 Bft) NW 315 0,000 mm 7,3 C 7,7 C 1,6 km/h (1 Bft) 100,00 %
18.10.2019 09:09 24,4 C 7,7 C 10,0 C 48 % 97 % 93 % 1019,0 hPa 0,0 l/m 1,6 km/h (1 Bft) NW 315 0,000 mm 7,3 C 7,7 C 1,6 km/h (1 Bft) 95,65 %
18.10.2019 09:08 24,4 C 7,7 C 10,0 C 48 % 97 % 93 % 1019,0 hPa 0,0 l/m 3,2 km/h (1 Bft) NW 315 0,000 mm 7,3 C 7,7 C 3,2 km/h (1 Bft) 100,00 %
18.10.2019 09:07 24,4 C 7,7 C 10,0 C 48 % 97 % 93 % 1019,0 hPa 0,0 l/m 3,2 km/h (1 Bft) NW 315 0,000 mm 7,3 C 7,7 C 3,2 km/h (1 Bft) 95,65 %
18.10.2019 09:06 24,4 C 7,7 C 10,0 C 48 % 97 % 93 % 1018,9 hPa 0,0 l/m 1,6 km/h (1 Bft) NW 315 0,000 mm 7,3 C 7,7 C 3,2 km/h (1 Bft) 91,30 %
18.10.2019 09:05 24,4 C 7,6 C 10,0 C 48 % 97 % 93 % 1019,0 hPa 0,0 l/m 1,6 km/h (1 Bft) NW 315 0,000 mm 7,2 C 7,6 C 3,2 km/h (1 Bft) 95,65 %
18.10.2019 09:04 24,4 C 7,6 C 10,0 C 48 % 97 % 93 % 1018,9 hPa 0,0 l/m 1,6 km/h (1 Bft) NW 315 0,000 mm 7,2 C 7,6 C 3,2 km/h (1 Bft) 95,65 %
18.10.2019 09:03 24,4 C 7,6 C 10,0 C 48 % 97 % 93 % 1018,9 hPa 0,0 l/m 1,6 km/h (1 Bft) NW 315 0,000 mm 7,2 C 7,6 C 3,2 km/h (1 Bft) 100,00 %
18.10.2019 09:02 24,3 C 7,6 C 10,0 C 48 % 97 % 93 % 1018,9 hPa 0,0 l/m 0,0 km/h (0 Bft) NW 315 0,000 mm 7,2 C 7,6 C 1,6 km/h (1 Bft) 91,30 %
18.10.2019 09:01 24,3 C 7,6 C 10,0 C 48 % 97 % 93 % 1018,9 hPa 0,0 l/m 1,6 km/h (1 Bft) NW 315 0,000 mm 7,2 C 7,6 C 3,2 km/h (1 Bft) 100,00 %
18.10.2019 09:00 24,3 C 7,5 C 10,0 C 48 % 97 % 93 % 1018,9 hPa 0,0 l/m 1,6 km/h (1 Bft) NW 315 0,000 mm 7,1 C 7,5 C 1,6 km/h (1 Bft) 95,65 %
18.10.2019 08:59 24,3 C 7,6 C 10,0 C 48 % 97 % 93 % 1018,9 hPa 0,0 l/m 3,2 km/h (1 Bft) NW 315 0,000 mm 7,2 C 7,6 C 4,8 km/h (1 Bft) 100,00 %
18.10.2019 08:58 24,3 C 7,5 C 9,4 C 48 % 97 % 93 % 1019,0 hPa 0,0 l/m 3,2 km/h (1 Bft) NW 315 0,000 mm 7,1 C 7,5 C 4,8 km/h (1 Bft) 91,30 %
18.10.2019 08:57 24,3 C 7,4 C 9,4 C 48 % 97 % 93 % 1019,0 hPa 0,0 l/m 3,2 km/h (1 Bft) NW 315 0,000 mm 7,0 C 7,4 C 4,8 km/h (1 Bft) 100,00 %
18.10.2019 08:56 24,3 C 7,4 C 9,4 C 48 % 97 % 93 % 1018,9 hPa 0,0 l/m 1,6 km/h (1 Bft) NW 315 0,000 mm 7,0 C 7,4 C 3,2 km/h (1 Bft) 95,65 %
18.10.2019 08:55 24,3 C 7,4 C 9,4 C 48 % 97 % 93 % 1019,0 hPa 0,0 l/m 1,6 km/h (1 Bft) N-NW 337 0,000 mm 7,0 C 7,4 C 3,2 km/h (1 Bft) 100,00 %
18.10.2019 08:54 24,3 C 7,4 C 9,4 C 48 % 97 % 93 % 1018,9 hPa 0,0 l/m 1,6 km/h (1 Bft) N 360 0,000 mm 7,0 C 7,4 C 1,6 km/h (1 Bft) 95,65 %
18.10.2019 08:53 24,2 C 7,4 C 9,4 C 48 % 97 % 93 % 1018,9 hPa 0,0 l/m 1,6 km/h (1 Bft) N 360 0,000 mm 7,0 C 7,4 C 3,2 km/h (1 Bft) 100,00 %
18.10.2019 08:52 24,2 C 7,4 C 9,4 C 48 % 97 % 93 % 1018,8 hPa 0,0 l/m 3,2 km/h (1 Bft) N 360 0,000 mm 7,0 C 7,4 C 3,2 km/h (1 Bft) 91,30 %
18.10.2019 08:51 24,2 C 7,4 C 9,4 C 48 % 97 % 93 % 1018,8 hPa 0,0 l/m 3,2 km/h (1 Bft) N 360 0,000 mm 7,0 C 7,4 C 4,8 km/h (1 Bft) 95,65 %
18.10.2019 08:50 24,2 C 7,4 C 9,4 C 48 % 97 % 93 % 1018,9 hPa 0,0 l/m 3,2 km/h (1 Bft) N 360 0,000 mm 7,0 C 7,4 C 4,8 km/h (1 Bft) 95,65 %
18.10.2019 08:49 24,2 C 7,3 C 9,4 C 48 % 97 % 93 % 1018,8 hPa 0,0 l/m 3,2 km/h (1 Bft) N 360 0,000 mm 6,9 C 7,3 C 4,8 km/h (1 Bft) 95,65 %
18.10.2019 08:48 24,2 C 7,3 C 9,4 C 48 % 97 % 93 % 1018,8 hPa 0,0 l/m 3,2 km/h (1 Bft) N 360 0,000 mm 6,9 C 7,3 C 4,8 km/h (1 Bft) 100,00 %
18.10.2019 08:47 24,2 C 7,3 C 9,4 C 48 % 97 % 93 % 1018,8 hPa 0,0 l/m 3,2 km/h (1 Bft) N 360 0,000 mm 6,9 C 7,3 C 4,8 km/h (1 Bft) 95,65 %
18.10.2019 08:46 24,2 C 7,3 C 9,4 C 48 % 97 % 93 % 1018,8 hPa 0,0 l/m 3,2 km/h (1 Bft) N-NO 22 0,000 mm 6,9 C 7,3 C 4,8 km/h (1 Bft) 100,00 %
18.10.2019 08:45 24,1 C 7,3 C 9,4 C 48 % 97 % 93 % 1018,8 hPa 0,0 l/m 3,2 km/h (1 Bft) N-NO 22 0,000 mm 6,9 C 7,3 C 6,4 km/h (2 Bft) 100,00 %
18.10.2019 08:44 24,2 C 7,2 C 9,4 C 48 % 97 % 93 % 1018,8 hPa 0,0 l/m 1,6 km/h (1 Bft) N 360 0,000 mm 6,8 C 7,2 C 3,2 km/h (1 Bft) 95,65 %
18.10.2019 08:43 24,1 C 7,2 C 9,4 C 48 % 97 % 93 % 1018,7 hPa 0,0 l/m 1,6 km/h (1 Bft) N 360 0,000 mm 6,8 C 7,2 C 3,2 km/h (1 Bft) 95,65 %
18.10.2019 08:42 24,1 C 7,2 C 9,4 C 48 % 97 % 93 % 1018,8 hPa 0,0 l/m 1,6 km/h (1 Bft) N 360 0,000 mm 6,8 C 7,2 C 1,6 km/h (1 Bft) 100,00 %
18.10.2019 08:41 24,1 C 7,2 C 9,4 C 48 % 97 % 93 % 1018,8 hPa 0,0 l/m 3,2 km/h (1 Bft) N 360 0,000 mm 6,8 C 7,2 C 4,8 km/h (1 Bft) 91,30 %
18.10.2019 08:40 24,1 C 7,2 C 9,4 C 47 % 97 % 93 % 1018,8 hPa 0,0 l/m 1,6 km/h (1 Bft) N-NW 337 0,000 mm 6,8 C 7,2 C 4,8 km/h (1 Bft) 100,00 %
18.10.2019 08:39 24,1 C 7,2 C 9,4 C 47 % 97 % 93 % 1018,8 hPa 0,0 l/m 1,6 km/h (1 Bft) N-NW 337 0,000 mm 6,8 C 7,2 C 3,2 km/h (1 Bft) 95,65 %
18.10.2019 08:38 24,1 C 7,2 C 9,4 C 47 % 97 % 93 % 1018,8 hPa 0,0 l/m 1,6 km/h (1 Bft) N-NW 337 0,000 mm 6,8 C 7,2 C 3,2 km/h (1 Bft) 95,65 %
18.10.2019 08:37 24,1 C 7,2 C 9,4 C 47 % 97 % 93 % 1018,6 hPa 0,0 l/m 1,6 km/h (1 Bft) N-NW 337 0,000 mm 6,8 C 7,2 C 3,2 km/h (1 Bft) 95,65 %
18.10.2019 08:36 24,1 C 7,2 C 9,4 C 47 % 97 % 93 % 1018,7 hPa 0,0 l/m 1,6 km/h (1 Bft) N-NW 337 0,000 mm 6,8 C 7,2 C 3,2 km/h (1 Bft) 100,00 %
18.10.2019 08:35 24,1 C 7,2 C 9,4 C 47 % 97 % 93 % 1018,7 hPa 0,0 l/m 1,6 km/h (1 Bft) N-NW 337 0,000 mm 6,8 C 7,2 C 3,2 km/h (1 Bft) 95,65 %
18.10.2019 08:34 24,0 C 7,2 C 9,4 C 47 % 97 % 93 % 1018,6 hPa 0,0 l/m 1,6 km/h (1 Bft) N-NW 337 0,000 mm 6,8 C 7,2 C 3,2 km/h (1 Bft) 91,30 %
18.10.2019 08:33 24,0 C 7,2 C 9,4 C 46 % 97 % 93 % 1018,5 hPa 0,0 l/m 1,6 km/h (1 Bft) N-NW 337 0,000 mm 6,8 C 7,2 C 3,2 km/h (1 Bft) 95,65 %
18.10.2019 08:32 24,0 C 7,2 C 9,4 C 46 % 97 % 92 % 1018,5 hPa 0,0 l/m 3,2 km/h (1 Bft) N-NW 337 0,000 mm 6,8 C 7,2 C 4,8 km/h (1 Bft) 100,00 %
18.10.2019 08:31 24,0 C 7,2 C 9,4 C 46 % 97 % 92 % 1018,6 hPa 0,0 l/m 3,2 km/h (1 Bft) N 360 0,000 mm 6,8 C 7,2 C 4,8 km/h (1 Bft) 95,65 %
18.10.2019 08:30 24,0 C 7,1 C 8,9 C 46 % 97 % 92 % 1018,5 hPa 0,0 l/m 3,2 km/h (1 Bft) N 360 0,000 mm 6,7 C 7,1 C 4,8 km/h (1 Bft) 95,65 %
18.10.2019 08:29 23,9 C 7,1 C 8,9 C 45 % 97 % 92 % 1018,5 hPa 0,0 l/m 3,2 km/h (1 Bft) N 360 0,000 mm 6,7 C 7,1 C 4,8 km/h (1 Bft) 95,65 %
18.10.2019 08:28 24,0 C 7,1 C 8,9 C 45 % 97 % 92 % 1018,5 hPa 0,0 l/m 3,2 km/h (1 Bft) N 360 0,000 mm 6,7 C 7,1 C 4,8 km/h (1 Bft) 100,00 %
18.10.2019 08:27 24,0 C 7,1 C 8,9 C 45 % 97 % 92 % 1018,5 hPa 0,0 l/m 4,8 km/h (1 Bft) N 360 0,000 mm 6,7 C 6,5 C 4,8 km/h (1 Bft) 91,30 %
18.10.2019 08:26 23,9 C 7,1 C 8,9 C 45 % 97 % 92 % 1018,6 hPa 0,0 l/m 1,6 km/h (1 Bft) N-NW 337 0,000 mm 6,7 C 7,1 C 3,2 km/h (1 Bft) 100,00 %
18.10.2019 08:25 23,9 C 7,1 C 8,9 C 45 % 97 % 92 % 1018,5 hPa 0,0 l/m 3,2 km/h (1 Bft) N-NW 337 0,000 mm 6,7 C 7,1 C 3,2 km/h (1 Bft) 91,30 %
18.10.2019 08:24 23,9 C 7,0 C 8,9 C 45 % 97 % 92 % 1018,7 hPa 0,0 l/m 1,6 km/h (1 Bft) N-NW 337 0,000 mm 6,6 C 7,0 C 3,2 km/h (1 Bft) 95,65 %
18.10.2019 08:23 23,9 C 6,9 C 8,9 C 45 % 97 % 92 % 1018,4 hPa 0,0 l/m 1,6 km/h (1 Bft) NW 315 0,000 mm 6,5 C 6,9 C 3,2 km/h (1 Bft) 95,65 %
18.10.2019 08:22 23,9 C 6,9 C 8,9 C 45 % 97 % 92 % 1018,5 hPa 0,0 l/m 1,6 km/h (1 Bft) NW 315 0,000 mm 6,5 C 6,9 C 1,6 km/h (1 Bft) 91,30 %
18.10.2019 08:21 23,9 C 6,9 C 8,9 C 45 % 97 % 92 % 1018,5 hPa 0,0 l/m 0,0 km/h (0 Bft) NW 315 0,000 mm 6,5 C 6,9 C 1,6 km/h (1 Bft) 100,00 %
18.10.2019 08:20 23,9 C 6,9 C 8,9 C 45 % 97 % 92 % 1018,5 hPa 0,0 l/m 0,0 km/h (0 Bft) NW 315 0,000 mm 6,5 C 6,9 C 1,6 km/h (1 Bft) 95,65 %
18.10.2019 08:19 23,9 C 6,8 C 8,9 C 45 % 97 % 92 % 1018,5 hPa 0,0 l/m 1,6 km/h (1 Bft) NW 315 0,000 mm 6,4 C 6,8 C 3,2 km/h (1 Bft) 95,65 %
18.10.2019 08:18 23,9 C 6,8 C 8,9 C 45 % 97 % 92 % 1018,5 hPa 0,0 l/m 1,6 km/h (1 Bft) N-NW 337 0,000 mm 6,4 C 6,8 C 3,2 km/h (1 Bft) 95,65 %
18.10.2019 08:17 23,9 C 6,8 C 8,9 C 45 % 97 % 92 % 1018,4 hPa 0,0 l/m 0,0 km/h (0 Bft) N-NW 337 0,000 mm 6,4 C 6,8 C 1,6 km/h (1 Bft) 100,00 %
18.10.2019 08:16 23,9 C 6,8 C 8,9 C 45 % 97 % 92 % 1018,5 hPa 0,0 l/m 0,0 km/h (0 Bft) N-NW 337 0,000 mm 6,4 C 6,8 C 1,6 km/h (1 Bft) 91,30 %
18.10.2019 08:15 23,8 C 6,7 C 8,9 C 45 % 97 % 92 % 1018,4 hPa 0,0 l/m 1,6 km/h (1 Bft) N-NW 337 0,000 mm 6,3 C 6,7 C 1,6 km/h (1 Bft) 95,65 %
18.10.2019 08:14 23,8 C 6,7 C 8,9 C 45 % 97 % 92 % 1018,4 hPa 0,0 l/m 1,6 km/h (1 Bft) N-NW 337 0,000 mm 6,3 C 6,7 C 3,2 km/h (1 Bft) 100,00 %
18.10.2019 08:13 23,8 C 6,7 C 8,9 C 45 % 97 % 92 % 1018,4 hPa 0,0 l/m 1,6 km/h (1 Bft) N-NW 337 0,000 mm 6,3 C 6,7 C 3,2 km/h (1 Bft) 95,65 %
18.10.2019 08:12 23,8 C 6,6 C 8,9 C 45 % 97 % 92 % 1018,4 hPa 0,0 l/m 0,0 km/h (0 Bft) N-NW 337 0,000 mm 6,2 C 6,6 C 1,6 km/h (1 Bft) 95,65 %
18.10.2019 08:11 23,8 C 6,6 C 8,9 C 45 % 97 % 92 % 1018,4 hPa 0,0 l/m 1,6 km/h (1 Bft) N-NW 337 0,000 mm 6,2 C 6,6 C 1,6 km/h (1 Bft) 95,65 %
18.10.2019 08:10 23,8 C 6,6 C 8,9 C 45 % 97 % 92 % 1018,3 hPa 0,0 l/m 1,6 km/h (1 Bft) N-NW 337 0,000 mm 6,2 C 6,6 C 1,6 km/h (1 Bft) 100,00 %
18.10.2019 08:09 23,8 C 6,6 C 8,9 C 45 % 97 % 91 % 1018,3 hPa 0,0 l/m 0,0 km/h (0 Bft) N-NW 337 0,000 mm 6,2 C 6,6 C 1,6 km/h (1 Bft) 91,30 %
18.10.2019 08:08 23,8 C 6,6 C 8,9 C 45 % 97 % 91 % 1018,3 hPa 0,0 l/m 1,6 km/h (1 Bft) N-NW 337 0,000 mm 6,2 C 6,6 C 1,6 km/h (1 Bft) 100,00 %
18.10.2019 08:07 23,8 C 6,5 C 8,9 C 45 % 97 % 91 % 1018,3 hPa 0,0 l/m 1,6 km/h (1 Bft) N-NW 337 0,000 mm 6,1 C 6,5 C 1,6 km/h (1 Bft) 91,30 %
18.10.2019 08:06 23,8 C 6,5 C 8,9 C 45 % 97 % 91 % 1018,3 hPa 0,0 l/m 0,0 km/h (0 Bft) N-NW 337 0,000 mm 6,1 C 6,5 C 1,6 km/h (1 Bft) 95,65 %
18.10.2019 08:05 23,8 C 6,4 C 8,9 C 45 % 97 % 91 % 1018,3 hPa 0,0 l/m 0,0 km/h (0 Bft) N-NW 337 0,000 mm 6,0 C 6,4 C 1,6 km/h (1 Bft) 100,00 %
18.10.2019 08:04 23,7 C 6,4 C 8,9 C 45 % 97 % 91 % 1018,3 hPa 0,0 l/m 1,6 km/h (1 Bft) N-NW 337 0,000 mm 6,0 C 6,4 C 3,2 km/h (1 Bft) 95,65 %
18.10.2019 08:03 23,7 C 6,4 C 8,9 C 45 % 97 % 91 % 1018,3 hPa 0,0 l/m 3,2 km/h (1 Bft) N-NW 337 0,000 mm 6,0 C 6,4 C 4,8 km/h (1 Bft) 100,00 %
18.10.2019 08:02 23,7 C 6,4 C 8,9 C 45 % 97 % 91 % 1018,3 hPa 0,0 l/m 1,6 km/h (1 Bft) SW 225 0,000 mm 6,0 C 6,4 C 3,2 km/h (1 Bft) 91,30 %
18.10.2019 08:01 23,7 C 6,3 C 8,9 C 45 % 97 % 90 % 1018,2 hPa 0,0 l/m 1,6 km/h (1 Bft) SW 225 0,000 mm 5,9 C 6,3 C 3,2 km/h (1 Bft) 100,00 %
18.10.2019 08:00 23,7 C 6,3 C 8,3 C 45 % 97 % 90 % 1018,2 hPa 0,0 l/m 1,6 km/h (1 Bft) SW 225 0,000 mm 5,9 C 6,3 C 3,2 km/h (1 Bft) 100,00 %
18.10.2019 07:59 23,7 C 6,3 C 8,3 C 45 % 97 % 90 % 1018,2 hPa 0,0 l/m 1,6 km/h (1 Bft) SW 225 0,000 mm 5,9 C 6,3 C 1,6 km/h (1 Bft) 100,00 %
18.10.2019 07:58 23,7 C 6,3 C 8,3 C 45 % 97 % 90 % 1018,1 hPa 0,0 l/m 1,6 km/h (1 Bft) SW 225 0,000 mm 5,9 C 6,3 C 1,6 km/h (1 Bft) 100,00 %
18.10.2019 07:57 23,7 C 6,2 C 8,3 C 45 % 97 % 90 % 1018,2 hPa 0,0 l/m 1,6 km/h (1 Bft) SW 225 0,000 mm 5,8 C 6,2 C 3,2 km/h (1 Bft) 95,65 %
18.10.2019 07:56 23,7 C 6,2 C 8,3 C 45 % 97 % 90 % 1018,2 hPa 0,0 l/m 0,0 km/h (0 Bft) SW 225 0,000 mm 5,8 C 6,2 C 1,6 km/h (1 Bft) 100,00 %
18.10.2019 07:55 23,7 C 6,2 C 8,3 C 45 % 97 % 90 % 1018,2 hPa 0,0 l/m 0,0 km/h (0 Bft) SW 225 0,000 mm 5,8 C 6,2 C 1,6 km/h (1 Bft) 95,65 %
18.10.2019 07:54 23,7 C 6,1 C 8,3 C 45 % 97 % 90 % 1018,2 hPa 0,0 l/m 1,6 km/h (1 Bft) SW 225 0,000 mm 5,7 C 6,1 C 3,2 km/h (1 Bft) 95,65 %
18.10.2019 07:53 23,7 C 6,1 C 8,3 C 45 % 97 % 89 % 1018,2 hPa 0,0 l/m 0,0 km/h (0 Bft) SW 225 0,000 mm 5,7 C 6,1 C 1,6 km/h (1 Bft) 100,00 %
18.10.2019 07:52 23,7 C 6,0 C 8,3 C 45 % 97 % 89 % 1018,2 hPa 0,0 l/m 0,0 km/h (0 Bft) SW 225 0,000 mm 5,6 C 6,0 C 1,6 km/h (1 Bft) 100,00 %
18.10.2019 07:51 23,7 C 5,9 C 8,3 C 45 % 97 % 89 % 1018,2 hPa 0,0 l/m 0,0 km/h (0 Bft) SW 225 0,000 mm 5,5 C 5,9 C 1,6 km/h (1 Bft) 100,00 %
18.10.2019 07:50 23,6 C 5,9 C 8,3 C 45 % 97 % 89 % 1018,2 hPa 0,0 l/m 0,0 km/h (0 Bft) SW 225 0,000 mm 5,5 C 5,9 C 1,6 km/h (1 Bft) 100,00 %
18.10.2019 07:49 23,6 C 5,9 C 8,3 C 45 % 97 % 89 % 1018,2 hPa 0,0 l/m 0,0 km/h (0 Bft) SW 225 0,000 mm 5,5 C 5,9 C 1,6 km/h (1 Bft) 100,00 %
18.10.2019 07:48 23,6 C 5,8 C 8,3 C 45 % 97 % 89 % 1018,2 hPa 0,0 l/m 1,6 km/h (1 Bft) SW 225 0,000 mm 5,4 C 5,8 C 1,6 km/h (1 Bft) 95,65 %
18.10.2019 07:47 23,6 C 5,8 C 8,3 C 45 % 97 % 89 % 1018,3 hPa 0,0 l/m 3,2 km/h (1 Bft) SW 225 0,000 mm 5,4 C 5,8 C 3,2 km/h (1 Bft) 100,00 %
18.10.2019 07:46 23,6 C 5,8 C 8,3 C 45 % 97 % 88 % 1018,3 hPa 0,0 l/m 1,6 km/h (1 Bft) SW 225 0,000 mm 5,4 C 5,8 C 3,2 km/h (1 Bft) 100,00 %
18.10.2019 07:45 23,6 C 5,7 C 8,3 C 45 % 97 % 88 % 1018,2 hPa 0,0 l/m 1,6 km/h (1 Bft) SW 225 0,000 mm 5,3 C 5,7 C 3,2 km/h (1 Bft) 100,00 %
18.10.2019 07:44 23,6 C 5,7 C 8,3 C 45 % 97 % 88 % 1018,2 hPa 0,0 l/m 1,6 km/h (1 Bft) SW 225 0,000 mm 5,3 C 5,7 C 1,6 km/h (1 Bft) 100,00 %
18.10.2019 07:43 23,6 C 5,7 C 8,3 C 45 % 97 % 88 % 1018,3 hPa 0,0 l/m 0,0 km/h (0 Bft) SW 225 0,000 mm 5,3 C 5,7 C 1,6 km/h (1 Bft) 100,00 %
18.10.2019 07:42 23,6 C 5,6 C 8,3 C 45 % 97 % 88 % 1018,3 hPa 0,0 l/m 0,0 km/h (0 Bft) SW 225 0,000 mm 5,2 C 5,6 C 1,6 km/h (1 Bft) 100,00 %
18.10.2019 07:41 23,6 C 5,6 C 8,3 C 45 % 97 % 87 % 1018,3 hPa 0,0 l/m 0,0 km/h (0 Bft) N 0 0,000 mm 5,2 C 5,6 C 0,0 km/h (0 Bft) 95,65 %
18.10.2019 07:40 23,6 C 5,6 C 8,3 C 45 % 97 % 87 % 1018,3 hPa 0,0 l/m 0,0 km/h (0 Bft) N 0 0,000 mm 5,2 C 5,6 C 0,0 km/h (0 Bft) 100,00 %
18.10.2019 07:39 23,6 C 5,5 C 8,3 C 45 % 97 % 87 % 1018,3 hPa 0,0 l/m 0,0 km/h (0 Bft) N 0 0,000 mm 5,1 C 5,5 C 0,0 km/h (0 Bft) 100,00 %
18.10.2019 07:38 23,5 C 5,4 C 8,3 C 45 % 97 % 87 % 1018,3 hPa 0,0 l/m 0,0 km/h (0 Bft) SW 225 0,000 mm 5,0 C 5,4 C 1,6 km/h (1 Bft) 100,00 %
18.10.2019 07:37 23,5 C 5,4 C 8,3 C 45 % 97 % 87 % 1018,3 hPa 0,0 l/m 0,0 km/h (0 Bft) SW 225 0,000 mm 5,0 C 5,4 C 1,6 km/h (1 Bft) 100,00 %
18.10.2019 07:36 23,4 C 5,4 C 8,3 C 45 % 97 % 86 % 1018,3 hPa 0,0 l/m 0,0 km/h (0 Bft) SW 225 0,000 mm 5,0 C 5,4 C 1,6 km/h (1 Bft) 100,00 %
18.10.2019 07:35 23,5 C 5,3 C 8,3 C 45 % 97 % 86 % 1018,2 hPa 0,0 l/m 0,0 km/h (0 Bft) SW 225 0,000 mm 4,9 C 5,3 C 1,6 km/h (1 Bft) 100,00 %
18.10.2019 07:34 23,4 C 5,3 C 8,3 C 45 % 96 % 86 % 1018,3 hPa 0,0 l/m 0,0 km/h (0 Bft) N 0 0,000 mm 4,7 C 5,3 C 0,0 km/h (0 Bft) 95,65 %
18.10.2019 07:33 23,4 C 5,3 C 8,3 C 45 % 96 % 86 % 1018,2 hPa 0,0 l/m 0,0 km/h (0 Bft) SW 225 0,000 mm 4,7 C 5,3 C 1,6 km/h (1 Bft) 100,00 %
18.10.2019 07:32 23,4 C 5,3 C 8,3 C 45 % 96 % 86 % 1018,1 hPa 0,0 l/m 0,0 km/h (0 Bft) N 0 0,000 mm 4,7 C 5,3 C 0,0 km/h (0 Bft) 95,65 %
18.10.2019 07:31 23,4 C 5,3 C 8,3 C 45 % 96 % 85 % 1018,2 hPa 0,0 l/m 0,0 km/h (0 Bft) SW 225 0,000 mm 4,7 C 5,3 C 1,6 km/h (1 Bft) 100,00 %
18.10.2019 07:30 23,4 C 5,2 C 8,3 C 45 % 96 % 85 % 1018,2 hPa 0,0 l/m 0,0 km/h (0 Bft) SW 225 0,000 mm 4,6 C 5,2 C 1,6 km/h (1 Bft) 100,00 %
18.10.2019 07:29 23,4 C 5,2 C 8,3 C 45 % 96 % 85 % 1018,2 hPa 0,0 l/m 0,0 km/h (0 Bft) SW 225 0,000 mm 4,6 C 5,2 C 1,6 km/h (1 Bft) 100,00 %
18.10.2019 07:28 23,4 C 5,2 C 8,3 C 45 % 96 % 85 % 1018,2 hPa 0,0 l/m 0,0 km/h (0 Bft) SW 225 0,000 mm 4,6 C 5,2 C 1,6 km/h (1 Bft) 100,00 %
18.10.2019 07:27 23,4 C 5,1 C 8,3 C 45 % 96 % 85 % 1018,2 hPa 0,0 l/m 0,0 km/h (0 Bft) SW 225 0,000 mm 4,5 C 5,1 C 1,6 km/h (1 Bft) 91,30 %
18.10.2019 07:26 23,4 C 5,1 C 8,3 C 45 % 96 % 85 % 1018,3 hPa 0,0 l/m 0,0 km/h (0 Bft) N 0 0,000 mm 4,5 C 5,1 C 0,0 km/h (0 Bft) 100,00 %
18.10.2019 07:25 23,4 C 5,1 C 8,3 C 45 % 96 % 85 % 1018,3 hPa 0,0 l/m 0,0 km/h (0 Bft) N 0 0,000 mm 4,5 C 5,1 C 0,0 km/h (0 Bft) 100,00 %
18.10.2019 07:24 23,4 C 5,1 C 8,3 C 45 % 96 % 84 % 1018,3 hPa 0,0 l/m 0,0 km/h (0 Bft) SW 225 0,000 mm 4,5 C 5,1 C 1,6 km/h (1 Bft) 100,00 %
18.10.2019 07:23 23,4 C 5,0 C 8,3 C 45 % 96 % 84 % 1018,3 hPa 0,0 l/m 0,0 km/h (0 Bft) SW 225 0,000 mm 4,4 C 5,0 C 1,6 km/h (1 Bft) 100,00 %
18.10.2019 07:22 23,3 C 5,0 C 8,3 C 45 % 96 % 84 % 1018,3 hPa 0,0 l/m 0,0 km/h (0 Bft) N 0 0,000 mm 4,4 C 5,0 C 0,0 km/h (0 Bft) 100,00 %
18.10.2019 07:21 23,3 C 4,9 C 8,3 C 45 % 96 % 84 % 1018,3 hPa 0,0 l/m 0,0 km/h (0 Bft) N 0 0,000 mm 4,3 C 4,9 C 0,0 km/h (0 Bft) 100,00 %
18.10.2019 07:20 23,3 C 4,9 C 8,3 C 46 % 96 % 84 % 1018,2 hPa 0,0 l/m 0,0 km/h (0 Bft) SW 225 0,000 mm 4,3 C 4,9 C 1,6 km/h (1 Bft) 95,65 %
18.10.2019 07:19 23,3 C 4,9 C 8,3 C 46 % 96 % 83 % 1018,2 hPa 0,0 l/m 0,0 km/h (0 Bft) SW 225 0,000 mm 4,3 C 4,9 C 1,6 km/h (1 Bft) 100,00 %
18.10.2019 07:18 23,3 C 4,9 C 8,3 C 46 % 96 % 83 % 1018,2 hPa 0,0 l/m 0,0 km/h (0 Bft) SW 225 0,000 mm 4,3 C 4,9 C 1,6 km/h (1 Bft) 100,00 %
18.10.2019 07:17 23,3 C 4,9 C 8,3 C 46 % 96 % 83 % 1018,2 hPa 0,0 l/m 0,0 km/h (0 Bft) N 0 0,000 mm 4,3 C 4,9 C 0,0 km/h (0 Bft) 100,00 %
18.10.2019 07:16 23,3 C 4,9 C 8,3 C 46 % 96 % 83 % 1018,2 hPa 0,0 l/m 0,0 km/h (0 Bft) SW 225 0,000 mm 4,3 C 4,9 C 1,6 km/h (1 Bft) 100,00 %
18.10.2019 07:15 23,3 C 4,9 C 8,3 C 46 % 96 % 83 % 1018,1 hPa 0,0 l/m 0,0 km/h (0 Bft) SW 225 0,000 mm 4,3 C 4,9 C 1,6 km/h (1 Bft) 100,00 %
18.10.2019 07:14 23,3 C 4,9 C 8,3 C 46 % 96 % 83 % 1018,2 hPa 0,0 l/m 1,6 km/h (1 Bft) SW 225 0,000 mm 4,3 C 4,9 C 1,6 km/h (1 Bft) 100,00 %
18.10.2019 07:13 23,2 C 4,9 C 8,3 C 46 % 96 % 83 % 1018,2 hPa 0,0 l/m 1,6 km/h (1 Bft) SW 225 0,000 mm 4,3 C 4,9 C 1,6 km/h (1 Bft) 95,65 %
18.10.2019 07:12 23,2 C 4,9 C 8,3 C 46 % 96 % 83 % 1018,2 hPa 0,0 l/m 0,0 km/h (0 Bft) SW 225 0,000 mm 4,3 C 4,9 C 1,6 km/h (1 Bft) 100,00 %
18.10.2019 07:11 23,2 C 4,9 C 8,3 C 46 % 96 % 83 % 1018,2 hPa 0,0 l/m 1,6 km/h (1 Bft) SW 225 0,000 mm 4,3 C 4,9 C 3,2 km/h (1 Bft) 100,00 %
18.10.2019 07:10 23,2 C 4,9 C 8,3 C 46 % 96 % 83 % 1018,3 hPa 0,0 l/m 1,6 km/h (1 Bft) SW 225 0,000 mm 4,3 C 4,9 C 3,2 km/h (1 Bft) 100,00 %
18.10.2019 07:09 23,2 C 4,9 C 8,3 C 46 % 96 % 83 % 1018,2 hPa 0,0 l/m 3,2 km/h (1 Bft) SW 225 0,000 mm 4,3 C 4,9 C 3,2 km/h (1 Bft) 100,00 %
18.10.2019 07:08 23,1 C 4,9 C 8,3 C 46 % 96 % 82 % 1018,2 hPa 0,0 l/m 1,6 km/h (1 Bft) SW 225 0,000 mm 4,3 C 4,9 C 3,2 km/h (1 Bft) 100,00 %
18.10.2019 07:07 23,1 C 4,9 C 8,3 C 46 % 96 % 82 % 1018,1 hPa 0,0 l/m 1,6 km/h (1 Bft) SW 225 0,000 mm 4,3 C 4,9 C 3,2 km/h (1 Bft) 100,00 %
18.10.2019 07:06 23,1 C 4,9 C 8,3 C 46 % 96 % 82 % 1018,1 hPa 0,0 l/m 1,6 km/h (1 Bft) SW 225 0,000 mm 4,3 C 4,9 C 3,2 km/h (1 Bft) 91,30 %
18.10.2019 07:05 23,1 C 4,9 C 8,3 C 46 % 96 % 82 % 1018,1 hPa 0,0 l/m 1,6 km/h (1 Bft) SW 225 0,000 mm 4,3 C 4,9 C 3,2 km/h (1 Bft) 100,00 %
18.10.2019 07:04 23,1 C 4,9 C 8,3 C 46 % 96 % 82 % 1018,1 hPa 0,0 l/m 1,6 km/h (1 Bft) SW 225 0,000 mm 4,3 C 4,9 C 1,6 km/h (1 Bft) 100,00 %
18.10.2019 07:03 23,1 C 4,9 C 8,3 C 46 % 96 % 82 % 1018,1 hPa 0,0 l/m 0,0 km/h (0 Bft) SW 225 0,000 mm 4,3 C 4,9 C 1,6 km/h (1 Bft) 100,00 %
18.10.2019 07:02 23,1 C 4,9 C 8,3 C 46 % 96 % 82 % 1018,1 hPa 0,0 l/m 0,0 km/h (0 Bft) SW 225 0,000 mm 4,3 C 4,9 C 1,6 km/h (1 Bft) 100,00 %
18.10.2019 07:01 23,1 C 4,9 C 8,3 C 46 % 96 % 82 % 1018,2 hPa 0,0 l/m 1,6 km/h (1 Bft) SW 225 0,000 mm 4,3 C 4,9 C 1,6 km/h (1 Bft) 100,00 %
18.10.2019 07:00 23,1 C 4,9 C 8,3 C 46 % 95 % 82 % 1018,1 hPa 0,0 l/m 1,6 km/h (1 Bft) SW 225 0,000 mm 4,2 C 4,9 C 1,6 km/h (1 Bft) 100,00 %
18.10.2019 06:59 23,1 C 4,9 C 8,3 C 46 % 95 % 82 % 1018,0 hPa 0,0 l/m 0,0 km/h (0 Bft) SW 225 0,000 mm 4,2 C 4,9 C 1,6 km/h (1 Bft) 91,30 %
18.10.2019 06:58 23,1 C 4,9 C 8,3 C 46 % 95 % 82 % 1018,0 hPa 0,0 l/m 1,6 km/h (1 Bft) SW 225 0,000 mm 4,2 C 4,9 C 1,6 km/h (1 Bft) 100,00 %
18.10.2019 06:57 23,1 C 4,9 C 8,3 C 46 % 95 % 82 % 1017,9 hPa 0,0 l/m 1,6 km/h (1 Bft) SW 225 0,000 mm 4,2 C 4,9 C 1,6 km/h (1 Bft) 100,00 %
18.10.2019 06:56 23,1 C 4,9 C 8,3 C 46 % 95 % 82 % 1018,0 hPa 0,0 l/m 0,0 km/h (0 Bft) SW 225 0,000 mm 4,2 C 4,9 C 1,6 km/h (1 Bft) 95,65 %
18.10.2019 06:55 23,1 C 5,0 C 8,3 C 46 % 95 % 82 % 1018,0 hPa 0,0 l/m 0,0 km/h (0 Bft) N 0 0,000 mm 4,3 C 5,0 C 0,0 km/h (0 Bft) 100,00 %
18.10.2019 06:54 23,1 C 5,0 C 8,3 C 46 % 95 % 82 % 1018,0 hPa 0,0 l/m 0,0 km/h (0 Bft) SW 225 0,000 mm 4,3 C 5,0 C 1,6 km/h (1 Bft) 95,65 %
18.10.2019 06:53 23,1 C 4,9 C 8,3 C 46 % 95 % 82 % 1018,0 hPa 0,0 l/m 1,6 km/h (1 Bft) SW 225 0,000 mm 4,2 C 4,9 C 1,6 km/h (1 Bft) 100,00 %
18.10.2019 06:52 23,1 C 5,0 C 8,3 C 46 % 95 % 82 % 1018,0 hPa 0,0 l/m 0,0 km/h (0 Bft) SW 225 0,000 mm 4,3 C 5,0 C 1,6 km/h (1 Bft) 91,30 %
18.10.2019 06:51 23,1 C 5,0 C 8,3 C 46 % 95 % 82 % 1018,0 hPa 0,0 l/m 1,6 km/h (1 Bft) SW 225 0,000 mm 4,3 C 5,0 C 1,6 km/h (1 Bft) 100,00 %
18.10.2019 06:50 23,1 C 5,0 C 8,3 C 46 % 95 % 82 % 1018,0 hPa 0,0 l/m 0,0 km/h (0 Bft) SW 225 0,000 mm 4,3 C 5,0 C 1,6 km/h (1 Bft) 95,65 %
18.10.2019 06:49 23,1 C 5,0 C 8,3 C 46 % 95 % 82 % 1018,0 hPa 0,0 l/m 0,0 km/h (0 Bft) SW 225 0,000 mm 4,3 C 5,0 C 1,6 km/h (1 Bft) 100,00 %
18.10.2019 06:48 23,1 C 5,0 C 8,3 C 46 % 95 % 82 % 1018,1 hPa 0,0 l/m 0,0 km/h (0 Bft) SW 225 0,000 mm 4,3 C 5,0 C 1,6 km/h (1 Bft) 95,65 %
18.10.2019 06:47 23,1 C 5,0 C 8,3 C 46 % 95 % 82 % 1018,0 hPa 0,0 l/m 0,0 km/h (0 Bft) SW 225 0,000 mm 4,3 C 5,0 C 1,6 km/h (1 Bft) 91,30 %
18.10.2019 06:46 23,1 C 5,0 C 8,3 C 46 % 95 % 82 % 1018,1 hPa 0,0 l/m 0,0 km/h (0 Bft) N 0 0,000 mm 4,3 C 5,0 C 0,0 km/h (0 Bft) 100,00 %
18.10.2019 06:45 23,1 C 5,1 C 8,3 C 46 % 95 % 82 % 1018,0 hPa 0,0 l/m 0,0 km/h (0 Bft) N 0 0,000 mm 4,4 C 5,1 C 0,0 km/h (0 Bft) 91,30 %
18.10.2019 06:44 23,1 C 5,1 C 8,3 C 46 % 95 % 82 % 1018,0 hPa 0,0 l/m 0,0 km/h (0 Bft) N 0 0,000 mm 4,4 C 5,1 C 0,0 km/h (0 Bft) 100,00 %
18.10.2019 06:43 23,1 C 5,1 C 8,3 C 46 % 95 % 82 % 1018,1 hPa 0,0 l/m 0,0 km/h (0 Bft) SW 225 0,000 mm 4,4 C 5,1 C 1,6 km/h (1 Bft) 95,65 %
18.10.2019 06:42 23,1 C 5,1 C 8,3 C 46 % 95 % 82 % 1018,0 hPa 0,0 l/m 0,0 km/h (0 Bft) SW 225 0,000 mm 4,4 C 5,1 C 1,6 km/h (1 Bft) 100,00 %
18.10.2019 06:41 23,1 C 5,1 C 8,9 C 46 % 95 % 82 % 1018,1 hPa 0,0 l/m 0,0 km/h (0 Bft) SW 225 0,000 mm 4,4 C 5,1 C 1,6 km/h (1 Bft) 95,65 %
18.10.2019 06:40 23,1 C 5,1 C 8,9 C 46 % 95 % 82 % 1018,1 hPa 0,0 l/m 1,6 km/h (1 Bft) SW 225 0,000 mm 4,4 C 5,1 C 1,6 km/h (1 Bft) 95,65 %
18.10.2019 06:39 23,1 C 5,1 C 8,9 C 46 % 95 % 82 % 1018,0 hPa 0,0 l/m 0,0 km/h (0 Bft) SW 225 0,000 mm 4,4 C 5,1 C 1,6 km/h (1 Bft) 100,00 %
18.10.2019 06:38 23,1 C 5,1 C 8,9 C 46 % 95 % 82 % 1017,9 hPa 0,0 l/m 0,0 km/h (0 Bft) N 0 0,000 mm 4,4 C 5,1 C 0,0 km/h (0 Bft) 91,30 %
18.10.2019 06:37 23,1 C 5,1 C 8,9 C 46 % 95 % 82 % 1018,0 hPa 0,0 l/m 0,0 km/h (0 Bft) N 0 0,000 mm 4,4 C 5,1 C 0,0 km/h (0 Bft) 100,00 %
18.10.2019 06:36 23,1 C 5,2 C 8,9 C 46 % 95 % 82 % 1018,0 hPa 0,0 l/m 0,0 km/h (0 Bft) SW 225 0,000 mm 4,5 C 5,2 C 1,6 km/h (1 Bft) 95,65 %
18.10.2019 06:35 23,1 C 5,1 C 8,9 C 46 % 95 % 82 % 1017,9 hPa 0,0 l/m 0,0 km/h (0 Bft) SW 225 0,000 mm 4,4 C 5,1 C 1,6 km/h (1 Bft) 100,00 %
18.10.2019 06:34 23,1 C 5,2 C 8,9 C 46 % 95 % 82 % 1018,0 hPa 0,0 l/m 0,0 km/h (0 Bft) SW 225 0,000 mm 4,5 C 5,2 C 1,6 km/h (1 Bft) 95,65 %
18.10.2019 06:33 23,1 C 5,2 C 8,9 C 46 % 95 % 82 % 1018,1 hPa 0,0 l/m 0,0 km/h (0 Bft) N 0 0,000 mm 4,5 C 5,2 C 0,0 km/h (0 Bft) 100,00 %
18.10.2019 06:32 23,1 C 5,2 C 8,9 C 46 % 95 % 82 % 1018,1 hPa 0,0 l/m 0,0 km/h (0 Bft) N 0 0,000 mm 4,5 C 5,2 C 0,0 km/h (0 Bft) 95,65 %
18.10.2019 06:31 23,1 C 5,2 C 8,9 C 46 % 95 % 82 % 1018,0 hPa 0,0 l/m 0,0 km/h (0 Bft) N 0 0,000 mm 4,5 C 5,2 C 0,0 km/h (0 Bft) 100,00 %
18.10.2019 06:30 23,1 C 5,2 C 8,9 C 46 % 95 % 82 % 1018,0 hPa 0,0 l/m 0,0 km/h (0 Bft) N 0 0,000 mm 4,5 C 5,2 C 0,0 km/h (0 Bft) 91,30 %
18.10.2019 06:29 23,1 C 5,2 C 8,9 C 46 % 95 % 82 % 1018,0 hPa 0,0 l/m 0,0 km/h (0 Bft) N 0 0,000 mm 4,5 C 5,2 C 0,0 km/h (0 Bft) 100,00 %
18.10.2019 06:28 23,1 C 5,2 C 8,9 C 46 % 95 % 82 % 1018,0 hPa 0,0 l/m 0,0 km/h (0 Bft) N 0 0,000 mm 4,5 C 5,2 C 0,0 km/h (0 Bft) 100,00 %
18.10.2019 06:27 23,1 C 5,3 C 8,9 C 46 % 95 % 82 % 1018,0 hPa 0,0 l/m 0,0 km/h (0 Bft) N 0 0,000 mm 4,6 C 5,3 C 0,0 km/h (0 Bft) 100,00 %
18.10.2019 06:26 23,1 C 5,3 C 8,9 C 46 % 95 % 82 % 1018,0 hPa 0,0 l/m 0,0 km/h (0 Bft) N 0 0,000 mm 4,6 C 5,3 C 0,0 km/h (0 Bft) 100,00 %
18.10.2019 06:25 23,1 C 5,3 C 8,9 C 46 % 95 % 82 % 1018,0 hPa 0,0 l/m 0,0 km/h (0 Bft) N 0 0,000 mm 4,6 C 5,3 C 0,0 km/h (0 Bft) 95,65 %
18.10.2019 06:24 23,1 C 5,3 C 8,9 C 46 % 95 % 82 % 1018,0 hPa 0,0 l/m 0,0 km/h (0 Bft) N 0 0,000 mm 4,6 C 5,3 C 0,0 km/h (0 Bft) 100,00 %
18.10.2019 06:23 23,1 C 5,3 C 8,9 C 46 % 95 % 82 % 1018,0 hPa 0,0 l/m 0,0 km/h (0 Bft) N 0 0,000 mm 4,6 C 5,3 C 0,0 km/h (0 Bft) 95,65 %
18.10.2019 06:22 23,1 C 5,3 C 8,9 C 46 % 95 % 82 % 1018,0 hPa 0,0 l/m 0,0 km/h (0 Bft) N 0 0,000 mm 4,6 C 5,3 C 0,0 km/h (0 Bft) 91,30 %
18.10.2019 06:21 23,2 C 5,3 C 8,9 C 46 % 95 % 82 % 1018,0 hPa 0,0 l/m 0,0 km/h (0 Bft) N 0 0,000 mm 4,6 C 5,3 C 0,0 km/h (0 Bft) 100,00 %
18.10.2019 06:20 23,1 C 5,4 C 8,9 C 46 % 95 % 82 % 1018,2 hPa 0,0 l/m 0,0 km/h (0 Bft) SW 225 0,000 mm 4,7 C 5,4 C 1,6 km/h (1 Bft) 100,00 %
18.10.2019 06:19 23,1 C 5,3 C 8,9 C 46 % 95 % 82 % 1018,1 hPa 0,0 l/m 0,0 km/h (0 Bft) N 0 0,000 mm 4,6 C 5,3 C 0,0 km/h (0 Bft) 95,65 %
18.10.2019 06:18 23,1 C 5,4 C 8,9 C 46 % 95 % 82 % 1018,0 hPa 0,0 l/m 0,0 km/h (0 Bft) N 0 0,000 mm 4,7 C 5,4 C 0,0 km/h (0 Bft) 100,00 %
18.10.2019 06:17 23,1 C 5,4 C 8,9 C 46 % 95 % 82 % 1018,0 hPa 0,0 l/m 0,0 km/h (0 Bft) N 0 0,000 mm 4,7 C 5,4 C 0,0 km/h (0 Bft) 100,00 %
18.10.2019 06:16 23,1 C 5,4 C 8,9 C 46 % 96 % 82 % 1018,1 hPa 0,0 l/m 0,0 km/h (0 Bft) N 0 0,000 mm 4,8 C 5,4 C 0,0 km/h (0 Bft) 95,65 %
18.10.2019 06:15 23,2 C 5,4 C 8,9 C 46 % 96 % 82 % 1018,0 hPa 0,0 l/m 0,0 km/h (0 Bft) N 0 0,000 mm 4,8 C 5,4 C 0,0 km/h (0 Bft) 95,65 %
18.10.2019 06:14 23,1 C 5,4 C 8,9 C 46 % 96 % 82 % 1018,0 hPa 0,0 l/m 0,0 km/h (0 Bft) SW 225 0,000 mm 4,8 C 5,4 C 1,6 km/h (1 Bft) 100,00 %
18.10.2019 06:13 23,2 C 5,4 C 8,9 C 46 % 96 % 82 % 1018,0 hPa 0,0 l/m 0,0 km/h (0 Bft) SW 225 0,000 mm 4,8 C 5,4 C 1,6 km/h (1 Bft) 100,00 %
18.10.2019 06:12 23,2 C 5,4 C 8,9 C 46 % 96 % 82 % 1018,1 hPa 0,0 l/m 0,0 km/h (0 Bft) SW 225 0,000 mm 4,8 C 5,4 C 1,6 km/h (1 Bft) 100,00 %
18.10.2019 06:11 23,1 C 5,5 C 8,9 C 46 % 96 % 82 % 1018,2 hPa 0,0 l/m 0,0 km/h (0 Bft) N 0 0,000 mm 4,9 C 5,5 C 0,0 km/h (0 Bft) 95,65 %
18.10.2019 06:10 23,2 C 5,4 C 8,9 C 46 % 96 % 82 % 1018,1 hPa 0,0 l/m 0,0 km/h (0 Bft) N 0 0,000 mm 4,8 C 5,4 C 0,0 km/h (0 Bft) 95,65 %
18.10.2019 06:09 23,2 C 5,5 C 8,9 C 46 % 96 % 82 % 1018,1 hPa 0,0 l/m 0,0 km/h (0 Bft) N 0 0,000 mm 4,9 C 5,5 C 0,0 km/h (0 Bft) 91,30 %
18.10.2019 06:08 23,2 C 5,6 C 8,9 C 46 % 96 % 82 % 1018,0 hPa 0,0 l/m 0,0 km/h (0 Bft) N 0 0,000 mm 5,0 C 5,6 C 0,0 km/h (0 Bft) 100,00 %
18.10.2019 06:07 23,2 C 5,5 C 8,9 C 46 % 96 % 82 % 1018,0 hPa 0,0 l/m 0,0 km/h (0 Bft) N 0 0,000 mm 4,9 C 5,5 C 0,0 km/h (0 Bft) 100,00 %
18.10.2019 06:06 23,2 C 5,6 C 8,9 C 46 % 95 % 82 % 1018,1 hPa 0,0 l/m 0,0 km/h (0 Bft) N 0 0,000 mm 4,9 C 5,6 C 0,0 km/h (0 Bft) 100,00 %
18.10.2019 06:05 23,2 C 5,6 C 8,9 C 45 % 95 % 82 % 1018,1 hPa 0,0 l/m 0,0 km/h (0 Bft) N 0 0,000 mm 4,9 C 5,6 C 0,0 km/h (0 Bft) 100,00 %
18.10.2019 06:04 23,2 C 5,6 C 8,9 C 46 % 95 % 82 % 1018,1 hPa 0,0 l/m 0,0 km/h (0 Bft) N 0 0,000 mm 4,9 C 5,6 C 0,0 km/h (0 Bft) 100,00 %
18.10.2019 06:03 23,2 C 5,6 C 8,9 C 46 % 96 % 82 % 1018,2 hPa 0,0 l/m 0,0 km/h (0 Bft) SW 225 0,000 mm 5,0 C 5,6 C 1,6 km/h (1 Bft) 95,65 %
18.10.2019 06:02 23,2 C 5,6 C 8,9 C 46 % 95 % 82 % 1018,2 hPa 0,0 l/m 1,6 km/h (1 Bft) SW 225 0,000 mm 4,9 C 5,6 C 1,6 km/h (1 Bft) 95,65 %
18.10.2019 06:01 23,2 C 5,6 C 8,9 C 46 % 95 % 82 % 1018,1 hPa 0,0 l/m 0,0 km/h (0 Bft) SW 225 0,000 mm 4,9 C 5,6 C 1,6 km/h (1 Bft) 100,00 %
18.10.2019 06:00 23,2 C 5,6 C 8,9 C 46 % 95 % 82 % 1018,2 hPa 0,0 l/m 0,0 km/h (0 Bft) N 0 0,000 mm 4,9 C 5,6 C 0,0 km/h (0 Bft) 100,00 %
18.10.2019 05:59 23,2 C 5,6 C 8,9 C 46 % 95 % 82 % 1018,2 hPa 0,0 l/m 0,0 km/h (0 Bft) SW 225 0,000 mm 4,9 C 5,6 C 1,6 km/h (1 Bft) 100,00 %
18.10.2019 05:58 23,2 C 5,6 C 8,9 C 46 % 95 % 82 % 1018,2 hPa 0,0 l/m 0,0 km/h (0 Bft) SW 225 0,000 mm 4,9 C 5,6 C 1,6 km/h (1 Bft) 100,00 %
18.10.2019 05:57 23,2 C 5,6 C 8,9 C 46 % 95 % 82 % 1018,2 hPa 0,0 l/m 0,0 km/h (0 Bft) SW 225 0,000 mm 4,9 C 5,6 C 1,6 km/h (1 Bft) 100,00 %
18.10.2019 05:56 23,2 C 5,6 C 8,9 C 46 % 95 % 82 % 1018,3 hPa 0,0 l/m 0,0 km/h (0 Bft) SW 225 0,000 mm 4,9 C 5,6 C 1,6 km/h (1 Bft) 95,65 %
18.10.2019 05:55 23,2 C 5,6 C 8,9 C 46 % 95 % 82 % 1018,3 hPa 0,0 l/m 0,0 km/h (0 Bft) SW 225 0,000 mm 4,9 C 5,6 C 1,6 km/h (1 Bft) 95,65 %
18.10.2019 05:54 23,2 C 5,6 C 8,9 C 46 % 95 % 82 % 1018,3 hPa 0,0 l/m 0,0 km/h (0 Bft) N 0 0,000 mm 4,9 C 5,6 C 0,0 km/h (0 Bft) 100,00 %
18.10.2019 05:53 23,2 C 5,6 C 8,9 C 46 % 95 % 82 % 1018,2 hPa 0,0 l/m 0,0 km/h (0 Bft) N 0 0,000 mm 4,9 C 5,6 C 0,0 km/h (0 Bft) 100,00 %
18.10.2019 05:52 23,2 C 5,6 C 8,9 C 46 % 95 % 82 % 1018,3 hPa 0,0 l/m 0,0 km/h (0 Bft) N 0 0,000 mm 4,9 C 5,6 C 0,0 km/h (0 Bft) 100,00 %
18.10.2019 05:51 23,2 C 5,6 C 8,9 C 46 % 95 % 82 % 1018,2 hPa 0,0 l/m 0,0 km/h (0 Bft) N 0 0,000 mm 4,9 C 5,6 C 0,0 km/h (0 Bft) 100,00 %
18.10.2019 05:50 23,2 C 5,6 C 8,9 C 46 % 95 % 82 % 1018,3 hPa 0,0 l/m 0,0 km/h (0 Bft) N 0 0,000 mm 4,9 C 5,6 C 0,0 km/h (0 Bft) 100,00 %
18.10.2019 05:49 23,2 C 5,7 C 8,9 C 46 % 95 % 82 % 1018,2 hPa 0,0 l/m 0,0 km/h (0 Bft) N 0 0,000 mm 5,0 C 5,7 C 0,0 km/h (0 Bft) 100,00 %
18.10.2019 05:48 23,2 C 5,7 C 8,9 C 46 % 95 % 82 % 1018,2 hPa 0,0 l/m 0,0 km/h (0 Bft) N 0 0,000 mm 5,0 C 5,7 C 0,0 km/h (0 Bft) 95,65 %
18.10.2019 05:47 23,2 C 5,7 C 8,9 C 46 % 95 % 82 % 1018,2 hPa 0,0 l/m 0,0 km/h (0 Bft) N 0 0,000 mm 5,0 C 5,7 C 0,0 km/h (0 Bft) 100,00 %
18.10.2019 05:46 23,2 C 5,7 C 8,9 C 46 % 95 % 82 % 1018,2 hPa 0,0 l/m 0,0 km/h (0 Bft) N 0 0,000 mm 5,0 C 5,7 C 0,0 km/h (0 Bft) 100,00 %
18.10.2019 05:45 23,2 C 5,7 C 8,9 C 46 % 95 % 82 % 1018,2 hPa 0,0 l/m 0,0 km/h (0 Bft) N 0 0,000 mm 5,0 C 5,7 C 0,0 km/h (0 Bft) 100,00 %
18.10.2019 05:44 23,2 C 5,7 C 8,9 C 45 % 95 % 82 % 1018,2 hPa 0,0 l/m 0,0 km/h (0 Bft) N 0 0,000 mm 5,0 C 5,7 C 0,0 km/h (0 Bft) 100,00 %
18.10.2019 05:43 23,2 C 5,7 C 8,9 C 46 % 95 % 82 % 1018,2 hPa 0,0 l/m 0,0 km/h (0 Bft) N 0 0,000 mm 5,0 C 5,7 C 0,0 km/h (0 Bft) 100,00 %
18.10.2019 05:42 23,2 C 5,7 C 8,9 C 45 % 95 % 82 % 1018,3 hPa 0,0 l/m 0,0 km/h (0 Bft) N 0 0,000 mm 5,0 C 5,7 C 0,0 km/h (0 Bft) 100,00 %
18.10.2019 05:41 23,2 C 5,7 C 8,9 C 46 % 95 % 82 % 1018,2 hPa 0,0 l/m 0,0 km/h (0 Bft) SW 225 0,000 mm 5,0 C 5,7 C 1,6 km/h (1 Bft) 95,65 %
18.10.2019 05:40 23,2 C 5,7 C 8,9 C 45 % 95 % 82 % 1018,1 hPa 0,0 l/m 0,0 km/h (0 Bft) N 0 0,000 mm 5,0 C 5,7 C 0,0 km/h (0 Bft) 100,00 %
18.10.2019 05:39 23,2 C 5,8 C 8,9 C 46 % 95 % 82 % 1018,2 hPa 0,0 l/m 0,0 km/h (0 Bft) N 0 0,000 mm 5,1 C 5,8 C 0,0 km/h (0 Bft) 100,00 %
18.10.2019 05:38 23,2 C 5,8 C 8,9 C 46 % 95 % 82 % 1018,2 hPa 0,0 l/m 0,0 km/h (0 Bft) N 0 0,000 mm 5,1 C 5,8 C 0,0 km/h (0 Bft) 100,00 %
18.10.2019 05:37 23,3 C 5,8 C 8,9 C 45 % 95 % 82 % 1018,2 hPa 0,0 l/m 0,0 km/h (0 Bft) N 0 0,000 mm 5,1 C 5,8 C 0,0 km/h (0 Bft) 100,00 %
18.10.2019 05:36 23,2 C 5,8 C 9,4 C 46 % 95 % 82 % 1018,2 hPa 0,0 l/m 0,0 km/h (0 Bft) N 0 0,000 mm 5,1 C 5,8 C 0,0 km/h (0 Bft) 100,00 %
18.10.2019 05:35 23,2 C 5,9 C 9,4 C 46 % 95 % 82 % 1018,2 hPa 0,0 l/m 0,0 km/h (0 Bft) SW 225 0,000 mm 5,2 C 5,9 C 1,6 km/h (1 Bft) 95,65 %
18.10.2019 05:34 23,2 C 5,9 C 9,4 C 46 % 95 % 82 % 1018,1 hPa 0,0 l/m 0,0 km/h (0 Bft) N 0 0,000 mm 5,2 C 5,9 C 0,0 km/h (0 Bft) 95,65 %
18.10.2019 05:33 23,3 C 5,9 C 9,4 C 45 % 95 % 82 % 1018,1 hPa 0,0 l/m 0,0 km/h (0 Bft) N 0 0,000 mm 5,2 C 5,9 C 0,0 km/h (0 Bft) 100,00 %
18.10.2019 05:32 23,3 C 5,9 C 9,4 C 46 % 95 % 82 % 1018,1 hPa 0,0 l/m 0,0 km/h (0 Bft) N 0 0,000 mm 5,2 C 5,9 C 0,0 km/h (0 Bft) 95,65 %
18.10.2019 05:31 23,3 C 5,9 C 9,4 C 46 % 95 % 82 % 1018,1 hPa 0,0 l/m 0,0 km/h (0 Bft) N 0 0,000 mm 5,2 C 5,9 C 0,0 km/h (0 Bft) 100,00 %
18.10.2019 05:30 23,3 C 6,0 C 9,4 C 46 % 95 % 82 % 1018,1 hPa 0,0 l/m 0,0 km/h (0 Bft) N 0 0,000 mm 5,3 C 6,0 C 0,0 km/h (0 Bft) 95,65 %
18.10.2019 05:29 23,2 C 6,0 C 9,4 C 46 % 95 % 82 % 1018,0 hPa 0,0 l/m 0,0 km/h (0 Bft) N 0 0,000 mm 5,3 C 6,0 C 0,0 km/h (0 Bft) 100,00 %
18.10.2019 05:28 23,3 C 6,0 C 9,4 C 45 % 95 % 82 % 1018,1 hPa 0,0 l/m 0,0 km/h (0 Bft) N 0 0,000 mm 5,3 C 6,0 C 0,0 km/h (0 Bft) 100,00 %
18.10.2019 05:27 23,3 C 6,1 C 9,4 C 45 % 95 % 82 % 1018,1 hPa 0,0 l/m 0,0 km/h (0 Bft) N 0 0,000 mm 5,4 C 6,1 C 0,0 km/h (0 Bft) 95,65 %
18.10.2019 05:26 23,3 C 6,1 C 9,4 C 45 % 95 % 82 % 1018,1 hPa 0,0 l/m 0,0 km/h (0 Bft) N 0 0,000 mm 5,4 C 6,1 C 0,0 km/h (0 Bft) 95,65 %
18.10.2019 05:25 23,3 C 6,1 C 9,4 C 45 % 96 % 82 % 1018,0 hPa 0,0 l/m 0,0 km/h (0 Bft) N 0 0,000 mm 5,5 C 6,1 C 0,0 km/h (0 Bft) 100,00 %
18.10.2019 05:24 23,3 C 6,1 C 9,4 C 45 % 96 % 82 % 1018,1 hPa 0,0 l/m 0,0 km/h (0 Bft) N 0 0,000 mm 5,5 C 6,1 C 0,0 km/h (0 Bft) 95,65 %
18.10.2019 05:23 23,3 C 6,1 C 9,4 C 45 % 95 % 82 % 1018,1 hPa 0,0 l/m 0,0 km/h (0 Bft) N 0 0,000 mm 5,4 C 6,1 C 0,0 km/h (0 Bft) 100,00 %
18.10.2019 05:22 23,3 C 6,1 C 9,4 C 45 % 96 % 82 % 1018,1 hPa 0,0 l/m 0,0 km/h (0 Bft) N 0 0,000 mm 5,5 C 6,1 C 0,0 km/h (0 Bft) 95,65 %
18.10.2019 05:21 23,3 C 6,1 C 9,4 C 45 % 96 % 82 % 1018,0 hPa 0,0 l/m 0,0 km/h (0 Bft) N 0 0,000 mm 5,5 C 6,1 C 0,0 km/h (0 Bft) 95,65 %
18.10.2019 05:20 23,3 C 6,1 C 9,4 C 45 % 96 % 82 % 1018,0 hPa 0,0 l/m 0,0 km/h (0 Bft) N 0 0,000 mm 5,5 C 6,1 C 0,0 km/h (0 Bft) 95,65 %
18.10.2019 05:19 23,3 C 6,1 C 9,4 C 45 % 96 % 82 % 1018,1 hPa 0,0 l/m 0,0 km/h (0 Bft) N 0 0,000 mm 5,5 C 6,1 C 0,0 km/h (0 Bft) 95,65 %
18.10.2019 05:18 23,3 C 6,2 C 9,4 C 45 % 96 % 82 % 1018,2 hPa 0,0 l/m 0,0 km/h (0 Bft) N 0 0,000 mm 5,6 C 6,2 C 0,0 km/h (0 Bft) 95,65 %
18.10.2019 05:17 23,3 C 6,2 C 9,4 C 45 % 96 % 82 % 1018,1 hPa 0,0 l/m 0,0 km/h (0 Bft) N 0 0,000 mm 5,6 C 6,2 C 0,0 km/h (0 Bft) 95,65 %
18.10.2019 05:16 23,3 C 6,2 C 9,4 C 45 % 96 % 82 % 1018,1 hPa 0,0 l/m 0,0 km/h (0 Bft) N 0 0,000 mm 5,6 C 6,2 C 0,0 km/h (0 Bft) 95,65 %
18.10.2019 05:15 23,3 C 6,2 C 9,4 C 45 % 96 % 82 % 1018,1 hPa 0,0 l/m 0,0 km/h (0 Bft) N 0 0,000 mm 5,6 C 6,2 C 0,0 km/h (0 Bft) 95,65 %
18.10.2019 05:14 23,3 C 6,2 C 9,4 C 45 % 96 % 82 % 1018,0 hPa 0,0 l/m 0,0 km/h (0 Bft) N 0 0,000 mm 5,6 C 6,2 C 0,0 km/h (0 Bft) 100,00 %
18.10.2019 05:13 23,3 C 6,2 C 9,4 C 45 % 96 % 82 % 1018,2 hPa 0,0 l/m 0,0 km/h (0 Bft) N 0 0,000 mm 5,6 C 6,2 C 0,0 km/h (0 Bft) 91,30 %
18.10.2019 05:12 23,3 C 6,2 C 9,4 C 46 % 96 % 82 % 1018,0 hPa 0,0 l/m 0,0 km/h (0 Bft) N 0 0,000 mm 5,6 C 6,2 C 0,0 km/h (0 Bft) 95,65 %
18.10.2019 05:11 23,3 C 6,3 C 9,4 C 45 % 96 % 82 % 1018,1 hPa 0,0 l/m 0,0 km/h (0 Bft) N 0 0,000 mm 5,7 C 6,3 C 0,0 km/h (0 Bft) 100,00 %
18.10.2019 05:10 23,3 C 6,3 C 9,4 C 45 % 96 % 82 % 1018,0 hPa 0,0 l/m 0,0 km/h (0 Bft) SW 225 0,000 mm 5,7 C 6,3 C 1,6 km/h (1 Bft) 91,30 %
18.10.2019 05:09 23,3 C 6,3 C 9,4 C 45 % 96 % 82 % 1018,2 hPa 0,0 l/m 0,0 km/h (0 Bft) SW 225 0,000 mm 5,7 C 6,3 C 1,6 km/h (1 Bft) 100,00 %
18.10.2019 05:08 23,3 C 6,3 C 9,4 C 45 % 96 % 82 % 1018,1 hPa 0,0 l/m 1,6 km/h (1 Bft) SW 225 0,000 mm 5,7 C 6,3 C 3,2 km/h (1 Bft) 95,65 %
18.10.2019 05:07 23,3 C 6,3 C 9,4 C 45 % 96 % 82 % 1018,0 hPa 0,0 l/m 1,6 km/h (1 Bft) SW 225 0,000 mm 5,7 C 6,3 C 3,2 km/h (1 Bft) 95,65 %
18.10.2019 05:06 23,3 C 6,3 C 9,4 C 45 % 96 % 82 % 1018,2 hPa 0,0 l/m 1,6 km/h (1 Bft) SW 225 0,000 mm 5,7 C 6,3 C 4,8 km/h (1 Bft) 86,96 %
18.10.2019 05:05 23,3 C 6,3 C 9,4 C 45 % 96 % 82 % 1018,1 hPa 0,0 l/m 1,6 km/h (1 Bft) SW 225 0,000 mm 5,7 C 6,3 C 3,2 km/h (1 Bft) 100,00 %
18.10.2019 05:04 23,3 C 6,3 C 9,4 C 45 % 96 % 82 % 1018,2 hPa 0,0 l/m 1,6 km/h (1 Bft) SW 225 0,000 mm 5,7 C 6,3 C 3,2 km/h (1 Bft) 95,65 %
18.10.2019 05:03 23,3 C 6,3 C 9,4 C 45 % 96 % 82 % 1018,0 hPa 0,0 l/m 1,6 km/h (1 Bft) SW 225 0,000 mm 5,7 C 6,3 C 3,2 km/h (1 Bft) 95,65 %
18.10.2019 05:02 23,3 C 6,3 C 9,4 C 45 % 96 % 82 % 1018,0 hPa 0,0 l/m 1,6 km/h (1 Bft) SW 225 0,000 mm 5,7 C 6,3 C 3,2 km/h (1 Bft) 100,00 %
18.10.2019 05:01 23,3 C 6,3 C 9,4 C 45 % 96 % 82 % 1018,1 hPa 0,0 l/m 1,6 km/h (1 Bft) SW 225 0,000 mm 5,7 C 6,3 C 1,6 km/h (1 Bft) 91,30 %
18.10.2019 05:00 23,3 C 6,3 C 9,4 C 45 % 96 % 82 % 1018,1 hPa 0,0 l/m 1,6 km/h (1 Bft) SW 225 0,000 mm 5,7 C 6,3 C 3,2 km/h (1 Bft) 100,00 %
18.10.2019 04:59 23,3 C 6,2 C 9,4 C 45 % 96 % 82 % 1018,1 hPa 0,0 l/m 1,6 km/h (1 Bft) SW 225 0,000 mm 5,6 C 6,2 C 3,2 km/h (1 Bft) 95,65 %
18.10.2019 04:58 23,3 C 6,2 C 9,4 C 45 % 96 % 82 % 1018,1 hPa 0,0 l/m 1,6 km/h (1 Bft) SW 225 0,000 mm 5,6 C 6,2 C 3,2 km/h (1 Bft) 100,00 %
18.10.2019 04:57 23,3 C 6,2 C 9,4 C 45 % 96 % 82 % 1018,2 hPa 0,0 l/m 1,6 km/h (1 Bft) SW 225 0,000 mm 5,6 C 6,2 C 3,2 km/h (1 Bft) 100,00 %
18.10.2019 04:56 23,3 C 6,2 C 9,4 C 45 % 96 % 82 % 1018,0 hPa 0,0 l/m 1,6 km/h (1 Bft) SW 225 0,000 mm 5,6 C 6,2 C 4,8 km/h (1 Bft) 100,00 %
18.10.2019 04:55 23,3 C 6,2 C 9,4 C 45 % 96 % 82 % 1018,2 hPa 0,0 l/m 1,6 km/h (1 Bft) SW 225 0,000 mm 5,6 C 6,2 C 3,2 km/h (1 Bft) 100,00 %
18.10.2019 04:54 23,3 C 6,2 C 9,4 C 45 % 96 % 82 % 1018,0 hPa 0,0 l/m 3,2 km/h (1 Bft) SW 225 0,000 mm 5,6 C 6,2 C 4,8 km/h (1 Bft) 100,00 %
18.10.2019 04:53 23,3 C 6,2 C 9,4 C 45 % 96 % 82 % 1018,1 hPa 0,0 l/m 1,6 km/h (1 Bft) SW 225 0,000 mm 5,6 C 6,2 C 3,2 km/h (1 Bft) 100,00 %
18.10.2019 04:52 23,3 C 6,2 C 9,4 C 45 % 96 % 82 % 1018,1 hPa 0,0 l/m 3,2 km/h (1 Bft) SW 225 0,000 mm 5,6 C 6,2 C 4,8 km/h (1 Bft) 95,65 %
18.10.2019 04:51 23,3 C 6,2 C 9,4 C 45 % 96 % 82 % 1018,0 hPa 0,0 l/m 3,2 km/h (1 Bft) SW 225 0,000 mm 5,6 C 6,2 C 4,8 km/h (1 Bft) 100,00 %
18.10.2019 04:50 23,3 C 6,2 C 9,4 C 45 % 96 % 82 % 1018,1 hPa 0,0 l/m 3,2 km/h (1 Bft) SW 225 0,000 mm 5,6 C 6,2 C 4,8 km/h (1 Bft) 100,00 %
18.10.2019 04:49 23,3 C 6,2 C 9,4 C 45 % 96 % 82 % 1018,0 hPa 0,0 l/m 3,2 km/h (1 Bft) SW 225 0,000 mm 5,6 C 6,2 C 4,8 km/h (1 Bft) 100,00 %
18.10.2019 04:48 23,3 C 6,2 C 9,4 C 45 % 96 % 82 % 1018,0 hPa 0,0 l/m 1,6 km/h (1 Bft) SW 225 0,000 mm 5,6 C 6,2 C 3,2 km/h (1 Bft) 100,00 %
18.10.2019 04:47 23,3 C 6,2 C 9,4 C 45 % 95 % 82 % 1018,0 hPa 0,0 l/m 1,6 km/h (1 Bft) SW 225 0,000 mm 5,5 C 6,2 C 3,2 km/h (1 Bft) 100,00 %
18.10.2019 04:46 23,3 C 6,2 C 9,4 C 45 % 96 % 82 % 1018,0 hPa 0,0 l/m 0,0 km/h (0 Bft) SW 225 0,000 mm 5,6 C 6,2 C 1,6 km/h (1 Bft) 95,65 %
18.10.2019 04:45 23,3 C 6,3 C 9,4 C 45 % 96 % 82 % 1018,0 hPa 0,0 l/m 1,6 km/h (1 Bft) SW 225 0,000 mm 5,7 C 6,3 C 3,2 km/h (1 Bft) 95,65 %
18.10.2019 04:44 23,3 C 6,3 C 9,4 C 45 % 95 % 82 % 1018,0 hPa 0,0 l/m 1,6 km/h (1 Bft) SW 225 0,000 mm 5,6 C 6,3 C 3,2 km/h (1 Bft) 100,00 %
18.10.2019 04:43 23,3 C 6,3 C 9,4 C 45 % 95 % 82 % 1018,0 hPa 0,0 l/m 1,6 km/h (1 Bft) SW 225 0,000 mm 5,6 C 6,3 C 3,2 km/h (1 Bft) 95,65 %
18.10.2019 04:42 23,3 C 6,3 C 9,4 C 45 % 95 % 82 % 1017,9 hPa 0,0 l/m 0,0 km/h (0 Bft) SW 225 0,000 mm 5,6 C 6,3 C 1,6 km/h (1 Bft) 95,65 %
18.10.2019 04:41 23,3 C 6,3 C 9,4 C 45 % 95 % 82 % 1018,0 hPa 0,0 l/m 1,6 km/h (1 Bft) SW 225 0,000 mm 5,6 C 6,3 C 1,6 km/h (1 Bft) 91,30 %
18.10.2019 04:40 23,4 C 6,3 C 9,4 C 45 % 95 % 82 % 1017,9 hPa 0,0 l/m 1,6 km/h (1 Bft) SW 225 0,000 mm 5,6 C 6,3 C 1,6 km/h (1 Bft) 100,00 %
18.10.2019 04:39 23,4 C 6,3 C 9,4 C 45 % 95 % 82 % 1017,9 hPa 0,0 l/m 1,6 km/h (1 Bft) SW 225 0,000 mm 5,6 C 6,3 C 1,6 km/h (1 Bft) 95,65 %
18.10.2019 04:38 23,4 C 6,3 C 9,4 C 45 % 95 % 82 % 1018,0 hPa 0,0 l/m 1,6 km/h (1 Bft) SW 225 0,000 mm 5,6 C 6,3 C 1,6 km/h (1 Bft) 91,30 %
18.10.2019 04:37 23,3 C 6,3 C 9,4 C 45 % 95 % 82 % 1017,9 hPa 0,0 l/m 1,6 km/h (1 Bft) SW 225 0,000 mm 5,6 C 6,3 C 3,2 km/h (1 Bft) 95,65 %
18.10.2019 04:36 23,4 C 6,3 C 9,4 C 45 % 95 % 82 % 1017,9 hPa 0,0 l/m 1,6 km/h (1 Bft) SW 225 0,000 mm 5,6 C 6,3 C 3,2 km/h (1 Bft) 100,00 %
18.10.2019 04:35 23,3 C 6,3 C 9,4 C 45 % 95 % 82 % 1017,9 hPa 0,0 l/m 3,2 km/h (1 Bft) SW 225 0,000 mm 5,6 C 6,3 C 3,2 km/h (1 Bft) 95,65 %
18.10.2019 04:34 23,4 C 6,3 C 9,4 C 45 % 95 % 82 % 1017,9 hPa 0,0 l/m 1,6 km/h (1 Bft) SW 225 0,000 mm 5,6 C 6,3 C 3,2 km/h (1 Bft) 100,00 %
18.10.2019 04:33 23,4 C 6,3 C 9,4 C 45 % 95 % 82 % 1017,9 hPa 0,0 l/m 1,6 km/h (1 Bft) SW 225 0,000 mm 5,6 C 6,3 C 3,2 km/h (1 Bft) 100,00 %
18.10.2019 04:32 23,4 C 6,3 C 9,4 C 45 % 95 % 82 % 1017,9 hPa 0,0 l/m 1,6 km/h (1 Bft) SW 225 0,000 mm 5,6 C 6,3 C 1,6 km/h (1 Bft) 100,00 %
18.10.2019 04:31 23,4 C 6,3 C 9,4 C 45 % 95 % 82 % 1017,9 hPa 0,0 l/m 0,0 km/h (0 Bft) SW 225 0,000 mm 5,6 C 6,3 C 1,6 km/h (1 Bft) 95,65 %
18.10.2019 04:30 23,4 C 6,3 C 9,4 C 45 % 95 % 82 % 1017,9 hPa 0,0 l/m 0,0 km/h (0 Bft) SW 225 0,000 mm 5,6 C 6,3 C 1,6 km/h (1 Bft) 100,00 %
18.10.2019 04:29 23,4 C 6,4 C 9,4 C 45 % 96 % 82 % 1017,9 hPa 0,0 l/m 0,0 km/h (0 Bft) SW 225 0,000 mm 5,8 C 6,4 C 1,6 km/h (1 Bft) 100,00 %
18.10.2019 04:28 23,4 C 6,3 C 9,4 C 45 % 96 % 82 % 1017,8 hPa 0,0 l/m 0,0 km/h (0 Bft) SW 225 0,000 mm 5,7 C 6,3 C 1,6 km/h (1 Bft) 95,65 %
18.10.2019 04:27 23,4 C 6,4 C 9,4 C 45 % 96 % 82 % 1017,9 hPa 0,0 l/m 1,6 km/h (1 Bft) SW 225 0,000 mm 5,8 C 6,4 C 3,2 km/h (1 Bft) 100,00 %
18.10.2019 04:26 23,4 C 6,3 C 10,0 C 45 % 96 % 82 % 1017,9 hPa 0,0 l/m 1,6 km/h (1 Bft) SW 225 0,000 mm 5,7 C 6,3 C 3,2 km/h (1 Bft) 100,00 %
18.10.2019 04:25 23,4 C 6,3 C 10,0 C 45 % 96 % 82 % 1017,9 hPa 0,0 l/m 1,6 km/h (1 Bft) SW 225 0,000 mm 5,7 C 6,3 C 3,2 km/h (1 Bft) 95,65 %
18.10.2019 04:24 23,4 C 6,3 C 10,0 C 45 % 96 % 82 % 1017,9 hPa 0,0 l/m 3,2 km/h (1 Bft) SW 225 0,000 mm 5,7 C 6,3 C 3,2 km/h (1 Bft) 91,30 %
18.10.2019 04:23 23,4 C 6,3 C 10,0 C 45 % 95 % 82 % 1017,9 hPa 0,0 l/m 1,6 km/h (1 Bft) SW 225 0,000 mm 5,6 C 6,3 C 3,2 km/h (1 Bft) 100,00 %
18.10.2019 04:22 23,4 C 6,3 C 10,0 C 45 % 95 % 82 % 1017,9 hPa 0,0 l/m 3,2 km/h (1 Bft) SW 225 0,000 mm 5,6 C 6,3 C 3,2 km/h (1 Bft) 100,00 %
18.10.2019 04:21 23,4 C 6,2 C 10,0 C 45 % 95 % 82 % 1017,9 hPa 0,0 l/m 3,2 km/h (1 Bft) SW 225 0,000 mm 5,5 C 6,2 C 3,2 km/h (1 Bft) 100,00 %
18.10.2019 04:20 23,4 C 6,3 C 10,0 C 45 % 95 % 82 % 1017,9 hPa 0,0 l/m 3,2 km/h (1 Bft) SW 225 0,000 mm 5,6 C 6,3 C 3,2 km/h (1 Bft) 95,65 %
18.10.2019 04:19 23,4 C 6,2 C 10,0 C 45 % 95 % 82 % 1017,9 hPa 0,0 l/m 1,6 km/h (1 Bft) SW 225 0,000 mm 5,5 C 6,2 C 3,2 km/h (1 Bft) 100,00 %
18.10.2019 04:18 23,4 C 6,2 C 10,0 C 45 % 95 % 82 % 1017,9 hPa 0,0 l/m 3,2 km/h (1 Bft) SW 225 0,000 mm 5,5 C 6,2 C 3,2 km/h (1 Bft) 100,00 %
18.10.2019 04:17 23,4 C 6,3 C 10,0 C 45 % 95 % 82 % 1017,9 hPa 0,0 l/m 3,2 km/h (1 Bft) SW 225 0,000 mm 5,6 C 6,3 C 3,2 km/h (1 Bft) 95,65 %
18.10.2019 04:16 23,4 C 6,3 C 10,0 C 45 % 95 % 82 % 1017,9 hPa 0,0 l/m 3,2 km/h (1 Bft) SW 225 0,000 mm 5,6 C 6,3 C 4,8 km/h (1 Bft) 95,65 %
18.10.2019 04:15 23,4 C 6,3 C 10,0 C 45 % 95 % 81 % 1017,9 hPa 0,0 l/m 3,2 km/h (1 Bft) SW 225 0,000 mm 5,6 C 6,3 C 3,2 km/h (1 Bft) 100,00 %
18.10.2019 04:14 23,4 C 6,3 C 10,0 C 45 % 95 % 81 % 1017,9 hPa 0,0 l/m 1,6 km/h (1 Bft) SW 225 0,000 mm 5,6 C 6,3 C 3,2 km/h (1 Bft) 95,65 %
18.10.2019 04:13 23,4 C 6,3 C 10,0 C 45 % 95 % 81 % 1017,9 hPa 0,0 l/m 1,6 km/h (1 Bft) SW 225 0,000 mm 5,6 C 6,3 C 3,2 km/h (1 Bft) 100,00 %
18.10.2019 04:12 23,4 C 6,3 C 10,0 C 45 % 95 % 81 % 1017,9 hPa 0,0 l/m 0,0 km/h (0 Bft) SW 225 0,000 mm 5,6 C 6,3 C 1,6 km/h (1 Bft) 100,00 %
18.10.2019 04:11 23,4 C 6,3 C 10,0 C 45 % 95 % 81 % 1017,9 hPa 0,0 l/m 0,0 km/h (0 Bft) N 0 0,000 mm 5,6 C 6,3 C 0,0 km/h (0 Bft) 100,00 %
18.10.2019 04:10 23,4 C 6,3 C 10,0 C 45 % 95 % 81 % 1017,9 hPa 0,0 l/m 0,0 km/h (0 Bft) N 0 0,000 mm 5,6 C 6,3 C 0,0 km/h (0 Bft) 91,30 %
18.10.2019 04:09 23,4 C 6,3 C 10,0 C 45 % 95 % 81 % 1017,8 hPa 0,0 l/m 0,0 km/h (0 Bft) SW 225 0,000 mm 5,6 C 6,3 C 1,6 km/h (1 Bft) 95,65 %
18.10.2019 04:08 23,4 C 6,3 C 10,0 C 45 % 95 % 81 % 1017,8 hPa 0,0 l/m 0,0 km/h (0 Bft) SW 225 0,000 mm 5,6 C 6,3 C 1,6 km/h (1 Bft) 95,65 %
18.10.2019 04:07 23,4 C 6,3 C 10,0 C 45 % 95 % 81 % 1017,8 hPa 0,0 l/m 0,0 km/h (0 Bft) N 0 0,000 mm 5,6 C 6,3 C 0,0 km/h (0 Bft) 91,30 %
18.10.2019 04:06 23,4 C 6,3 C 10,0 C 45 % 95 % 81 % 1017,8 hPa 0,0 l/m 0,0 km/h (0 Bft) SW 225 0,000 mm 5,6 C 6,3 C 1,6 km/h (1 Bft) 100,00 %
18.10.2019 04:05 23,4 C 6,3 C 10,0 C 45 % 95 % 81 % 1017,8 hPa 0,0 l/m 0,0 km/h (0 Bft) N 0 0,000 mm 5,6 C 6,3 C 0,0 km/h (0 Bft) 95,65 %
18.10.2019 04:04 23,4 C 6,3 C 10,0 C 45 % 95 % 81 % 1017,7 hPa 0,0 l/m 0,0 km/h (0 Bft) N 0 0,000 mm 5,6 C 6,3 C 0,0 km/h (0 Bft) 95,65 %
18.10.2019 04:03 23,4 C 6,3 C 10,0 C 45 % 95 % 81 % 1017,7 hPa 0,0 l/m 0,0 km/h (0 Bft) N 0 0,000 mm 5,6 C 6,3 C 0,0 km/h (0 Bft) 91,30 %
18.10.2019 04:02 23,4 C 6,3 C 10,0 C 45 % 95 % 81 % 1017,7 hPa 0,0 l/m 0,0 km/h (0 Bft) N 0 0,000 mm 5,6 C 6,3 C 0,0 km/h (0 Bft) 95,65 %
18.10.2019 04:01 23,4 C 6,3 C 10,0 C 45 % 95 % 81 % 1017,6 hPa 0,0 l/m 0,0 km/h (0 Bft) SW 225 0,000 mm 5,6 C 6,3 C 1,6 km/h (1 Bft) 95,65 %
18.10.2019 04:00 23,4 C 6,3 C 10,0 C 45 % 95 % 81 % 1017,8 hPa 0,0 l/m 0,0 km/h (0 Bft) SW 225 0,000 mm 5,6 C 6,3 C 1,6 km/h (1 Bft) 95,65 %
18.10.2019 03:59 23,4 C 6,4 C 10,0 C 45 % 95 % 81 % 1017,7 hPa 0,0 l/m 1,6 km/h (1 Bft) SW 225 0,000 mm 5,7 C 6,4 C 3,2 km/h (1 Bft) 95,65 %
18.10.2019 03:58 23,4 C 6,3 C 10,0 C 45 % 95 % 81 % 1017,8 hPa 0,0 l/m 1,6 km/h (1 Bft) SW 225 0,000 mm 5,6 C 6,3 C 1,6 km/h (1 Bft) 100,00 %
18.10.2019 03:57 23,4 C 6,4 C 10,0 C 45 % 95 % 81 % 1017,7 hPa 0,0 l/m 1,6 km/h (1 Bft) SW 225 0,000 mm 5,7 C 6,4 C 1,6 km/h (1 Bft) 91,30 %
18.10.2019 03:56 23,5 C 6,4 C 10,0 C 45 % 95 % 81 % 1017,7 hPa 0,0 l/m 0,0 km/h (0 Bft) SW 225 0,000 mm 5,7 C 6,4 C 1,6 km/h (1 Bft) 95,65 %
18.10.2019 03:55 23,4 C 6,4 C 10,0 C 45 % 95 % 81 % 1017,8 hPa 0,0 l/m 1,6 km/h (1 Bft) SW 225 0,000 mm 5,7 C 6,4 C 3,2 km/h (1 Bft) 95,65 %
18.10.2019 03:54 23,5 C 6,4 C 10,0 C 45 % 95 % 82 % 1017,9 hPa 0,0 l/m 0,0 km/h (0 Bft) SW 225 0,000 mm 5,7 C 6,4 C 3,2 km/h (1 Bft) 95,65 %
18.10.2019 03:53 23,4 C 6,4 C 10,0 C 45 % 95 % 82 % 1017,8 hPa 0,0 l/m 0,0 km/h (0 Bft) SW 225 0,000 mm 5,7 C 6,4 C 1,6 km/h (1 Bft) 91,30 %
18.10.2019 03:52 23,5 C 6,4 C 10,0 C 45 % 95 % 82 % 1017,8 hPa 0,0 l/m 0,0 km/h (0 Bft) SW 225 0,000 mm 5,7 C 6,4 C 1,6 km/h (1 Bft) 100,00 %
18.10.2019 03:51 23,5 C 6,4 C 10,0 C 45 % 95 % 82 % 1017,7 hPa 0,0 l/m 1,6 km/h (1 Bft) SW 225 0,000 mm 5,7 C 6,4 C 1,6 km/h (1 Bft) 91,30 %
18.10.2019 03:50 23,5 C 6,5 C 10,0 C 45 % 95 % 81 % 1017,8 hPa 0,0 l/m 1,6 km/h (1 Bft) SW 225 0,000 mm 5,8 C 6,5 C 3,2 km/h (1 Bft) 95,65 %
18.10.2019 03:49 23,5 C 6,5 C 10,0 C 45 % 95 % 81 % 1017,8 hPa 0,0 l/m 1,6 km/h (1 Bft) SW 225 0,000 mm 5,8 C 6,5 C 3,2 km/h (1 Bft) 91,30 %
18.10.2019 03:48 23,5 C 6,5 C 10,0 C 45 % 95 % 81 % 1017,9 hPa 0,0 l/m 0,0 km/h (0 Bft) SW 225 0,000 mm 5,8 C 6,5 C 1,6 km/h (1 Bft) 95,65 %
18.10.2019 03:47 23,5 C 6,5 C 10,0 C 45 % 95 % 81 % 1017,7 hPa 0,0 l/m 1,6 km/h (1 Bft) SW 225 0,000 mm 5,8 C 6,5 C 3,2 km/h (1 Bft) 95,65 %
18.10.2019 03:46 23,5 C 6,6 C 10,0 C 45 % 95 % 81 % 1017,7 hPa 0,0 l/m 3,2 km/h (1 Bft) SW 225 0,000 mm 5,9 C 6,6 C 4,8 km/h (1 Bft) 91,30 %
18.10.2019 03:45 23,5 C 6,6 C 10,0 C 45 % 95 % 81 % 1017,8 hPa 0,0 l/m 1,6 km/h (1 Bft) SW 225 0,000 mm 5,9 C 6,6 C 3,2 km/h (1 Bft) 95,65 %
18.10.2019 03:44 23,5 C 6,5 C 10,0 C 45 % 95 % 81 % 1017,7 hPa 0,0 l/m 1,6 km/h (1 Bft) SW 225 0,000 mm 5,8 C 6,5 C 3,2 km/h (1 Bft) 91,30 %
18.10.2019 03:43 23,5 C 6,6 C 10,0 C 45 % 95 % 81 % 1017,7 hPa 0,0 l/m 1,6 km/h (1 Bft) SW 225 0,000 mm 5,9 C 6,6 C 3,2 km/h (1 Bft) 100,00 %
18.10.2019 03:42 23,6 C 6,6 C 10,0 C 45 % 95 % 81 % 1017,7 hPa 0,0 l/m 1,6 km/h (1 Bft) SW 225 0,000 mm 5,9 C 6,6 C 3,2 km/h (1 Bft) 82,61 %
18.10.2019 03:41 23,5 C 6,6 C 10,0 C 45 % 95 % 81 % 1017,7 hPa 0,0 l/m 1,6 km/h (1 Bft) SW 225 0,000 mm 5,9 C 6,6 C 1,6 km/h (1 Bft) 100,00 %
18.10.2019 03:40 23,5 C 6,6 C 10,0 C 45 % 95 % 81 % 1017,8 hPa 0,0 l/m 0,0 km/h (0 Bft) SW 225 0,000 mm 5,9 C 6,6 C 1,6 km/h (1 Bft) 91,30 %
18.10.2019 03:39 23,5 C 6,6 C 10,0 C 45 % 95 % 81 % 1017,8 hPa 0,0 l/m 1,6 km/h (1 Bft) SW 225 0,000 mm 5,9 C 6,6 C 3,2 km/h (1 Bft) 100,00 %
18.10.2019 03:38 23,5 C 6,6 C 10,0 C 45 % 95 % 81 % 1018,0 hPa 0,0 l/m 1,6 km/h (1 Bft) SW 225 0,000 mm 5,9 C 6,6 C 3,2 km/h (1 Bft) 91,30 %
18.10.2019 03:37 23,5 C 6,6 C 10,0 C 45 % 95 % 81 % 1017,9 hPa 0,0 l/m 0,0 km/h (0 Bft) SW 225 0,000 mm 5,9 C 6,6 C 1,6 km/h (1 Bft) 95,65 %
18.10.2019 03:36 23,6 C 6,6 C 10,0 C 45 % 95 % 81 % 1018,0 hPa 0,0 l/m 1,6 km/h (1 Bft) SW 225 0,000 mm 5,9 C 6,6 C 3,2 km/h (1 Bft) 91,30 %
18.10.2019 03:35 23,5 C 6,6 C 10,0 C 45 % 95 % 81 % 1017,8 hPa 0,0 l/m 1,6 km/h (1 Bft) SW 225 0,000 mm 5,9 C 6,6 C 3,2 km/h (1 Bft) 86,96 %
18.10.2019 03:34 23,6 C 6,6 C 10,0 C 45 % 95 % 81 % 1017,8 hPa 0,0 l/m 0,0 km/h (0 Bft) SW 225 0,000 mm 5,9 C 6,6 C 1,6 km/h (1 Bft) 95,65 %
18.10.2019 03:33 23,6 C 6,7 C 10,0 C 45 % 95 % 81 % 1017,8 hPa 0,0 l/m 0,0 km/h (0 Bft) N 0 0,000 mm 6,0 C 6,7 C 0,0 km/h (0 Bft) 91,30 %
18.10.2019 03:32 23,6 C 6,6 C 10,0 C 45 % 95 % 81 % 1017,9 hPa 0,0 l/m 0,0 km/h (0 Bft) SW 225 0,000 mm 5,9 C 6,6 C 1,6 km/h (1 Bft) 95,65 %
18.10.2019 03:31 23,5 C 6,6 C 10,0 C 45 % 95 % 81 % 1018,0 hPa 0,0 l/m 1,6 km/h (1 Bft) SW 225 0,000 mm 5,9 C 6,6 C 3,2 km/h (1 Bft) 91,30 %
18.10.2019 03:30 23,6 C 6,7 C 10,0 C 45 % 95 % 81 % 1018,0 hPa 0,0 l/m 1,6 km/h (1 Bft) SW 225 0,000 mm 6,0 C 6,7 C 3,2 km/h (1 Bft) 100,00 %
18.10.2019 03:29 23,6 C 6,6 C 10,0 C 45 % 95 % 81 % 1017,9 hPa 0,0 l/m 1,6 km/h (1 Bft) SW 225 0,000 mm 5,9 C 6,6 C 3,2 km/h (1 Bft) 91,30 %
18.10.2019 03:28 23,6 C 6,7 C 10,0 C 45 % 95 % 81 % 1018,0 hPa 0,0 l/m 3,2 km/h (1 Bft) SW 225 0,000 mm 6,0 C 6,7 C 4,8 km/h (1 Bft) 95,65 %
18.10.2019 03:27 23,6 C 6,7 C 10,0 C 45 % 95 % 81 % 1018,0 hPa 0,0 l/m 3,2 km/h (1 Bft) SW 225 0,000 mm 6,0 C 6,7 C 4,8 km/h (1 Bft) 95,65 %
18.10.2019 03:26 23,6 C 6,7 C 10,0 C 45 % 95 % 81 % 1018,0 hPa 0,0 l/m 1,6 km/h (1 Bft) SW 225 0,000 mm 6,0 C 6,7 C 3,2 km/h (1 Bft) 100,00 %
18.10.2019 03:25 23,6 C 6,7 C 10,6 C 45 % 95 % 81 % 1017,9 hPa 0,0 l/m 1,6 km/h (1 Bft) SW 225 0,000 mm 6,0 C 6,7 C 3,2 km/h (1 Bft) 95,65 %
18.10.2019 03:24 23,6 C 6,7 C 10,6 C 45 % 95 % 81 % 1017,9 hPa 0,0 l/m 1,6 km/h (1 Bft) SW 225 0,000 mm 6,0 C 6,7 C 3,2 km/h (1 Bft) 100,00 %
18.10.2019 03:23 23,6 C 6,7 C 10,6 C 45 % 95 % 81 % 1017,9 hPa 0,0 l/m 1,6 km/h (1 Bft) SW 225 0,000 mm 6,0 C 6,7 C 3,2 km/h (1 Bft) 91,30 %
18.10.2019 03:22 23,6 C 6,7 C 10,6 C 45 % 95 % 81 % 1017,9 hPa 0,0 l/m 1,6 km/h (1 Bft) SW 225 0,000 mm 6,0 C 6,7 C 3,2 km/h (1 Bft) 100,00 %
18.10.2019 03:21 23,6 C 6,7 C 10,6 C 45 % 95 % 81 % 1017,8 hPa 0,0 l/m 1,6 km/h (1 Bft) SW 225 0,000 mm 6,0 C 6,7 C 3,2 km/h (1 Bft) 91,30 %
18.10.2019 03:20 23,6 C 6,8 C 10,6 C 45 % 95 % 81 % 1018,0 hPa 0,0 l/m 0,0 km/h (0 Bft) SW 225 0,000 mm 6,1 C 6,8 C 1,6 km/h (1 Bft) 100,00 %
18.10.2019 03:19 23,6 C 6,8 C 10,6 C 45 % 95 % 81 % 1018,0 hPa 0,0 l/m 0,0 km/h (0 Bft) SW 225 0,000 mm 6,1 C 6,8 C 1,6 km/h (1 Bft) 91,30 %
18.10.2019 03:18 23,6 C 6,8 C 10,6 C 45 % 95 % 81 % 1018,0 hPa 0,0 l/m 1,6 km/h (1 Bft) SW 225 0,000 mm 6,1 C 6,8 C 1,6 km/h (1 Bft) 95,65 %
18.10.2019 03:17 23,6 C 6,8 C 10,6 C 45 % 95 % 81 % 1017,9 hPa 0,0 l/m 0,0 km/h (0 Bft) SW 225 0,000 mm 6,1 C 6,8 C 1,6 km/h (1 Bft) 95,65 %
18.10.2019 03:16 23,6 C 6,8 C 10,6 C 45 % 95 % 81 % 1017,9 hPa 0,0 l/m 0,0 km/h (0 Bft) N 0 0,000 mm 6,1 C 6,8 C 0,0 km/h (0 Bft) 91,30 %
18.10.2019 03:15 23,6 C 6,8 C 10,6 C 45 % 95 % 81 % 1017,9 hPa 0,0 l/m 0,0 km/h (0 Bft) N 0 0,000 mm 6,1 C 6,8 C 0,0 km/h (0 Bft) 100,00 %
18.10.2019 03:14 23,6 C 6,9 C 10,6 C 45 % 95 % 81 % 1018,0 hPa 0,0 l/m 0,0 km/h (0 Bft) SW 225 0,000 mm 6,2 C 6,9 C 1,6 km/h (1 Bft) 95,65 %
18.10.2019 03:13 23,6 C 6,9 C 10,6 C 45 % 95 % 81 % 1018,0 hPa 0,0 l/m 1,6 km/h (1 Bft) SW 225 0,000 mm 6,2 C 6,9 C 1,6 km/h (1 Bft) 95,65 %
18.10.2019 03:12 23,6 C 6,9 C 10,6 C 45 % 95 % 81 % 1018,0 hPa 0,0 l/m 1,6 km/h (1 Bft) SW 225 0,000 mm 6,2 C 6,9 C 3,2 km/h (1 Bft) 95,65 %
18.10.2019 03:11 23,6 C 6,9 C 10,6 C 45 % 95 % 81 % 1018,0 hPa 0,0 l/m 1,6 km/h (1 Bft) SW 225 0,000 mm 6,2 C 6,9 C 3,2 km/h (1 Bft) 100,00 %
18.10.2019 03:10 23,6 C 6,9 C 10,6 C 45 % 95 % 81 % 1018,0 hPa 0,0 l/m 1,6 km/h (1 Bft) SW 225 0,000 mm 6,2 C 6,9 C 3,2 km/h (1 Bft) 95,65 %
18.10.2019 03:09 23,6 C 7,0 C 10,6 C 45 % 95 % 81 % 1018,0 hPa 0,0 l/m 0,0 km/h (0 Bft) SW 225 0,000 mm 6,3 C 7,0 C 1,6 km/h (1 Bft) 100,00 %
18.10.2019 03:08 23,6 C 7,0 C 10,6 C 45 % 95 % 81 % 1018,0 hPa 0,0 l/m 0,0 km/h (0 Bft) SW 225 0,000 mm 6,3 C 7,0 C 1,6 km/h (1 Bft) 91,30 %
18.10.2019 03:07 23,6 C 7,0 C 10,6 C 45 % 95 % 81 % 1018,0 hPa 0,0 l/m 0,0 km/h (0 Bft) SW 225 0,000 mm 6,3 C 7,0 C 1,6 km/h (1 Bft) 95,65 %
18.10.2019 03:04 23,6 C 7,1 C 10,6 C 45 % 95 % 82 % 1018,0 hPa 0,0 l/m 0,0 km/h (0 Bft) SW 225 0,000 mm 6,4 C 7,1 C 1,6 km/h (1 Bft) 91,30 %
18.10.2019 03:03 23,6 C 7,1 C 10,6 C 45 % 95 % 82 % 1017,8 hPa 0,0 l/m 0,0 km/h (0 Bft) N 0 0,000 mm 6,4 C 7,1 C 0,0 km/h (0 Bft) 100,00 %
18.10.2019 03:02 23,6 C 7,1 C 10,6 C 45 % 95 % 82 % 1017,9 hPa 0,0 l/m 0,0 km/h (0 Bft) N 0 0,000 mm 6,4 C 7,1 C 0,0 km/h (0 Bft) 95,65 %
18.10.2019 03:01 23,6 C 7,1 C 10,6 C 45 % 95 % 82 % 1017,8 hPa 0,0 l/m 0,0 km/h (0 Bft) N 0 0,000 mm 6,4 C 7,1 C 0,0 km/h (0 Bft) 95,65 %
18.10.2019 03:00 23,6 C 7,2 C 10,6 C 45 % 95 % 82 % 1017,8 hPa 0,0 l/m 0,0 km/h (0 Bft) N 0 0,000 mm 6,5 C 7,2 C 0,0 km/h (0 Bft) 95,65 %
18.10.2019 02:59 23,6 C 7,2 C 10,6 C 45 % 95 % 82 % 1018,0 hPa 0,0 l/m 0,0 km/h (0 Bft) N 0 0,000 mm 6,5 C 7,2 C 0,0 km/h (0 Bft) 86,96 %
18.10.2019 02:58 23,6 C 7,2 C 10,6 C 45 % 95 % 82 % 1017,9 hPa 0,0 l/m 0,0 km/h (0 Bft) SW 225 0,000 mm 6,5 C 7,2 C 1,6 km/h (1 Bft) 100,00 %
18.10.2019 02:57 23,6 C 7,2 C 10,6 C 45 % 95 % 81 % 1017,9 hPa 0,0 l/m 0,0 km/h (0 Bft) SW 225 0,000 mm 6,5 C 7,2 C 1,6 km/h (1 Bft) 95,65 %
18.10.2019 02:56 23,6 C 7,2 C 10,6 C 45 % 95 % 82 % 1018,0 hPa 0,0 l/m 1,6 km/h (1 Bft) SW 225 0,000 mm 6,5 C 7,2 C 3,2 km/h (1 Bft) 100,00 %
18.10.2019 02:55 23,6 C 7,3 C 10,6 C 45 % 95 % 82 % 1017,9 hPa 0,0 l/m 1,6 km/h (1 Bft) SW 225 0,000 mm 6,6 C 7,3 C 3,2 km/h (1 Bft) 95,65 %
18.10.2019 02:54 23,6 C 7,2 C 10,6 C 45 % 95 % 82 % 1017,9 hPa 0,0 l/m 1,6 km/h (1 Bft) SW 225 0,000 mm 6,5 C 7,2 C 3,2 km/h (1 Bft) 100,00 %
18.10.2019 02:53 23,7 C 7,3 C 10,6 C 45 % 95 % 82 % 1018,0 hPa 0,0 l/m 0,0 km/h (0 Bft) SW 225 0,000 mm 6,6 C 7,3 C 1,6 km/h (1 Bft) 95,65 %
18.10.2019 02:52 23,7 C 7,3 C 10,6 C 45 % 95 % 82 % 1018,0 hPa 0,0 l/m 0,0 km/h (0 Bft) N 0 0,000 mm 6,6 C 7,3 C 0,0 km/h (0 Bft) 95,65 %
18.10.2019 02:51 23,7 C 7,3 C 10,6 C 45 % 95 % 82 % 1017,8 hPa 0,0 l/m 0,0 km/h (0 Bft) SW 225 0,000 mm 6,6 C 7,3 C 1,6 km/h (1 Bft) 91,30 %
18.10.2019 02:50 23,6 C 7,3 C 10,6 C 45 % 95 % 82 % 1017,9 hPa 0,0 l/m 0,0 km/h (0 Bft) SW 225 0,000 mm 6,6 C 7,3 C 1,6 km/h (1 Bft) 95,65 %
18.10.2019 02:49 23,7 C 7,3 C 10,6 C 45 % 95 % 82 % 1018,0 hPa 0,0 l/m 0,0 km/h (0 Bft) N 0 0,000 mm 6,6 C 7,3 C 0,0 km/h (0 Bft) 95,65 %
18.10.2019 02:48 23,7 C 7,3 C 10,6 C 45 % 95 % 82 % 1018,0 hPa 0,0 l/m 0,0 km/h (0 Bft) SW 225 0,000 mm 6,6 C 7,3 C 1,6 km/h (1 Bft) 95,65 %
18.10.2019 02:47 23,7 C 7,3 C 10,6 C 45 % 95 % 81 % 1018,0 hPa 0,0 l/m 0,0 km/h (0 Bft) N 0 0,000 mm 6,6 C 7,3 C 0,0 km/h (0 Bft) 95,65 %
18.10.2019 02:46 23,7 C 7,3 C 10,6 C 45 % 95 % 81 % 1018,0 hPa 0,0 l/m 0,0 km/h (0 Bft) SW 225 0,000 mm 6,6 C 7,3 C 1,6 km/h (1 Bft) 95,65 %
18.10.2019 02:45 23,7 C 7,3 C 10,6 C 45 % 95 % 81 % 1018,0 hPa 0,0 l/m 1,6 km/h (1 Bft) SW 225 0,000 mm 6,6 C 7,3 C 3,2 km/h (1 Bft) 95,65 %
18.10.2019 02:44 23,7 C 7,3 C 10,6 C 45 % 95 % 81 % 1018,0 hPa 0,0 l/m 4,8 km/h (1 Bft) SW 225 0,000 mm 6,6 C 6,8 C 6,4 km/h (2 Bft) 95,65 %
18.10.2019 02:43 23,7 C 7,3 C 10,6 C 45 % 95 % 81 % 1017,9 hPa 0,0 l/m 3,2 km/h (1 Bft) SW 225 0,000 mm 6,6 C 7,3 C 4,8 km/h (1 Bft) 100,00 %
18.10.2019 02:42 23,7 C 7,3 C 10,6 C 45 % 95 % 81 % 1018,0 hPa 0,0 l/m 3,2 km/h (1 Bft) SW 225 0,000 mm 6,6 C 7,3 C 4,8 km/h (1 Bft) 95,65 %
18.10.2019 02:41 23,7 C 7,3 C 10,6 C 45 % 95 % 81 % 1018,1 hPa 0,0 l/m 3,2 km/h (1 Bft) SW 225 0,000 mm 6,6 C 7,3 C 4,8 km/h (1 Bft) 100,00 %
18.10.2019 02:40 23,7 C 7,3 C 10,6 C 45 % 95 % 81 % 1018,0 hPa 0,0 l/m 4,8 km/h (1 Bft) SW 225 0,000 mm 6,6 C 6,8 C 6,4 km/h (2 Bft) 91,30 %
18.10.2019 02:39 23,7 C 7,3 C 10,6 C 45 % 95 % 81 % 1018,1 hPa 0,0 l/m 3,2 km/h (1 Bft) SW 225 0,000 mm 6,6 C 7,3 C 4,8 km/h (1 Bft) 95,65 %
18.10.2019 02:38 23,7 C 7,3 C 10,6 C 45 % 95 % 81 % 1018,1 hPa 0,0 l/m 3,2 km/h (1 Bft) SW 225 0,000 mm 6,6 C 7,3 C 8,0 km/h (2 Bft) 91,30 %
18.10.2019 02:37 23,7 C 7,3 C 10,6 C 45 % 95 % 81 % 1018,1 hPa 0,0 l/m 3,2 km/h (1 Bft) SW 225 0,000 mm 6,6 C 7,3 C 4,8 km/h (1 Bft) 100,00 %
18.10.2019 02:36 23,7 C 7,3 C 10,6 C 45 % 95 % 81 % 1018,0 hPa 0,0 l/m 4,8 km/h (1 Bft) SW 225 0,000 mm 6,6 C 6,8 C 8,0 km/h (2 Bft) 95,65 %
18.10.2019 02:35 23,7 C 7,3 C 10,6 C 45 % 95 % 81 % 1018,0 hPa 0,0 l/m 4,8 km/h (1 Bft) SW 225 0,000 mm 6,6 C 6,8 C 4,8 km/h (1 Bft) 100,00 %
18.10.2019 02:34 23,7 C 7,3 C 10,6 C 45 % 95 % 81 % 1018,0 hPa 0,0 l/m 4,8 km/h (1 Bft) SW 225 0,000 mm 6,6 C 6,8 C 6,4 km/h (2 Bft) 95,65 %
18.10.2019 02:33 23,7 C 7,3 C 10,6 C 45 % 95 % 81 % 1018,0 hPa 0,0 l/m 3,2 km/h (1 Bft) SW 225 0,000 mm 6,6 C 7,3 C 4,8 km/h (1 Bft) 100,00 %
18.10.2019 02:32 23,7 C 7,4 C 10,6 C 45 % 95 % 81 % 1017,9 hPa 0,0 l/m 3,2 km/h (1 Bft) SW 225 0,000 mm 6,7 C 7,4 C 3,2 km/h (1 Bft) 95,65 %
18.10.2019 02:31 23,7 C 7,4 C 10,6 C 45 % 95 % 81 % 1018,0 hPa 0,0 l/m 1,6 km/h (1 Bft) SW 225 0,000 mm 6,7 C 7,4 C 3,2 km/h (1 Bft) 95,65 %
18.10.2019 02:30 23,7 C 7,4 C 10,6 C 45 % 95 % 81 % 1017,9 hPa 0,0 l/m 3,2 km/h (1 Bft) SW 225 0,000 mm 6,7 C 7,4 C 4,8 km/h (1 Bft) 91,30 %
18.10.2019 02:29 23,7 C 7,4 C 10,6 C 45 % 95 % 81 % 1017,9 hPa 0,0 l/m 3,2 km/h (1 Bft) SW 225 0,000 mm 6,7 C 7,4 C 3,2 km/h (1 Bft) 95,65 %
18.10.2019 02:28 23,7 C 7,4 C 10,6 C 45 % 95 % 81 % 1018,0 hPa 0,0 l/m 1,6 km/h (1 Bft) SW 225 0,000 mm 6,7 C 7,4 C 3,2 km/h (1 Bft) 100,00 %
18.10.2019 02:27 23,7 C 7,4 C 10,6 C 45 % 95 % 81 % 1018,0 hPa 0,0 l/m 1,6 km/h (1 Bft) SW 225 0,000 mm 6,7 C 7,4 C 3,2 km/h (1 Bft) 95,65 %
18.10.2019 02:26 23,7 C 7,4 C 10,6 C 45 % 95 % 81 % 1018,0 hPa 0,0 l/m 1,6 km/h (1 Bft) SW 225 0,000 mm 6,7 C 7,4 C 1,6 km/h (1 Bft) 100,00 %
18.10.2019 02:25 23,7 C 7,4 C 10,6 C 45 % 95 % 81 % 1018,0 hPa 0,0 l/m 1,6 km/h (1 Bft) SW 225 0,000 mm 6,7 C 7,4 C 3,2 km/h (1 Bft) 91,30 %
18.10.2019 02:24 23,7 C 7,4 C 10,6 C 45 % 95 % 81 % 1018,0 hPa 0,0 l/m 1,6 km/h (1 Bft) SW 225 0,000 mm 6,7 C 7,4 C 1,6 km/h (1 Bft) 95,65 %
18.10.2019 02:23 23,7 C 7,4 C 10,6 C 45 % 95 % 81 % 1018,0 hPa 0,0 l/m 1,6 km/h (1 Bft) SW 225 0,000 mm 6,7 C 7,4 C 1,6 km/h (1 Bft) 95,65 %
18.10.2019 02:22 23,7 C 7,4 C 10,6 C 45 % 95 % 81 % 1018,0 hPa 0,0 l/m 1,6 km/h (1 Bft) SW 225 0,000 mm 6,7 C 7,4 C 3,2 km/h (1 Bft) 100,00 %
18.10.2019 02:21 23,7 C 7,5 C 10,6 C 45 % 95 % 81 % 1018,1 hPa 0,0 l/m 1,6 km/h (1 Bft) SW 225 0,000 mm 6,8 C 7,5 C 1,6 km/h (1 Bft) 95,65 %
18.10.2019 02:20 23,7 C 7,5 C 10,6 C 45 % 95 % 81 % 1018,0 hPa 0,0 l/m 0,0 km/h (0 Bft) SW 225 0,000 mm 6,8 C 7,5 C 1,6 km/h (1 Bft) 95,65 %
18.10.2019 02:19 23,7 C 7,5 C 10,6 C 45 % 95 % 81 % 1018,0 hPa 0,0 l/m 1,6 km/h (1 Bft) SW 225 0,000 mm 6,8 C 7,5 C 3,2 km/h (1 Bft) 91,30 %
18.10.2019 02:18 23,7 C 7,5 C 10,6 C 45 % 95 % 81 % 1018,0 hPa 0,0 l/m 3,2 km/h (1 Bft) SW 225 0,000 mm 6,8 C 7,5 C 3,2 km/h (1 Bft) 95,65 %
18.10.2019 02:17 23,7 C 7,6 C 10,6 C 45 % 95 % 81 % 1018,0 hPa 0,0 l/m 3,2 km/h (1 Bft) SW 225 0,000 mm 6,9 C 7,6 C 4,8 km/h (1 Bft) 86,96 %
18.10.2019 02:16 23,7 C 7,6 C 10,6 C 45 % 95 % 81 % 1018,1 hPa 0,0 l/m 3,2 km/h (1 Bft) SW 225 0,000 mm 6,9 C 7,6 C 4,8 km/h (1 Bft) 95,65 %
18.10.2019 02:15 23,7 C 7,6 C 10,6 C 45 % 95 % 81 % 1018,1 hPa 0,0 l/m 3,2 km/h (1 Bft) SW 225 0,000 mm 6,9 C 7,6 C 4,8 km/h (1 Bft) 91,30 %
18.10.2019 02:14 23,7 C 7,5 C 10,6 C 45 % 95 % 81 % 1018,1 hPa 0,0 l/m 3,2 km/h (1 Bft) SW 225 0,000 mm 6,8 C 7,5 C 4,8 km/h (1 Bft) 91,30 %
18.10.2019 02:13 23,7 C 7,6 C 10,6 C 45 % 95 % 81 % 1018,1 hPa 0,0 l/m 3,2 km/h (1 Bft) SW 225 0,000 mm 6,9 C 7,6 C 4,8 km/h (1 Bft) 100,00 %
18.10.2019 02:12 23,8 C 7,6 C 11,1 C 45 % 95 % 81 % 1018,0 hPa 0,0 l/m 3,2 km/h (1 Bft) S-SW 202 0,000 mm 6,9 C 7,6 C 6,4 km/h (2 Bft) 86,96 %
18.10.2019 02:11 23,8 C 7,6 C 10,6 C 45 % 95 % 81 % 1018,0 hPa 0,0 l/m 3,2 km/h (1 Bft) S-SW 202 0,000 mm 6,9 C 7,6 C 4,8 km/h (1 Bft) 100,00 %
18.10.2019 02:10 23,8 C 7,6 C 10,6 C 45 % 95 % 81 % 1018,1 hPa 0,0 l/m 3,2 km/h (1 Bft) S-SW 202 0,000 mm 6,9 C 7,6 C 4,8 km/h (1 Bft) 86,96 %
18.10.2019 02:09 23,8 C 7,6 C 10,6 C 45 % 95 % 81 % 1018,0 hPa 0,0 l/m 3,2 km/h (1 Bft) S-SW 202 0,000 mm 6,9 C 7,6 C 4,8 km/h (1 Bft) 95,65 %
18.10.2019 02:08 23,7 C 7,6 C 11,1 C 45 % 95 % 81 % 1018,1 hPa 0,0 l/m 3,2 km/h (1 Bft) S-SW 202 0,000 mm 6,9 C 7,6 C 4,8 km/h (1 Bft) 95,65 %
18.10.2019 02:07 23,8 C 7,6 C 11,1 C 45 % 95 % 81 % 1018,1 hPa 0,0 l/m 4,8 km/h (1 Bft) S-SW 202 0,000 mm 6,9 C 7,1 C 6,4 km/h (2 Bft) 95,65 %
18.10.2019 02:06 23,8 C 7,6 C 11,1 C 45 % 95 % 81 % 1018,1 hPa 0,0 l/m 4,8 km/h (1 Bft) SW 225 0,000 mm 6,9 C 7,1 C 4,8 km/h (1 Bft) 91,30 %
18.10.2019 02:05 23,8 C 7,6 C 11,1 C 45 % 95 % 81 % 1018,1 hPa 0,0 l/m 3,2 km/h (1 Bft) SW 225 0,000 mm 6,9 C 7,6 C 4,8 km/h (1 Bft) 91,30 %
18.10.2019 02:04 23,8 C 7,6 C 11,1 C 45 % 95 % 81 % 1018,0 hPa 0,0 l/m 3,2 km/h (1 Bft) SW 225 0,000 mm 6,9 C 7,6 C 4,8 km/h (1 Bft) 95,65 %
18.10.2019 02:03 23,8 C 7,6 C 11,1 C 45 % 95 % 81 % 1018,1 hPa 0,0 l/m 1,6 km/h (1 Bft) SW 225 0,000 mm 6,9 C 7,6 C 3,2 km/h (1 Bft) 91,30 %
18.10.2019 02:02 23,8 C 7,6 C 11,1 C 45 % 95 % 81 % 1018,0 hPa 0,0 l/m 1,6 km/h (1 Bft) SW 225 0,000 mm 6,9 C 7,6 C 3,2 km/h (1 Bft) 91,30 %
18.10.2019 02:01 23,8 C 7,6 C 11,1 C 45 % 95 % 81 % 1018,0 hPa 0,0 l/m 1,6 km/h (1 Bft) SW 225 0,000 mm 6,9 C 7,6 C 3,2 km/h (1 Bft) 95,65 %
18.10.2019 02:00 23,8 C 7,6 C 11,1 C 45 % 95 % 81 % 1018,0 hPa 0,0 l/m 3,2 km/h (1 Bft) SW 225 0,000 mm 6,9 C 7,6 C 4,8 km/h (1 Bft) 91,30 %
18.10.2019 01:59 23,8 C 7,6 C 11,1 C 45 % 95 % 81 % 1017,9 hPa 0,0 l/m 3,2 km/h (1 Bft) S-SW 202 0,000 mm 6,9 C 7,6 C 3,2 km/h (1 Bft) 91,30 %
18.10.2019 01:58 23,8 C 7,6 C 11,1 C 45 % 95 % 81 % 1018,0 hPa 0,0 l/m 3,2 km/h (1 Bft) S-SW 202 0,000 mm 6,9 C 7,6 C 4,8 km/h (1 Bft) 95,65 %
18.10.2019 01:57 23,8 C 7,6 C 11,1 C 45 % 95 % 81 % 1018,0 hPa 0,0 l/m 4,8 km/h (1 Bft) S-SW 202 0,000 mm 6,9 C 7,1 C 4,8 km/h (1 Bft) 91,30 %
18.10.2019 01:56 23,8 C 7,6 C 11,1 C 45 % 95 % 81 % 1018,0 hPa 0,0 l/m 1,6 km/h (1 Bft) S-SW 202 0,000 mm 6,9 C 7,6 C 4,8 km/h (1 Bft) 91,30 %
18.10.2019 01:55 23,8 C 7,6 C 11,1 C 45 % 95 % 81 % 1017,9 hPa 0,0 l/m 3,2 km/h (1 Bft) S-SW 202 0,000 mm 6,9 C 7,6 C 4,8 km/h (1 Bft) 95,65 %
18.10.2019 01:54 23,8 C 7,7 C 11,1 C 45 % 95 % 81 % 1018,1 hPa 0,0 l/m 3,2 km/h (1 Bft) S-SW 202 0,000 mm 7,0 C 7,7 C 4,8 km/h (1 Bft) 95,65 %
18.10.2019 01:53 23,8 C 7,6 C 11,1 C 45 % 95 % 81 % 1018,0 hPa 0,0 l/m 3,2 km/h (1 Bft) S-SW 202 0,000 mm 6,9 C 7,6 C 4,8 km/h (1 Bft) 95,65 %
18.10.2019 01:52 23,8 C 7,6 C 11,1 C 45 % 95 % 81 % 1017,9 hPa 0,0 l/m 3,2 km/h (1 Bft) S-SW 202 0,000 mm 6,9 C 7,6 C 4,8 km/h (1 Bft) 95,65 %
18.10.2019 01:51 23,8 C 7,7 C 11,1 C 45 % 95 % 81 % 1018,0 hPa 0,0 l/m 3,2 km/h (1 Bft) S-SW 202 0,000 mm 7,0 C 7,7 C 4,8 km/h (1 Bft) 91,30 %
18.10.2019 01:50 23,8 C 7,7 C 11,1 C 45 % 95 % 81 % 1018,0 hPa 0,0 l/m 3,2 km/h (1 Bft) SW 225 0,000 mm 7,0 C 7,7 C 4,8 km/h (1 Bft) 100,00 %
18.10.2019 01:49 23,8 C 7,7 C 11,1 C 45 % 95 % 81 % 1018,0 hPa 0,0 l/m 3,2 km/h (1 Bft) SW 225 0,000 mm 7,0 C 7,7 C 4,8 km/h (1 Bft) 91,30 %
18.10.2019 01:48 23,8 C 7,6 C 11,1 C 45 % 95 % 81 % 1017,9 hPa 0,0 l/m 3,2 km/h (1 Bft) SW 225 0,000 mm 6,9 C 7,6 C 4,8 km/h (1 Bft) 95,65 %
18.10.2019 01:47 23,8 C 7,7 C 11,1 C 45 % 95 % 81 % 1017,8 hPa 0,0 l/m 3,2 km/h (1 Bft) SW 225 0,000 mm 7,0 C 7,7 C 3,2 km/h (1 Bft) 91,30 %
18.10.2019 01:46 23,8 C 7,7 C 11,1 C 45 % 95 % 81 % 1017,9 hPa 0,0 l/m 1,6 km/h (1 Bft) SW 225 0,000 mm 7,0 C 7,7 C 3,2 km/h (1 Bft) 100,00 %
18.10.2019 01:45 23,8 C 7,6 C 11,1 C 45 % 95 % 81 % 1017,9 hPa 0,0 l/m 3,2 km/h (1 Bft) SW 225 0,000 mm 6,9 C 7,6 C 4,8 km/h (1 Bft) 95,65 %
18.10.2019 01:44 23,8 C 7,7 C 11,1 C 45 % 95 % 81 % 1017,9 hPa 0,0 l/m 3,2 km/h (1 Bft) SW 225 0,000 mm 7,0 C 7,7 C 4,8 km/h (1 Bft) 100,00 %
18.10.2019 01:43 23,8 C 7,7 C 11,1 C 45 % 95 % 81 % 1017,9 hPa 0,0 l/m 3,2 km/h (1 Bft) SW 225 0,000 mm 7,0 C 7,7 C 4,8 km/h (1 Bft) 95,65 %
18.10.2019 01:42 23,8 C 7,7 C 11,1 C 45 % 95 % 81 % 1017,8 hPa 0,0 l/m 3,2 km/h (1 Bft) SW 225 0,000 mm 7,0 C 7,7 C 6,4 km/h (2 Bft) 91,30 %
18.10.2019 01:41 23,8 C 7,7 C 11,1 C 45 % 95 % 81 % 1017,9 hPa 0,0 l/m 3,2 km/h (1 Bft) SW 225 0,000 mm 7,0 C 7,7 C 4,8 km/h (1 Bft) 100,00 %
18.10.2019 01:40 23,9 C 7,7 C 11,1 C 45 % 95 % 81 % 1017,9 hPa 0,0 l/m 3,2 km/h (1 Bft) SW 225 0,000 mm 7,0 C 7,7 C 4,8 km/h (1 Bft) 95,65 %
18.10.2019 01:39 23,9 C 7,7 C 11,1 C 45 % 95 % 81 % 1017,8 hPa 0,0 l/m 3,2 km/h (1 Bft) SW 225 0,000 mm 7,0 C 7,7 C 4,8 km/h (1 Bft) 100,00 %
18.10.2019 01:38 23,8 C 7,7 C 11,1 C 45 % 95 % 81 % 1017,9 hPa 0,0 l/m 3,2 km/h (1 Bft) SW 225 0,000 mm 7,0 C 7,7 C 4,8 km/h (1 Bft) 95,65 %
18.10.2019 01:37 23,9 C 7,7 C 11,1 C 45 % 95 % 81 % 1017,9 hPa 0,0 l/m 1,6 km/h (1 Bft) SW 225 0,000 mm 7,0 C 7,7 C 1,6 km/h (1 Bft) 100,00 %
18.10.2019 01:36 23,9 C 7,7 C 11,1 C 45 % 95 % 80 % 1017,8 hPa 0,0 l/m 1,6 km/h (1 Bft) SW 225 0,000 mm 7,0 C 7,7 C 3,2 km/h (1 Bft) 91,30 %
18.10.2019 01:35 23,9 C 7,6 C 11,1 C 45 % 95 % 80 % 1017,8 hPa 0,0 l/m 3,2 km/h (1 Bft) SW 225 0,000 mm 6,9 C 7,6 C 3,2 km/h (1 Bft) 91,30 %
18.10.2019 01:34 23,9 C 7,7 C 11,1 C 45 % 95 % 80 % 1017,9 hPa 0,0 l/m 3,2 km/h (1 Bft) SW 225 0,000 mm 7,0 C 7,7 C 3,2 km/h (1 Bft) 91,30 %
18.10.2019 01:33 23,8 C 7,6 C 11,1 C 45 % 95 % 81 % 1017,9 hPa 0,0 l/m 3,2 km/h (1 Bft) SW 225 0,000 mm 6,9 C 7,6 C 4,8 km/h (1 Bft) 100,00 %
18.10.2019 01:32 23,9 C 7,7 C 11,1 C 45 % 95 % 81 % 1017,8 hPa 0,0 l/m 3,2 km/h (1 Bft) SW 225 0,000 mm 7,0 C 7,7 C 4,8 km/h (1 Bft) 95,65 %
18.10.2019 01:31 23,9 C 7,6 C 11,1 C 45 % 95 % 80 % 1017,9 hPa 0,0 l/m 4,8 km/h (1 Bft) SW 225 0,000 mm 6,9 C 7,1 C 4,8 km/h (1 Bft) 100,00 %
18.10.2019 01:30 23,9 C 7,6 C 11,1 C 45 % 95 % 80 % 1017,8 hPa 0,0 l/m 3,2 km/h (1 Bft) SW 225 0,000 mm 6,9 C 7,6 C 4,8 km/h (1 Bft) 95,65 %
18.10.2019 01:29 23,9 C 7,6 C 11,1 C 45 % 95 % 80 % 1017,8 hPa 0,0 l/m 4,8 km/h (1 Bft) SW 225 0,000 mm 6,9 C 7,1 C 6,4 km/h (2 Bft) 100,00 %
18.10.2019 01:28 23,9 C 7,6 C 11,1 C 45 % 95 % 80 % 1017,8 hPa 0,0 l/m 3,2 km/h (1 Bft) SW 225 0,000 mm 6,9 C 7,6 C 6,4 km/h (2 Bft) 91,30 %
18.10.2019 01:27 23,9 C 7,6 C 11,1 C 45 % 95 % 80 % 1017,8 hPa 0,0 l/m 4,8 km/h (1 Bft) SW 225 0,000 mm 6,9 C 7,1 C 6,4 km/h (2 Bft) 95,65 %
18.10.2019 01:26 23,9 C 7,6 C 11,1 C 45 % 96 % 80 % 1017,8 hPa 0,0 l/m 3,2 km/h (1 Bft) S-SW 202 0,000 mm 7,0 C 7,6 C 4,8 km/h (1 Bft) 100,00 %
18.10.2019 01:25 23,9 C 7,6 C 11,1 C 45 % 96 % 80 % 1017,7 hPa 0,0 l/m 3,2 km/h (1 Bft) S-SW 202 0,000 mm 7,0 C 7,6 C 4,8 km/h (1 Bft) 95,65 %
18.10.2019 01:24 23,9 C 7,6 C 11,1 C 45 % 96 % 80 % 1017,7 hPa 0,0 l/m 3,2 km/h (1 Bft) S-SW 202 0,000 mm 7,0 C 7,6 C 4,8 km/h (1 Bft) 100,00 %
18.10.2019 01:23 23,9 C 7,6 C 11,1 C 45 % 96 % 80 % 1017,8 hPa 0,0 l/m 3,2 km/h (1 Bft) S-SW 202 0,000 mm 7,0 C 7,6 C 4,8 km/h (1 Bft) 95,65 %
18.10.2019 01:22 23,9 C 7,6 C 11,1 C 45 % 96 % 80 % 1017,7 hPa 0,0 l/m 3,2 km/h (1 Bft) S-SW 202 0,000 mm 7,0 C 7,6 C 4,8 km/h (1 Bft) 95,65 %
18.10.2019 01:21 23,9 C 7,5 C 11,1 C 45 % 96 % 80 % 1017,8 hPa 0,0 l/m 3,2 km/h (1 Bft) S-SW 202 0,000 mm 6,9 C 7,5 C 4,8 km/h (1 Bft) 91,30 %
18.10.2019 01:20 23,9 C 7,5 C 11,1 C 45 % 96 % 80 % 1017,7 hPa 0,0 l/m 1,6 km/h (1 Bft) S-SW 202 0,000 mm 6,9 C 7,5 C 3,2 km/h (1 Bft) 100,00 %
18.10.2019 01:19 23,9 C 7,4 C 11,1 C 45 % 96 % 80 % 1017,8 hPa 0,0 l/m 3,2 km/h (1 Bft) S-SW 202 0,000 mm 6,8 C 7,4 C 3,2 km/h (1 Bft) 95,65 %
18.10.2019 01:18 23,9 C 7,4 C 11,1 C 45 % 95 % 80 % 1017,7 hPa 0,0 l/m 3,2 km/h (1 Bft) S-SW 202 0,000 mm 6,7 C 7,4 C 4,8 km/h (1 Bft) 100,00 %
18.10.2019 01:17 23,9 C 7,4 C 11,1 C 45 % 95 % 80 % 1017,8 hPa 0,0 l/m 3,2 km/h (1 Bft) S-SW 202 0,000 mm 6,7 C 7,4 C 4,8 km/h (1 Bft) 95,65 %
18.10.2019 01:16 23,9 C 7,3 C 11,1 C 45 % 95 % 80 % 1017,7 hPa 0,0 l/m 1,6 km/h (1 Bft) S-SW 202 0,000 mm 6,6 C 7,3 C 3,2 km/h (1 Bft) 95,65 %
18.10.2019 01:15 23,9 C 7,3 C 11,1 C 45 % 95 % 80 % 1017,8 hPa 0,0 l/m 3,2 km/h (1 Bft) S-SW 202 0,000 mm 6,6 C 7,3 C 4,8 km/h (1 Bft) 95,65 %
18.10.2019 01:14 24,0 C 7,3 C 11,1 C 45 % 95 % 80 % 1017,8 hPa 0,0 l/m 3,2 km/h (1 Bft) S-SW 202 0,000 mm 6,6 C 7,3 C 6,4 km/h (2 Bft) 95,65 %
18.10.2019 01:13 23,9 C 7,3 C 11,1 C 45 % 95 % 80 % 1017,8 hPa 0,0 l/m 3,2 km/h (1 Bft) S-SW 202 0,000 mm 6,6 C 7,3 C 6,4 km/h (2 Bft) 91,30 %
18.10.2019 01:12 23,9 C 7,3 C 11,1 C 45 % 95 % 80 % 1017,7 hPa 0,0 l/m 3,2 km/h (1 Bft) S-SW 202 0,000 mm 6,6 C 7,3 C 3,2 km/h (1 Bft) 100,00 %
18.10.2019 01:11 23,9 C 7,3 C 11,1 C 45 % 95 % 80 % 1017,7 hPa 0,0 l/m 1,6 km/h (1 Bft) S-SW 202 0,000 mm 6,6 C 7,3 C 3,2 km/h (1 Bft) 91,30 %
18.10.2019 01:10 24,0 C 7,2 C 11,1 C 45 % 95 % 80 % 1017,7 hPa 0,0 l/m 1,6 km/h (1 Bft) S-SW 202 0,000 mm 6,5 C 7,2 C 3,2 km/h (1 Bft) 95,65 %
18.10.2019 01:09 23,9 C 7,2 C 11,1 C 45 % 95 % 80 % 1017,7 hPa 0,0 l/m 3,2 km/h (1 Bft) S-SW 202 0,000 mm 6,5 C 7,2 C 3,2 km/h (1 Bft) 100,00 %
18.10.2019 01:08 24,0 C 7,2 C 11,1 C 45 % 95 % 80 % 1017,7 hPa 0,0 l/m 3,2 km/h (1 Bft) S-SW 202 0,000 mm 6,5 C 7,2 C 3,2 km/h (1 Bft) 91,30 %
18.10.2019 01:07 24,0 C 7,2 C 11,1 C 45 % 95 % 80 % 1017,7 hPa 0,0 l/m 3,2 km/h (1 Bft) S-SW 202 0,000 mm 6,5 C 7,2 C 3,2 km/h (1 Bft) 91,30 %
18.10.2019 01:06 24,0 C 7,2 C 11,1 C 45 % 95 % 80 % 1017,7 hPa 0,0 l/m 3,2 km/h (1 Bft) S-SW 202 0,000 mm 6,5 C 7,2 C 4,8 km/h (1 Bft) 95,65 %
18.10.2019 01:05 24,0 C 7,2 C 11,1 C 45 % 95 % 80 % 1017,7 hPa 0,0 l/m 3,2 km/h (1 Bft) S-SW 202 0,000 mm 6,5 C 7,2 C 3,2 km/h (1 Bft) 100,00 %
18.10.2019 01:04 24,0 C 7,2 C 11,1 C 45 % 95 % 80 % 1017,7 hPa 0,0 l/m 3,2 km/h (1 Bft) S-SW 202 0,000 mm 6,5 C 7,2 C 3,2 km/h (1 Bft) 95,65 %
18.10.2019 01:03 24,0 C 7,2 C 11,7 C 45 % 95 % 80 % 1017,7 hPa 0,0 l/m 3,2 km/h (1 Bft) S-SW 202 0,000 mm 6,5 C 7,2 C 4,8 km/h (1 Bft) 100,00 %
18.10.2019 01:02 24,0 C 7,1 C 11,7 C 45 % 95 % 80 % 1017,7 hPa 0,0 l/m 3,2 km/h (1 Bft) S-SW 202 0,000 mm 6,4 C 7,1 C 4,8 km/h (1 Bft) 95,65 %
18.10.2019 01:01 24,0 C 7,2 C 11,7 C 45 % 95 % 80 % 1017,7 hPa 0,0 l/m 3,2 km/h (1 Bft) S-SW 202 0,000 mm 6,5 C 7,2 C 3,2 km/h (1 Bft) 95,65 %
18.10.2019 01:00 24,0 C 7,1 C 11,7 C 45 % 95 % 80 % 1017,6 hPa 0,0 l/m 1,6 km/h (1 Bft) O 90 0,000 mm 6,4 C 7,1 C 3,2 km/h (1 Bft) 91,30 %
18.10.2019 00:59 24,0 C 7,1 C 11,7 C 45 % 94 % 80 % 1017,6 hPa 0,0 l/m 1,6 km/h (1 Bft) O 90 0,000 mm 6,2 C 7,1 C 3,2 km/h (1 Bft) 100,00 %
18.10.2019 00:58 24,0 C 7,2 C 11,7 C 45 % 94 % 80 % 1017,5 hPa 0,0 l/m 1,6 km/h (1 Bft) O 90 0,000 mm 6,3 C 7,2 C 3,2 km/h (1 Bft) 95,65 %
18.10.2019 00:57 24,1 C 7,2 C 11,7 C 45 % 94 % 80 % 1017,6 hPa 0,0 l/m 0,0 km/h (0 Bft) O 90 0,000 mm 6,3 C 7,2 C 1,6 km/h (1 Bft) 100,00 %
18.10.2019 00:56 24,0 C 7,2 C 11,7 C 45 % 95 % 80 % 1017,5 hPa 0,0 l/m 0,0 km/h (0 Bft) O 90 0,000 mm 6,5 C 7,2 C 1,6 km/h (1 Bft) 95,65 %
18.10.2019 00:55 24,0 C 7,2 C 11,7 C 45 % 94 % 80 % 1017,5 hPa 0,0 l/m 0,0 km/h (0 Bft) O 90 0,000 mm 6,3 C 7,2 C 1,6 km/h (1 Bft) 95,65 %
18.10.2019 00:54 24,1 C 7,2 C 11,7 C 45 % 94 % 80 % 1017,5 hPa 0,0 l/m 0,0 km/h (0 Bft) O 90 0,000 mm 6,3 C 7,2 C 1,6 km/h (1 Bft) 95,65 %
18.10.2019 00:53 24,1 C 7,2 C 11,7 C 45 % 94 % 80 % 1017,5 hPa 0,0 l/m 1,6 km/h (1 Bft) O 90 0,000 mm 6,3 C 7,2 C 1,6 km/h (1 Bft) 91,30 %
18.10.2019 00:52 24,1 C 7,2 C 11,7 C 45 % 94 % 80 % 1017,5 hPa 0,0 l/m 1,6 km/h (1 Bft) O 90 0,000 mm 6,3 C 7,2 C 1,6 km/h (1 Bft) 95,65 %
18.10.2019 00:51 24,1 C 7,3 C 11,7 C 45 % 94 % 80 % 1017,5 hPa 0,0 l/m 1,6 km/h (1 Bft) O 90 0,000 mm 6,4 C 7,3 C 1,6 km/h (1 Bft) 91,30 %
18.10.2019 00:50 24,1 C 7,3 C 11,7 C 44 % 94 % 80 % 1017,5 hPa 0,0 l/m 0,0 km/h (0 Bft) O 90 0,000 mm 6,4 C 7,3 C 1,6 km/h (1 Bft) 100,00 %
18.10.2019 00:49 24,1 C 7,3 C 11,7 C 44 % 94 % 80 % 1017,4 hPa 0,0 l/m 0,0 km/h (0 Bft) O 90 0,000 mm 6,4 C 7,3 C 1,6 km/h (1 Bft) 95,65 %
18.10.2019 00:48 24,1 C 7,3 C 11,7 C 44 % 94 % 80 % 1017,4 hPa 0,0 l/m 0,0 km/h (0 Bft) O 90 0,000 mm 6,4 C 7,3 C 1,6 km/h (1 Bft) 100,00 %
18.10.2019 00:47 24,1 C 7,3 C 11,7 C 44 % 94 % 80 % 1017,5 hPa 0,0 l/m 0,0 km/h (0 Bft) N 0 0,000 mm 6,4 C 7,3 C 0,0 km/h (0 Bft) 95,65 %
18.10.2019 00:46 24,1 C 7,3 C 11,7 C 44 % 94 % 80 % 1017,4 hPa 0,0 l/m 0,0 km/h (0 Bft) N 0 0,000 mm 6,4 C 7,3 C 0,0 km/h (0 Bft) 91,30 %
18.10.2019 00:45 24,1 C 7,3 C 11,7 C 44 % 94 % 80 % 1017,4 hPa 0,0 l/m 0,0 km/h (0 Bft) N 0 0,000 mm 6,4 C 7,3 C 0,0 km/h (0 Bft) 95,65 %
18.10.2019 00:44 24,1 C 7,4 C 11,7 C 44 % 94 % 80 % 1017,4 hPa 0,0 l/m 0,0 km/h (0 Bft) N 0 0,000 mm 6,5 C 7,4 C 0,0 km/h (0 Bft) 95,65 %
18.10.2019 00:43 24,1 C 7,4 C 11,7 C 44 % 94 % 80 % 1017,3 hPa 0,0 l/m 0,0 km/h (0 Bft) N 0 0,000 mm 6,5 C 7,4 C 0,0 km/h (0 Bft) 95,65 %
18.10.2019 00:42 24,1 C 7,4 C 11,7 C 44 % 94 % 80 % 1017,4 hPa 0,0 l/m 0,0 km/h (0 Bft) O 90 0,000 mm 6,5 C 7,4 C 1,6 km/h (1 Bft) 95,65 %
18.10.2019 00:41 24,1 C 7,4 C 11,7 C 44 % 94 % 80 % 1017,4 hPa 0,0 l/m 0,0 km/h (0 Bft) O 90 0,000 mm 6,5 C 7,4 C 1,6 km/h (1 Bft) 91,30 %
18.10.2019 00:40 24,1 C 7,4 C 11,7 C 44 % 95 % 80 % 1017,5 hPa 0,0 l/m 0,0 km/h (0 Bft) N 0 0,000 mm 6,7 C 7,4 C 0,0 km/h (0 Bft) 95,65 %
18.10.2019 00:39 24,1 C 7,4 C 11,7 C 44 % 95 % 80 % 1017,4 hPa 0,0 l/m 0,0 km/h (0 Bft) N 0 0,000 mm 6,7 C 7,4 C 0,0 km/h (0 Bft) 91,30 %
18.10.2019 00:38 24,1 C 7,5 C 11,7 C 44 % 94 % 80 % 1017,4 hPa 0,0 l/m 0,0 km/h (0 Bft) N 0 0,000 mm 6,6 C 7,5 C 0,0 km/h (0 Bft) 95,65 %
18.10.2019 00:37 24,1 C 7,6 C 11,7 C 44 % 94 % 80 % 1017,4 hPa 0,0 l/m 0,0 km/h (0 Bft) N 0 0,000 mm 6,7 C 7,6 C 0,0 km/h (0 Bft) 95,65 %
18.10.2019 00:36 24,1 C 7,6 C 11,7 C 44 % 95 % 80 % 1017,4 hPa 0,0 l/m 0,0 km/h (0 Bft) N 0 0,000 mm 6,9 C 7,6 C 0,0 km/h (0 Bft) 91,30 %
18.10.2019 00:35 24,1 C 7,6 C 11,7 C 44 % 95 % 79 % 1017,4 hPa 0,0 l/m 0,0 km/h (0 Bft) N 0 0,000 mm 6,9 C 7,6 C 0,0 km/h (0 Bft) 91,30 %
18.10.2019 00:34 24,1 C 7,6 C 11,7 C 44 % 95 % 79 % 1017,3 hPa 0,0 l/m 0,0 km/h (0 Bft) N 0 0,000 mm 6,9 C 7,6 C 0,0 km/h (0 Bft) 95,65 %
18.10.2019 00:33 24,1 C 7,6 C 11,7 C 44 % 95 % 79 % 1017,4 hPa 0,0 l/m 0,0 km/h (0 Bft) N 0 0,000 mm 6,9 C 7,6 C 0,0 km/h (0 Bft) 95,65 %
18.10.2019 00:32 24,1 C 7,6 C 11,7 C 44 % 95 % 79 % 1017,3 hPa 0,0 l/m 0,0 km/h (0 Bft) O 90 0,000 mm 6,9 C 7,6 C 1,6 km/h (1 Bft) 86,96 %
18.10.2019 00:31 24,1 C 7,6 C 11,7 C 44 % 95 % 79 % 1017,4 hPa 0,0 l/m 1,6 km/h (1 Bft) O 90 0,000 mm 6,9 C 7,6 C 1,6 km/h (1 Bft) 100,00 %
18.10.2019 00:30 24,2 C 7,6 C 11,7 C 44 % 95 % 80 % 1017,4 hPa 0,0 l/m 0,0 km/h (0 Bft) O 90 0,000 mm 6,9 C 7,6 C 1,6 km/h (1 Bft) 91,30 %
18.10.2019 00:29 24,2 C 7,6 C 11,7 C 44 % 95 % 80 % 1017,4 hPa 0,0 l/m 0,0 km/h (0 Bft) N 0 0,000 mm 6,9 C 7,6 C 0,0 km/h (0 Bft) 100,00 %
18.10.2019 00:28 24,1 C 7,6 C 11,7 C 44 % 95 % 80 % 1017,5 hPa 0,0 l/m 0,0 km/h (0 Bft) N 0 0,000 mm 6,9 C 7,6 C 0,0 km/h (0 Bft) 91,30 %
18.10.2019 00:27 24,2 C 7,6 C 11,7 C 44 % 95 % 80 % 1017,4 hPa 0,0 l/m 0,0 km/h (0 Bft) N 0 0,000 mm 6,9 C 7,6 C 0,0 km/h (0 Bft) 100,00 %
18.10.2019 00:26 24,1 C 7,6 C 11,7 C 44 % 95 % 80 % 1017,4 hPa 0,0 l/m 0,0 km/h (0 Bft) N 0 0,000 mm 6,9 C 7,6 C 0,0 km/h (0 Bft) 91,30 %
18.10.2019 00:25 24,2 C 7,6 C 11,7 C 44 % 95 % 80 % 1017,5 hPa 0,0 l/m 0,0 km/h (0 Bft) N 0 0,000 mm 6,9 C 7,6 C 0,0 km/h (0 Bft) 91,30 %
18.10.2019 00:24 24,2 C 7,7 C 11,7 C 44 % 95 % 80 % 1017,6 hPa 0,0 l/m 0,0 km/h (0 Bft) O 90 0,000 mm 7,0 C 7,7 C 1,6 km/h (1 Bft) 91,30 %
18.10.2019 00:23 24,2 C 7,7 C 11,7 C 44 % 95 % 79 % 1017,5 hPa 0,0 l/m 0,0 km/h (0 Bft) O 90 0,000 mm 7,0 C 7,7 C 1,6 km/h (1 Bft) 91,30 %
18.10.2019 00:22 24,2 C 7,7 C 11,7 C 44 % 95 % 79 % 1017,5 hPa 0,0 l/m 1,6 km/h (1 Bft) O 90 0,000 mm 7,0 C 7,7 C 3,2 km/h (1 Bft) 100,00 %
18.10.2019 00:21 24,2 C 7,7 C 11,7 C 44 % 95 % 79 % 1017,5 hPa 0,0 l/m 0,0 km/h (0 Bft) O 90 0,000 mm 7,0 C 7,7 C 1,6 km/h (1 Bft) 86,96 %
18.10.2019 00:20 24,2 C 7,7 C 11,7 C 44 % 95 % 79 % 1017,5 hPa 0,0 l/m 0,0 km/h (0 Bft) O 90 0,000 mm 7,0 C 7,7 C 1,6 km/h (1 Bft) 100,00 %
18.10.2019 00:19 24,2 C 7,7 C 11,7 C 44 % 95 % 79 % 1017,5 hPa 0,0 l/m 0,0 km/h (0 Bft) N 0 0,000 mm 7,0 C 7,7 C 0,0 km/h (0 Bft) 95,65 %
18.10.2019 00:18 24,2 C 7,7 C 11,7 C 44 % 95 % 79 % 1017,5 hPa 0,0 l/m 0,0 km/h (0 Bft) O 90 0,000 mm 7,0 C 7,7 C 1,6 km/h (1 Bft) 91,30 %
18.10.2019 00:17 24,2 C 7,7 C 11,7 C 44 % 95 % 79 % 1017,6 hPa 0,0 l/m 0,0 km/h (0 Bft) N 0 0,000 mm 7,0 C 7,7 C 0,0 km/h (0 Bft) 95,65 %
18.10.2019 00:16 24,2 C 7,7 C 11,7 C 44 % 95 % 79 % 1017,5 hPa 0,0 l/m 0,0 km/h (0 Bft) N 0 0,000 mm 7,0 C 7,7 C 0,0 km/h (0 Bft) 100,00 %
18.10.2019 00:15 24,2 C 7,7 C 11,7 C 44 % 95 % 79 % 1017,5 hPa 0,0 l/m 0,0 km/h (0 Bft) N 0 0,000 mm 7,0 C 7,7 C 0,0 km/h (0 Bft) 95,65 %
18.10.2019 00:14 24,2 C 7,7 C 11,7 C 44 % 95 % 79 % 1017,5 hPa 0,0 l/m 0,0 km/h (0 Bft) O 90 0,000 mm 7,0 C 7,7 C 1,6 km/h (1 Bft) 100,00 %
18.10.2019 00:13 24,2 C 7,7 C 11,7 C 44 % 95 % 79 % 1017,6 hPa 0,0 l/m 1,6 km/h (1 Bft) O 90 0,000 mm 7,0 C 7,7 C 3,2 km/h (1 Bft) 95,65 %
18.10.2019 00:12 24,2 C 7,7 C 11,7 C 44 % 95 % 79 % 1017,6 hPa 0,0 l/m 1,6 km/h (1 Bft) O 90 0,000 mm 7,0 C 7,7 C 1,6 km/h (1 Bft) 95,65 %
18.10.2019 00:11 24,2 C 7,7 C 11,7 C 44 % 95 % 79 % 1017,6 hPa 0,0 l/m 0,0 km/h (0 Bft) N 0 0,000 mm 7,0 C 7,7 C 0,0 km/h (0 Bft) 86,96 %
18.10.2019 00:10 24,2 C 7,7 C 11,7 C 44 % 95 % 79 % 1017,5 hPa 0,0 l/m 0,0 km/h (0 Bft) O 90 0,000 mm 7,0 C 7,7 C 1,6 km/h (1 Bft) 100,00 %
18.10.2019 00:09 24,2 C 7,7 C 11,7 C 44 % 95 % 79 % 1017,6 hPa 0,0 l/m 1,6 km/h (1 Bft) O 90 0,000 mm 7,0 C 7,7 C 3,2 km/h (1 Bft) 95,65 %
18.10.2019 00:08 24,3 C 7,7 C 12,2 C 44 % 95 % 79 % 1017,6 hPa 0,0 l/m 1,6 km/h (1 Bft) O 90 0,000 mm 7,0 C 7,7 C 3,2 km/h (1 Bft) 95,65 %
18.10.2019 00:07 24,3 C 7,7 C 12,2 C 44 % 95 % 79 % 1017,6 hPa 0,0 l/m 0,0 km/h (0 Bft) O 90 0,000 mm 7,0 C 7,7 C 1,6 km/h (1 Bft) 100,00 %
18.10.2019 00:06 24,2 C 7,7 C 12,2 C 44 % 95 % 79 % 1017,6 hPa 0,0 l/m 1,6 km/h (1 Bft) O 90 0,000 mm 7,0 C 7,7 C 1,6 km/h (1 Bft) 95,65 %
18.10.2019 00:05 24,3 C 7,7 C 12,2 C 44 % 95 % 79 % 1017,6 hPa 0,0 l/m 1,6 km/h (1 Bft) O 90 0,000 mm 7,0 C 7,7 C 1,6 km/h (1 Bft) 100,00 %
18.10.2019 00:04 24,2 C 7,7 C 12,2 C 44 % 95 % 79 % 1017,5 hPa 0,0 l/m 1,6 km/h (1 Bft) O 90 0,000 mm 7,0 C 7,7 C 1,6 km/h (1 Bft) 95,65 %
18.10.2019 00:03 24,3 C 7,7 C 12,2 C 44 % 95 % 79 % 1017,6 hPa 0,0 l/m 0,0 km/h (0 Bft) O 90 0,000 mm 7,0 C 7,7 C 1,6 km/h (1 Bft) 95,65 %
18.10.2019 00:02 24,3 C 7,6 C 12,2 C 44 % 95 % 79 % 1017,6 hPa 0,0 l/m 1,6 km/h (1 Bft) O 90 0,000 mm 6,9 C 7,6 C 1,6 km/h (1 Bft) 95,65 %
18.10.2019 00:01 24,3 C 7,7 C 12,2 C 44 % 95 % 79 % 1017,6 hPa 0,0 l/m 1,6 km/h (1 Bft) O 90 0,000 mm 7,0 C 7,7 C 1,6 km/h (1 Bft) 95,65 %
18.10.2019 00:00 24,3 C 7,7 C 12,2 C 44 % 95 % 79 % 1017,6 hPa 0,0 l/m 1,6 km/h (1 Bft) O 90 0,000 mm 7,0 C 7,7 C 1,6 km/h (1 Bft) 95,65 %
_ Min-Zeit 06:11 06:53 06:42 00:00 12:11 00:00 00:32 - 00:03 - - - 06:53 06:53 00:11 03:42
Minimum _ 23,1 C 4,9 C 8,3 C 44 % 93 % 79 % 1017,3 hPa - 0,0 km/h (0 Bft) - - - 4,2 C 4,9 C 0,0 km/h (0 Bft) 82,61 %
_ Max-Zeit 10:57 12:11 12:11 09:16 07:35 10:43 10:01 00:00 01:27 - - 00:00 12:07 12:11 12:09 00:05
Maximum _ 25,3 C 11,1 C 15,0 C 49 % 97 % 95 % 1019,1 hPa 0,0 l/m 4,8 km/h
SW (1 Bft)
- - 0,000 mm 10,2 C 11,1 C 11,3 km/h
O-SO (2 Bft)
100,00 %
Durchschnitt _ 24,0 C 7,2 C 10,5 C 45 % 96 % 85 % 1018,2 hPa #0,0 l/m 1,4 km/h (1 Bft) SW - #0,000 mm 6,6 C 7,2 C 2,5 km/h (1 Bft) 96,26 %